<?xml version="1.0" encoding="UTF-8" standalone="no" ?>
<gpx xmlns="http://www.topografix.com/GPX/1/1" xmlns:xsi="http://www.w3.org/2001/XMLSchema-instance" xsi:schemaLocation="http://www.topografix.com/GPX/1/1 http://www.topografix.com/GPX/1/1/gpx.xsd" version="1.1" creator="VisuGPX - https://www.visugpx.com">
  <metadata>
    <name>sortie VTT</name>
    <desc><![CDATA[avec Jérome]]></desc>
  </metadata>
  <trk>
    <name><![CDATA[Sequence 1]]></name>
    <trkseg>
      <trkpt lat="49.36552" lon="3.31939">
        <ele>47.1</ele>
        <time>2015-01-18T07:18:21Z</time>
      </trkpt>
      <trkpt lat="49.36552" lon="3.31939">
        <ele>47.1</ele>
        <time>2015-01-18T07:18:26Z</time>
      </trkpt>
      <trkpt lat="49.36552" lon="3.31939">
        <ele>47.1</ele>
        <time>2015-01-18T07:18:31Z</time>
      </trkpt>
      <trkpt lat="49.36552" lon="3.31939">
        <ele>47.1</ele>
        <time>2015-01-18T07:18:40Z</time>
      </trkpt>
      <trkpt lat="49.36552" lon="3.31939">
        <ele>47.1</ele>
        <time>2015-01-18T07:18:41Z</time>
      </trkpt>
      <trkpt lat="49.36552" lon="3.31939">
        <ele>47.1</ele>
        <time>2015-01-18T07:18:46Z</time>
      </trkpt>
      <trkpt lat="49.36552" lon="3.31939">
        <ele>1</ele>
        <time>2015-01-18T07:18:55Z</time>
      </trkpt>
      <trkpt lat="49.36552" lon="3.31939">
        <ele>1</ele>
        <time>2015-01-18T07:18:56Z</time>
      </trkpt>
      <trkpt lat="49.36552" lon="3.31939">
        <ele>2</ele>
        <time>2015-01-18T07:19:03Z</time>
      </trkpt>
      <trkpt lat="49.36552" lon="3.31939">
        <ele>2</ele>
        <time>2015-01-18T07:19:06Z</time>
      </trkpt>
      <trkpt lat="49.36552" lon="3.31939">
        <ele>2</ele>
        <time>2015-01-18T07:19:11Z</time>
      </trkpt>
      <trkpt lat="49.36552" lon="3.31939">
        <ele>2</ele>
        <time>2015-01-18T07:19:16Z</time>
      </trkpt>
      <trkpt lat="49.36552" lon="3.31939">
        <ele>2</ele>
        <time>2015-01-18T07:19:21Z</time>
      </trkpt>
      <trkpt lat="49.36552" lon="3.31938">
        <ele>3</ele>
        <time>2015-01-18T07:19:26Z</time>
      </trkpt>
      <trkpt lat="49.36551" lon="3.31932">
        <ele>12</ele>
        <time>2015-01-18T07:19:31Z</time>
      </trkpt>
      <trkpt lat="49.36551" lon="3.3193">
        <ele>15</ele>
        <time>2015-01-18T07:19:36Z</time>
      </trkpt>
      <trkpt lat="49.36551" lon="3.31929">
        <ele>15</ele>
        <time>2015-01-18T07:19:41Z</time>
      </trkpt>
      <trkpt lat="49.36552" lon="3.31927">
        <ele>16</ele>
        <time>2015-01-18T07:19:46Z</time>
      </trkpt>
      <trkpt lat="49.36552" lon="3.31928">
        <ele>16</ele>
        <time>2015-01-18T07:19:51Z</time>
      </trkpt>
      <trkpt lat="49.36552" lon="3.31928">
        <ele>16</ele>
        <time>2015-01-18T07:19:56Z</time>
      </trkpt>
      <trkpt lat="49.36552" lon="3.31928">
        <ele>16</ele>
        <time>2015-01-18T07:20:01Z</time>
      </trkpt>
      <trkpt lat="49.36552" lon="3.31928">
        <ele>17</ele>
        <time>2015-01-18T07:20:09Z</time>
      </trkpt>
      <trkpt lat="49.36554" lon="3.31931">
        <ele>24</ele>
        <time>2015-01-18T07:20:15Z</time>
      </trkpt>
      <trkpt lat="49.36554" lon="3.31929">
        <ele>25</ele>
        <time>2015-01-18T07:20:16Z</time>
      </trkpt>
      <trkpt lat="49.36542" lon="3.31918">
        <ele>18</ele>
        <time>2015-01-18T07:20:21Z</time>
      </trkpt>
      <trkpt lat="49.36535" lon="3.31915">
        <ele>19</ele>
        <time>2015-01-18T07:20:26Z</time>
      </trkpt>
      <trkpt lat="49.36532" lon="3.31916">
        <ele>19</ele>
        <time>2015-01-18T07:20:31Z</time>
      </trkpt>
      <trkpt lat="49.36521" lon="3.31935">
        <ele>18</ele>
        <time>2015-01-18T07:20:39Z</time>
      </trkpt>
      <trkpt lat="49.36525" lon="3.31954">
        <ele>15</ele>
        <time>2015-01-18T07:20:43Z</time>
      </trkpt>
      <trkpt lat="49.36541" lon="3.31948">
        <ele>12</ele>
        <time>2015-01-18T07:20:49Z</time>
      </trkpt>
      <trkpt lat="49.36547" lon="3.31943">
        <ele>11</ele>
        <time>2015-01-18T07:20:51Z</time>
      </trkpt>
      <trkpt lat="49.36566" lon="3.31929">
        <ele>10</ele>
        <time>2015-01-18T07:20:56Z</time>
      </trkpt>
      <trkpt lat="49.36582" lon="3.3191">
        <ele>9</ele>
        <time>2015-01-18T07:21:01Z</time>
      </trkpt>
      <trkpt lat="49.36599" lon="3.3189">
        <ele>8</ele>
        <time>2015-01-18T07:21:06Z</time>
      </trkpt>
      <trkpt lat="49.36617" lon="3.3187">
        <ele>7</ele>
        <time>2015-01-18T07:21:11Z</time>
      </trkpt>
      <trkpt lat="49.36652" lon="3.31842">
        <ele>7</ele>
        <time>2015-01-18T07:21:20Z</time>
      </trkpt>
      <trkpt lat="49.36657" lon="3.31839">
        <ele>7</ele>
        <time>2015-01-18T07:21:21Z</time>
      </trkpt>
      <trkpt lat="49.36679" lon="3.3183">
        <ele>8</ele>
        <time>2015-01-18T07:21:26Z</time>
      </trkpt>
      <trkpt lat="49.367" lon="3.3182">
        <ele>6</ele>
        <time>2015-01-18T07:21:31Z</time>
      </trkpt>
      <trkpt lat="49.3673" lon="3.31809">
        <ele>8</ele>
        <time>2015-01-18T07:21:38Z</time>
      </trkpt>
      <trkpt lat="49.36742" lon="3.31806">
        <ele>8</ele>
        <time>2015-01-18T07:21:41Z</time>
      </trkpt>
      <trkpt lat="49.36778" lon="3.31789">
        <ele>12</ele>
        <time>2015-01-18T07:21:50Z</time>
      </trkpt>
      <trkpt lat="49.36782" lon="3.31788">
        <ele>12</ele>
        <time>2015-01-18T07:21:51Z</time>
      </trkpt>
      <trkpt lat="49.36799" lon="3.31769">
        <ele>12</ele>
        <time>2015-01-18T07:21:56Z</time>
      </trkpt>
      <trkpt lat="49.36818" lon="3.31756">
        <ele>13</ele>
        <time>2015-01-18T07:22:01Z</time>
      </trkpt>
      <trkpt lat="49.36841" lon="3.31732">
        <ele>13</ele>
        <time>2015-01-18T07:22:08Z</time>
      </trkpt>
      <trkpt lat="49.36842" lon="3.31712">
        <ele>14</ele>
        <time>2015-01-18T07:22:11Z</time>
      </trkpt>
      <trkpt lat="49.36856" lon="3.31685">
        <ele>14</ele>
        <time>2015-01-18T07:22:16Z</time>
      </trkpt>
      <trkpt lat="49.36889" lon="3.31634">
        <ele>17</ele>
        <time>2015-01-18T07:22:25Z</time>
      </trkpt>
      <trkpt lat="49.36896" lon="3.31623">
        <ele>17</ele>
        <time>2015-01-18T07:22:27Z</time>
      </trkpt>
      <trkpt lat="49.3691" lon="3.31595">
        <ele>20</ele>
        <time>2015-01-18T07:22:32Z</time>
      </trkpt>
      <trkpt lat="49.36936" lon="3.31558">
        <ele>24</ele>
        <time>2015-01-18T07:22:40Z</time>
      </trkpt>
      <trkpt lat="49.36938" lon="3.31554">
        <ele>24</ele>
        <time>2015-01-18T07:22:41Z</time>
      </trkpt>
      <trkpt lat="49.36953" lon="3.31531">
        <ele>23</ele>
        <time>2015-01-18T07:22:46Z</time>
      </trkpt>
      <trkpt lat="49.3697" lon="3.31507">
        <ele>21</ele>
        <time>2015-01-18T07:22:51Z</time>
      </trkpt>
      <trkpt lat="49.36988" lon="3.3148">
        <ele>22</ele>
        <time>2015-01-18T07:22:56Z</time>
      </trkpt>
      <trkpt lat="49.37007" lon="3.3145">
        <ele>21</ele>
        <time>2015-01-18T07:23:01Z</time>
      </trkpt>
      <trkpt lat="49.37026" lon="3.31419">
        <ele>20</ele>
        <time>2015-01-18T07:23:06Z</time>
      </trkpt>
      <trkpt lat="49.37049" lon="3.31385">
        <ele>20</ele>
        <time>2015-01-18T07:23:11Z</time>
      </trkpt>
      <trkpt lat="49.37081" lon="3.31336">
        <ele>18</ele>
        <time>2015-01-18T07:23:18Z</time>
      </trkpt>
      <trkpt lat="49.37093" lon="3.31311">
        <ele>17</ele>
        <time>2015-01-18T07:23:21Z</time>
      </trkpt>
      <trkpt lat="49.37133" lon="3.31236">
        <ele>12</ele>
        <time>2015-01-18T07:23:29Z</time>
      </trkpt>
      <trkpt lat="49.37138" lon="3.31226">
        <ele>12</ele>
        <time>2015-01-18T07:23:30Z</time>
      </trkpt>
      <trkpt lat="49.37167" lon="3.31174">
        <ele>12</ele>
        <time>2015-01-18T07:23:35Z</time>
      </trkpt>
      <trkpt lat="49.3719" lon="3.31122">
        <ele>13</ele>
        <time>2015-01-18T07:23:40Z</time>
      </trkpt>
      <trkpt lat="49.37217" lon="3.31072">
        <ele>16</ele>
        <time>2015-01-18T07:23:46Z</time>
      </trkpt>
      <trkpt lat="49.37234" lon="3.3104">
        <ele>16</ele>
        <time>2015-01-18T07:23:50Z</time>
      </trkpt>
      <trkpt lat="49.37255" lon="3.30998">
        <ele>14</ele>
        <time>2015-01-18T07:23:55Z</time>
      </trkpt>
      <trkpt lat="49.37278" lon="3.30956">
        <ele>14</ele>
        <time>2015-01-18T07:24:00Z</time>
      </trkpt>
      <trkpt lat="49.37301" lon="3.30912">
        <ele>14</ele>
        <time>2015-01-18T07:24:05Z</time>
      </trkpt>
      <trkpt lat="49.3733" lon="3.30855">
        <ele>11</ele>
        <time>2015-01-18T07:24:11Z</time>
      </trkpt>
      <trkpt lat="49.37351" lon="3.30821">
        <ele>10</ele>
        <time>2015-01-18T07:24:15Z</time>
      </trkpt>
      <trkpt lat="49.37373" lon="3.30777">
        <ele>10</ele>
        <time>2015-01-18T07:24:20Z</time>
      </trkpt>
      <trkpt lat="49.37411" lon="3.30768">
        <ele>9</ele>
        <time>2015-01-18T07:24:28Z</time>
      </trkpt>
      <trkpt lat="49.37419" lon="3.30782">
        <ele>9</ele>
        <time>2015-01-18T07:24:30Z</time>
      </trkpt>
      <trkpt lat="49.37443" lon="3.30815">
        <ele>13</ele>
        <time>2015-01-18T07:24:35Z</time>
      </trkpt>
      <trkpt lat="49.37477" lon="3.30863">
        <ele>10</ele>
        <time>2015-01-18T07:24:42Z</time>
      </trkpt>
      <trkpt lat="49.37514" lon="3.30907">
        <ele>8</ele>
        <time>2015-01-18T07:24:49Z</time>
      </trkpt>
      <trkpt lat="49.37543" lon="3.30938">
        <ele>7</ele>
        <time>2015-01-18T07:24:54Z</time>
      </trkpt>
      <trkpt lat="49.37548" lon="3.30945">
        <ele>6</ele>
        <time>2015-01-18T07:24:55Z</time>
      </trkpt>
      <trkpt lat="49.37596" lon="3.31003">
        <ele>6</ele>
        <time>2015-01-18T07:25:04Z</time>
      </trkpt>
      <trkpt lat="49.376" lon="3.3101">
        <ele>5</ele>
        <time>2015-01-18T07:25:05Z</time>
      </trkpt>
      <trkpt lat="49.37622" lon="3.31042">
        <ele>5</ele>
        <time>2015-01-18T07:25:10Z</time>
      </trkpt>
      <trkpt lat="49.37646" lon="3.3107">
        <ele>7</ele>
        <time>2015-01-18T07:25:15Z</time>
      </trkpt>
      <trkpt lat="49.37667" lon="3.31096">
        <ele>8</ele>
        <time>2015-01-18T07:25:20Z</time>
      </trkpt>
      <trkpt lat="49.37699" lon="3.31134">
        <ele>7</ele>
        <time>2015-01-18T07:25:29Z</time>
      </trkpt>
      <trkpt lat="49.37699" lon="3.3114">
        <ele>7</ele>
        <time>2015-01-18T07:25:30Z</time>
      </trkpt>
      <trkpt lat="49.37701" lon="3.31166">
        <ele>7</ele>
        <time>2015-01-18T07:25:35Z</time>
      </trkpt>
      <trkpt lat="49.37701" lon="3.31192">
        <ele>8</ele>
        <time>2015-01-18T07:25:40Z</time>
      </trkpt>
      <trkpt lat="49.37702" lon="3.31221">
        <ele>10</ele>
        <time>2015-01-18T07:25:45Z</time>
      </trkpt>
      <trkpt lat="49.37703" lon="3.31256">
        <ele>14</ele>
        <time>2015-01-18T07:25:51Z</time>
      </trkpt>
      <trkpt lat="49.37701" lon="3.31292">
        <ele>17</ele>
        <time>2015-01-18T07:25:57Z</time>
      </trkpt>
      <trkpt lat="49.37699" lon="3.31309">
        <ele>18</ele>
        <time>2015-01-18T07:26:00Z</time>
      </trkpt>
      <trkpt lat="49.37699" lon="3.31337">
        <ele>19</ele>
        <time>2015-01-18T07:26:05Z</time>
      </trkpt>
      <trkpt lat="49.37699" lon="3.31384">
        <ele>22</ele>
        <time>2015-01-18T07:26:14Z</time>
      </trkpt>
      <trkpt lat="49.37701" lon="3.31408">
        <ele>27</ele>
        <time>2015-01-18T07:26:19Z</time>
      </trkpt>
      <trkpt lat="49.37701" lon="3.31428">
        <ele>29</ele>
        <time>2015-01-18T07:26:23Z</time>
      </trkpt>
      <trkpt lat="49.37701" lon="3.31437">
        <ele>30</ele>
        <time>2015-01-18T07:26:25Z</time>
      </trkpt>
      <trkpt lat="49.37702" lon="3.31465">
        <ele>36</ele>
        <time>2015-01-18T07:26:32Z</time>
      </trkpt>
      <trkpt lat="49.37704" lon="3.31471">
        <ele>39</ele>
        <time>2015-01-18T07:26:35Z</time>
      </trkpt>
      <trkpt lat="49.37703" lon="3.31472">
        <ele>40</ele>
        <time>2015-01-18T07:26:40Z</time>
      </trkpt>
      <trkpt lat="49.37704" lon="3.31472">
        <ele>42</ele>
        <time>2015-01-18T07:26:45Z</time>
      </trkpt>
      <trkpt lat="49.37704" lon="3.31472">
        <ele>42</ele>
        <time>2015-01-18T07:26:50Z</time>
      </trkpt>
      <trkpt lat="49.37704" lon="3.31474">
        <ele>44</ele>
        <time>2015-01-18T07:26:55Z</time>
      </trkpt>
      <trkpt lat="49.37704" lon="3.31475">
        <ele>48</ele>
        <time>2015-01-18T07:27:03Z</time>
      </trkpt>
      <trkpt lat="49.37705" lon="3.31475">
        <ele>48</ele>
        <time>2015-01-18T07:27:06Z</time>
      </trkpt>
      <trkpt lat="49.37705" lon="3.31475">
        <ele>48</ele>
        <time>2015-01-18T07:27:10Z</time>
      </trkpt>
      <trkpt lat="49.37705" lon="3.31475">
        <ele>48</ele>
        <time>2015-01-18T07:27:15Z</time>
      </trkpt>
      <trkpt lat="49.37705" lon="3.31475">
        <ele>50</ele>
        <time>2015-01-18T07:27:20Z</time>
      </trkpt>
      <trkpt lat="49.37704" lon="3.31476">
        <ele>51</ele>
        <time>2015-01-18T07:27:25Z</time>
      </trkpt>
      <trkpt lat="49.37703" lon="3.31477">
        <ele>52</ele>
        <time>2015-01-18T07:27:30Z</time>
      </trkpt>
      <trkpt lat="49.37704" lon="3.31478">
        <ele>54</ele>
        <time>2015-01-18T07:27:35Z</time>
      </trkpt>
      <trkpt lat="49.37703" lon="3.31479">
        <ele>56</ele>
        <time>2015-01-18T07:27:40Z</time>
      </trkpt>
      <trkpt lat="49.37702" lon="3.31481">
        <ele>58</ele>
        <time>2015-01-18T07:27:45Z</time>
      </trkpt>
      <trkpt lat="49.37703" lon="3.31481">
        <ele>58</ele>
        <time>2015-01-18T07:27:50Z</time>
      </trkpt>
      <trkpt lat="49.37703" lon="3.31481">
        <ele>58</ele>
        <time>2015-01-18T07:27:56Z</time>
      </trkpt>
      <trkpt lat="49.37703" lon="3.31481">
        <ele>58</ele>
        <time>2015-01-18T07:28:00Z</time>
      </trkpt>
      <trkpt lat="49.37703" lon="3.31481">
        <ele>58</ele>
        <time>2015-01-18T07:28:06Z</time>
      </trkpt>
      <trkpt lat="49.37703" lon="3.31481">
        <ele>58</ele>
        <time>2015-01-18T07:28:11Z</time>
      </trkpt>
      <trkpt lat="49.37704" lon="3.31481">
        <ele>58</ele>
        <time>2015-01-18T07:28:17Z</time>
      </trkpt>
      <trkpt lat="49.37704" lon="3.3148">
        <ele>59</ele>
        <time>2015-01-18T07:28:20Z</time>
      </trkpt>
      <trkpt lat="49.37704" lon="3.31482">
        <ele>61</ele>
        <time>2015-01-18T07:28:25Z</time>
      </trkpt>
      <trkpt lat="49.37704" lon="3.31483">
        <ele>63</ele>
        <time>2015-01-18T07:28:30Z</time>
      </trkpt>
      <trkpt lat="49.37703" lon="3.31482">
        <ele>64</ele>
        <time>2015-01-18T07:28:35Z</time>
      </trkpt>
      <trkpt lat="49.37703" lon="3.31483">
        <ele>64</ele>
        <time>2015-01-18T07:28:40Z</time>
      </trkpt>
      <trkpt lat="49.37704" lon="3.31483">
        <ele>65</ele>
        <time>2015-01-18T07:28:45Z</time>
      </trkpt>
      <trkpt lat="49.37704" lon="3.31483">
        <ele>66</ele>
        <time>2015-01-18T07:28:53Z</time>
      </trkpt>
      <trkpt lat="49.37704" lon="3.31483">
        <ele>66</ele>
        <time>2015-01-18T07:28:55Z</time>
      </trkpt>
      <trkpt lat="49.37704" lon="3.31481">
        <ele>70</ele>
        <time>2015-01-18T07:29:03Z</time>
      </trkpt>
      <trkpt lat="49.37704" lon="3.31482">
        <ele>68</ele>
        <time>2015-01-18T07:29:07Z</time>
      </trkpt>
      <trkpt lat="49.37704" lon="3.31483">
        <ele>69</ele>
        <time>2015-01-18T07:29:10Z</time>
      </trkpt>
      <trkpt lat="49.37705" lon="3.31482">
        <ele>70</ele>
        <time>2015-01-18T07:29:15Z</time>
      </trkpt>
      <trkpt lat="49.37705" lon="3.31482">
        <ele>70</ele>
        <time>2015-01-18T07:29:20Z</time>
      </trkpt>
      <trkpt lat="49.37705" lon="3.31482">
        <ele>70</ele>
        <time>2015-01-18T07:29:26Z</time>
      </trkpt>
      <trkpt lat="49.37705" lon="3.31482">
        <ele>70</ele>
        <time>2015-01-18T07:29:30Z</time>
      </trkpt>
      <trkpt lat="49.37723" lon="3.31483">
        <ele>38</ele>
        <time>2015-01-18T07:29:39Z</time>
      </trkpt>
      <trkpt lat="49.37722" lon="3.31484">
        <ele>41</ele>
        <time>2015-01-18T07:29:40Z</time>
      </trkpt>
      <trkpt lat="49.37721" lon="3.31484">
        <ele>45</ele>
        <time>2015-01-18T07:29:45Z</time>
      </trkpt>
      <trkpt lat="49.37721" lon="3.31483">
        <ele>46</ele>
        <time>2015-01-18T07:29:54Z</time>
      </trkpt>
      <trkpt lat="49.37721" lon="3.31483">
        <ele>46</ele>
        <time>2015-01-18T07:29:55Z</time>
      </trkpt>
      <trkpt lat="49.37721" lon="3.31482">
        <ele>46</ele>
        <time>2015-01-18T07:30:00Z</time>
      </trkpt>
      <trkpt lat="49.3772" lon="3.31484">
        <ele>48</ele>
        <time>2015-01-18T07:30:05Z</time>
      </trkpt>
      <trkpt lat="49.37719" lon="3.31483">
        <ele>49</ele>
        <time>2015-01-18T07:30:10Z</time>
      </trkpt>
      <trkpt lat="49.3772" lon="3.31483">
        <ele>48</ele>
        <time>2015-01-18T07:30:15Z</time>
      </trkpt>
      <trkpt lat="49.3772" lon="3.31484">
        <ele>50</ele>
        <time>2015-01-18T07:30:20Z</time>
      </trkpt>
      <trkpt lat="49.37719" lon="3.31483">
        <ele>49</ele>
        <time>2015-01-18T07:30:29Z</time>
      </trkpt>
      <trkpt lat="49.37719" lon="3.31482">
        <ele>50</ele>
        <time>2015-01-18T07:30:33Z</time>
      </trkpt>
      <trkpt lat="49.37719" lon="3.31481">
        <ele>51</ele>
        <time>2015-01-18T07:30:35Z</time>
      </trkpt>
      <trkpt lat="49.37718" lon="3.31469">
        <ele>52</ele>
        <time>2015-01-18T07:30:41Z</time>
      </trkpt>
      <trkpt lat="49.37718" lon="3.31463">
        <ele>49</ele>
        <time>2015-01-18T07:30:45Z</time>
      </trkpt>
      <trkpt lat="49.37718" lon="3.31471">
        <ele>51</ele>
        <time>2015-01-18T07:30:50Z</time>
      </trkpt>
      <trkpt lat="49.37719" lon="3.31481">
        <ele>52</ele>
        <time>2015-01-18T07:30:55Z</time>
      </trkpt>
      <trkpt lat="49.37717" lon="3.31484">
        <ele>50</ele>
        <time>2015-01-18T07:31:02Z</time>
      </trkpt>
      <trkpt lat="49.37717" lon="3.31484">
        <ele>50</ele>
        <time>2015-01-18T07:31:05Z</time>
      </trkpt>
      <trkpt lat="49.37718" lon="3.31484">
        <ele>50</ele>
        <time>2015-01-18T07:31:10Z</time>
      </trkpt>
      <trkpt lat="49.37718" lon="3.31486">
        <ele>48</ele>
        <time>2015-01-18T07:31:18Z</time>
      </trkpt>
      <trkpt lat="49.37717" lon="3.31487">
        <ele>48</ele>
        <time>2015-01-18T07:31:20Z</time>
      </trkpt>
      <trkpt lat="49.37717" lon="3.31486">
        <ele>50</ele>
        <time>2015-01-18T07:31:25Z</time>
      </trkpt>
      <trkpt lat="49.37717" lon="3.31486">
        <ele>50</ele>
        <time>2015-01-18T07:31:30Z</time>
      </trkpt>
      <trkpt lat="49.37717" lon="3.31485">
        <ele>50</ele>
        <time>2015-01-18T07:31:35Z</time>
      </trkpt>
      <trkpt lat="49.37717" lon="3.31484">
        <ele>51</ele>
        <time>2015-01-18T07:31:40Z</time>
      </trkpt>
      <trkpt lat="49.37718" lon="3.31482">
        <ele>52</ele>
        <time>2015-01-18T07:31:48Z</time>
      </trkpt>
      <trkpt lat="49.37717" lon="3.31482">
        <ele>51</ele>
        <time>2015-01-18T07:31:50Z</time>
      </trkpt>
      <trkpt lat="49.37717" lon="3.31482">
        <ele>52</ele>
        <time>2015-01-18T07:31:55Z</time>
      </trkpt>
      <trkpt lat="49.37717" lon="3.31482">
        <ele>52</ele>
        <time>2015-01-18T07:32:00Z</time>
      </trkpt>
      <trkpt lat="49.37718" lon="3.31481">
        <ele>52</ele>
        <time>2015-01-18T07:32:05Z</time>
      </trkpt>
      <trkpt lat="49.37718" lon="3.31484">
        <ele>54</ele>
        <time>2015-01-18T07:32:10Z</time>
      </trkpt>
      <trkpt lat="49.37718" lon="3.31485">
        <ele>55</ele>
        <time>2015-01-18T07:32:15Z</time>
      </trkpt>
      <trkpt lat="49.37717" lon="3.31484">
        <ele>55</ele>
        <time>2015-01-18T07:32:24Z</time>
      </trkpt>
      <trkpt lat="49.37716" lon="3.31485">
        <ele>55</ele>
        <time>2015-01-18T07:32:26Z</time>
      </trkpt>
      <trkpt lat="49.37717" lon="3.31485">
        <ele>56</ele>
        <time>2015-01-18T07:32:30Z</time>
      </trkpt>
      <trkpt lat="49.37717" lon="3.31486">
        <ele>57</ele>
        <time>2015-01-18T07:32:35Z</time>
      </trkpt>
      <trkpt lat="49.37719" lon="3.31481">
        <ele>57</ele>
        <time>2015-01-18T07:32:40Z</time>
      </trkpt>
      <trkpt lat="49.3772" lon="3.31461">
        <ele>56</ele>
        <time>2015-01-18T07:32:45Z</time>
      </trkpt>
      <trkpt lat="49.37719" lon="3.31453">
        <ele>58</ele>
        <time>2015-01-18T07:32:50Z</time>
      </trkpt>
      <trkpt lat="49.37719" lon="3.31471">
        <ele>58</ele>
        <time>2015-01-18T07:32:55Z</time>
      </trkpt>
      <trkpt lat="49.37717" lon="3.31477">
        <ele>59</ele>
        <time>2015-01-18T07:33:03Z</time>
      </trkpt>
      <trkpt lat="49.37716" lon="3.31478">
        <ele>58</ele>
        <time>2015-01-18T07:33:08Z</time>
      </trkpt>
      <trkpt lat="49.37716" lon="3.31477">
        <ele>58</ele>
        <time>2015-01-18T07:33:10Z</time>
      </trkpt>
      <trkpt lat="49.37716" lon="3.31477">
        <ele>58</ele>
        <time>2015-01-18T07:33:15Z</time>
      </trkpt>
      <trkpt lat="49.37716" lon="3.31477">
        <ele>58</ele>
        <time>2015-01-18T07:33:20Z</time>
      </trkpt>
      <trkpt lat="49.37716" lon="3.31477">
        <ele>58</ele>
        <time>2015-01-18T07:33:25Z</time>
      </trkpt>
      <trkpt lat="49.37716" lon="3.31477">
        <ele>58</ele>
        <time>2015-01-18T07:33:30Z</time>
      </trkpt>
      <trkpt lat="49.37716" lon="3.31477">
        <ele>58</ele>
        <time>2015-01-18T07:33:35Z</time>
      </trkpt>
      <trkpt lat="49.37716" lon="3.31477">
        <ele>58</ele>
        <time>2015-01-18T07:33:40Z</time>
      </trkpt>
      <trkpt lat="49.37716" lon="3.31477">
        <ele>58</ele>
        <time>2015-01-18T07:33:45Z</time>
      </trkpt>
      <trkpt lat="49.37716" lon="3.31477">
        <ele>58</ele>
        <time>2015-01-18T07:33:50Z</time>
      </trkpt>
      <trkpt lat="49.37716" lon="3.31477">
        <ele>58</ele>
        <time>2015-01-18T07:33:55Z</time>
      </trkpt>
      <trkpt lat="49.37716" lon="3.31477">
        <ele>58</ele>
        <time>2015-01-18T07:34:00Z</time>
      </trkpt>
      <trkpt lat="49.37716" lon="3.31477">
        <ele>58</ele>
        <time>2015-01-18T07:34:05Z</time>
      </trkpt>
      <trkpt lat="49.37716" lon="3.31477">
        <ele>58</ele>
        <time>2015-01-18T07:34:10Z</time>
      </trkpt>
      <trkpt lat="49.37716" lon="3.31477">
        <ele>58</ele>
        <time>2015-01-18T07:34:15Z</time>
      </trkpt>
      <trkpt lat="49.37716" lon="3.31477">
        <ele>58</ele>
        <time>2015-01-18T07:34:20Z</time>
      </trkpt>
      <trkpt lat="49.37716" lon="3.31477">
        <ele>58</ele>
        <time>2015-01-18T07:34:25Z</time>
      </trkpt>
      <trkpt lat="49.37716" lon="3.31477">
        <ele>58</ele>
        <time>2015-01-18T07:34:31Z</time>
      </trkpt>
      <trkpt lat="49.37716" lon="3.31477">
        <ele>57</ele>
        <time>2015-01-18T07:34:35Z</time>
      </trkpt>
      <trkpt lat="49.37716" lon="3.31477">
        <ele>57</ele>
        <time>2015-01-18T07:34:40Z</time>
      </trkpt>
      <trkpt lat="49.37716" lon="3.31477">
        <ele>57</ele>
        <time>2015-01-18T07:34:45Z</time>
      </trkpt>
      <trkpt lat="49.37716" lon="3.31477">
        <ele>57</ele>
        <time>2015-01-18T07:34:50Z</time>
      </trkpt>
      <trkpt lat="49.37716" lon="3.31477">
        <ele>57</ele>
        <time>2015-01-18T07:34:55Z</time>
      </trkpt>
      <trkpt lat="49.37716" lon="3.31477">
        <ele>57</ele>
        <time>2015-01-18T07:35:00Z</time>
      </trkpt>
      <trkpt lat="49.37716" lon="3.31477">
        <ele>57</ele>
        <time>2015-01-18T07:35:05Z</time>
      </trkpt>
      <trkpt lat="49.37714" lon="3.31478">
        <ele>57</ele>
        <time>2015-01-18T07:35:10Z</time>
      </trkpt>
      <trkpt lat="49.37714" lon="3.31477">
        <ele>56</ele>
        <time>2015-01-18T07:35:16Z</time>
      </trkpt>
      <trkpt lat="49.37714" lon="3.31477">
        <ele>54</ele>
        <time>2015-01-18T07:35:20Z</time>
      </trkpt>
      <trkpt lat="49.37714" lon="3.31477">
        <ele>54</ele>
        <time>2015-01-18T07:35:25Z</time>
      </trkpt>
      <trkpt lat="49.37714" lon="3.31477">
        <ele>54</ele>
        <time>2015-01-18T07:35:30Z</time>
      </trkpt>
      <trkpt lat="49.37713" lon="3.31477">
        <ele>54</ele>
        <time>2015-01-18T07:35:35Z</time>
      </trkpt>
      <trkpt lat="49.37713" lon="3.31477">
        <ele>54</ele>
        <time>2015-01-18T07:35:40Z</time>
      </trkpt>
      <trkpt lat="49.37713" lon="3.31477">
        <ele>54</ele>
        <time>2015-01-18T07:35:45Z</time>
      </trkpt>
      <trkpt lat="49.37713" lon="3.31477">
        <ele>54</ele>
        <time>2015-01-18T07:35:50Z</time>
      </trkpt>
      <trkpt lat="49.37713" lon="3.31477">
        <ele>54</ele>
        <time>2015-01-18T07:35:55Z</time>
      </trkpt>
      <trkpt lat="49.37713" lon="3.31477">
        <ele>54</ele>
        <time>2015-01-18T07:36:00Z</time>
      </trkpt>
      <trkpt lat="49.37713" lon="3.31477">
        <ele>54</ele>
        <time>2015-01-18T07:36:05Z</time>
      </trkpt>
      <trkpt lat="49.37713" lon="3.31477">
        <ele>54</ele>
        <time>2015-01-18T07:36:10Z</time>
      </trkpt>
      <trkpt lat="49.37713" lon="3.31477">
        <ele>54</ele>
        <time>2015-01-18T07:36:15Z</time>
      </trkpt>
      <trkpt lat="49.37713" lon="3.31477">
        <ele>54</ele>
        <time>2015-01-18T07:36:20Z</time>
      </trkpt>
      <trkpt lat="49.37713" lon="3.31477">
        <ele>54</ele>
        <time>2015-01-18T07:36:25Z</time>
      </trkpt>
      <trkpt lat="49.37713" lon="3.31477">
        <ele>54</ele>
        <time>2015-01-18T07:36:30Z</time>
      </trkpt>
      <trkpt lat="49.37713" lon="3.31477">
        <ele>54</ele>
        <time>2015-01-18T07:36:35Z</time>
      </trkpt>
      <trkpt lat="49.37714" lon="3.31478">
        <ele>54</ele>
        <time>2015-01-18T07:36:40Z</time>
      </trkpt>
      <trkpt lat="49.37714" lon="3.31478">
        <ele>53</ele>
        <time>2015-01-18T07:36:45Z</time>
      </trkpt>
      <trkpt lat="49.37714" lon="3.31478">
        <ele>53</ele>
        <time>2015-01-18T07:36:50Z</time>
      </trkpt>
      <trkpt lat="49.37715" lon="3.31478">
        <ele>54</ele>
        <time>2015-01-18T07:36:55Z</time>
      </trkpt>
      <trkpt lat="49.37715" lon="3.31479">
        <ele>53</ele>
        <time>2015-01-18T07:37:00Z</time>
      </trkpt>
      <trkpt lat="49.37715" lon="3.31479">
        <ele>53</ele>
        <time>2015-01-18T07:37:06Z</time>
      </trkpt>
      <trkpt lat="49.37715" lon="3.31479">
        <ele>53</ele>
        <time>2015-01-18T07:37:10Z</time>
      </trkpt>
      <trkpt lat="49.37715" lon="3.31479">
        <ele>53</ele>
        <time>2015-01-18T07:37:15Z</time>
      </trkpt>
      <trkpt lat="49.37715" lon="3.31479">
        <ele>53</ele>
        <time>2015-01-18T07:37:20Z</time>
      </trkpt>
      <trkpt lat="49.37715" lon="3.31479">
        <ele>53</ele>
        <time>2015-01-18T07:37:25Z</time>
      </trkpt>
      <trkpt lat="49.37715" lon="3.31479">
        <ele>53</ele>
        <time>2015-01-18T07:37:30Z</time>
      </trkpt>
      <trkpt lat="49.37715" lon="3.31479">
        <ele>53</ele>
        <time>2015-01-18T07:37:35Z</time>
      </trkpt>
      <trkpt lat="49.37715" lon="3.31479">
        <ele>53</ele>
        <time>2015-01-18T07:37:40Z</time>
      </trkpt>
      <trkpt lat="49.37715" lon="3.31479">
        <ele>53</ele>
        <time>2015-01-18T07:37:45Z</time>
      </trkpt>
      <trkpt lat="49.37715" lon="3.31479">
        <ele>53</ele>
        <time>2015-01-18T07:37:50Z</time>
      </trkpt>
      <trkpt lat="49.37715" lon="3.31479">
        <ele>53</ele>
        <time>2015-01-18T07:37:55Z</time>
      </trkpt>
      <trkpt lat="49.37715" lon="3.31479">
        <ele>53</ele>
        <time>2015-01-18T07:38:00Z</time>
      </trkpt>
      <trkpt lat="49.37715" lon="3.3148">
        <ele>53</ele>
        <time>2015-01-18T07:38:05Z</time>
      </trkpt>
      <trkpt lat="49.37715" lon="3.3148">
        <ele>55</ele>
        <time>2015-01-18T07:38:10Z</time>
      </trkpt>
      <trkpt lat="49.37717" lon="3.31481">
        <ele>55</ele>
        <time>2015-01-18T07:38:17Z</time>
      </trkpt>
      <trkpt lat="49.37717" lon="3.31481">
        <ele>55</ele>
        <time>2015-01-18T07:38:22Z</time>
      </trkpt>
      <trkpt lat="49.37717" lon="3.31481">
        <ele>55</ele>
        <time>2015-01-18T07:38:25Z</time>
      </trkpt>
      <trkpt lat="49.37717" lon="3.31481">
        <ele>55</ele>
        <time>2015-01-18T07:38:30Z</time>
      </trkpt>
      <trkpt lat="49.37717" lon="3.31481">
        <ele>55</ele>
        <time>2015-01-18T07:38:35Z</time>
      </trkpt>
      <trkpt lat="49.37717" lon="3.31481">
        <ele>56</ele>
        <time>2015-01-18T07:38:40Z</time>
      </trkpt>
      <trkpt lat="49.37717" lon="3.31481">
        <ele>56</ele>
        <time>2015-01-18T07:38:45Z</time>
      </trkpt>
      <trkpt lat="49.37717" lon="3.31481">
        <ele>56</ele>
        <time>2015-01-18T07:38:50Z</time>
      </trkpt>
      <trkpt lat="49.37717" lon="3.31481">
        <ele>56</ele>
        <time>2015-01-18T07:38:56Z</time>
      </trkpt>
      <trkpt lat="49.37717" lon="3.31481">
        <ele>56</ele>
        <time>2015-01-18T07:39:01Z</time>
      </trkpt>
      <trkpt lat="49.37717" lon="3.31481">
        <ele>56</ele>
        <time>2015-01-18T07:39:05Z</time>
      </trkpt>
      <trkpt lat="49.37717" lon="3.31483">
        <ele>57</ele>
        <time>2015-01-18T07:39:10Z</time>
      </trkpt>
      <trkpt lat="49.37717" lon="3.31483">
        <ele>57</ele>
        <time>2015-01-18T07:39:15Z</time>
      </trkpt>
      <trkpt lat="49.37718" lon="3.31484">
        <ele>57</ele>
        <time>2015-01-18T07:39:20Z</time>
      </trkpt>
      <trkpt lat="49.37717" lon="3.31484">
        <ele>59</ele>
        <time>2015-01-18T07:39:28Z</time>
      </trkpt>
      <trkpt lat="49.37717" lon="3.31482">
        <ele>60</ele>
        <time>2015-01-18T07:39:30Z</time>
      </trkpt>
      <trkpt lat="49.37717" lon="3.31479">
        <ele>60</ele>
        <time>2015-01-18T07:39:35Z</time>
      </trkpt>
      <trkpt lat="49.37717" lon="3.31481">
        <ele>61</ele>
        <time>2015-01-18T07:39:40Z</time>
      </trkpt>
      <trkpt lat="49.37716" lon="3.31481">
        <ele>62</ele>
        <time>2015-01-18T07:39:45Z</time>
      </trkpt>
      <trkpt lat="49.37716" lon="3.31481">
        <ele>61</ele>
        <time>2015-01-18T07:39:50Z</time>
      </trkpt>
      <trkpt lat="49.37716" lon="3.3148">
        <ele>62</ele>
        <time>2015-01-18T07:39:55Z</time>
      </trkpt>
      <trkpt lat="49.37716" lon="3.3148">
        <ele>62</ele>
        <time>2015-01-18T07:40:01Z</time>
      </trkpt>
      <trkpt lat="49.37716" lon="3.3148">
        <ele>62</ele>
        <time>2015-01-18T07:40:05Z</time>
      </trkpt>
      <trkpt lat="49.37716" lon="3.3148">
        <ele>62</ele>
        <time>2015-01-18T07:40:10Z</time>
      </trkpt>
      <trkpt lat="49.37716" lon="3.3148">
        <ele>62</ele>
        <time>2015-01-18T07:40:15Z</time>
      </trkpt>
      <trkpt lat="49.37716" lon="3.3148">
        <ele>62</ele>
        <time>2015-01-18T07:40:20Z</time>
      </trkpt>
      <trkpt lat="49.37716" lon="3.3148">
        <ele>62</ele>
        <time>2015-01-18T07:40:25Z</time>
      </trkpt>
      <trkpt lat="49.37716" lon="3.3148">
        <ele>62</ele>
        <time>2015-01-18T07:40:30Z</time>
      </trkpt>
      <trkpt lat="49.37716" lon="3.3148">
        <ele>62</ele>
        <time>2015-01-18T07:40:35Z</time>
      </trkpt>
      <trkpt lat="49.37716" lon="3.3148">
        <ele>62</ele>
        <time>2015-01-18T07:40:40Z</time>
      </trkpt>
      <trkpt lat="49.37716" lon="3.3148">
        <ele>62</ele>
        <time>2015-01-18T07:40:45Z</time>
      </trkpt>
      <trkpt lat="49.37716" lon="3.31478">
        <ele>61</ele>
        <time>2015-01-18T07:40:50Z</time>
      </trkpt>
      <trkpt lat="49.37716" lon="3.31478">
        <ele>59</ele>
        <time>2015-01-18T07:40:55Z</time>
      </trkpt>
      <trkpt lat="49.37716" lon="3.31478">
        <ele>60</ele>
        <time>2015-01-18T07:41:00Z</time>
      </trkpt>
      <trkpt lat="49.37717" lon="3.31478">
        <ele>60</ele>
        <time>2015-01-18T07:41:08Z</time>
      </trkpt>
      <trkpt lat="49.37716" lon="3.3147">
        <ele>57</ele>
        <time>2015-01-18T07:41:12Z</time>
      </trkpt>
      <trkpt lat="49.37718" lon="3.31459">
        <ele>58</ele>
        <time>2015-01-18T07:41:15Z</time>
      </trkpt>
      <trkpt lat="49.37723" lon="3.31418">
        <ele>54</ele>
        <time>2015-01-18T07:41:22Z</time>
      </trkpt>
      <trkpt lat="49.37724" lon="3.31398">
        <ele>51</ele>
        <time>2015-01-18T07:41:25Z</time>
      </trkpt>
      <trkpt lat="49.37727" lon="3.31361">
        <ele>50</ele>
        <time>2015-01-18T07:41:30Z</time>
      </trkpt>
      <trkpt lat="49.37731" lon="3.313">
        <ele>51</ele>
        <time>2015-01-18T07:41:38Z</time>
      </trkpt>
      <trkpt lat="49.37733" lon="3.31283">
        <ele>48</ele>
        <time>2015-01-18T07:41:40Z</time>
      </trkpt>
      <trkpt lat="49.37733" lon="3.31243">
        <ele>48</ele>
        <time>2015-01-18T07:41:45Z</time>
      </trkpt>
      <trkpt lat="49.37736" lon="3.31182">
        <ele>47</ele>
        <time>2015-01-18T07:41:53Z</time>
      </trkpt>
      <trkpt lat="49.37754" lon="3.31176">
        <ele>46</ele>
        <time>2015-01-18T07:41:58Z</time>
      </trkpt>
      <trkpt lat="49.37759" lon="3.31173">
        <ele>45</ele>
        <time>2015-01-18T07:42:00Z</time>
      </trkpt>
      <trkpt lat="49.37763" lon="3.31155">
        <ele>47</ele>
        <time>2015-01-18T07:42:05Z</time>
      </trkpt>
      <trkpt lat="49.37758" lon="3.3114">
        <ele>48</ele>
        <time>2015-01-18T07:42:10Z</time>
      </trkpt>
      <trkpt lat="49.37751" lon="3.31116">
        <ele>49</ele>
        <time>2015-01-18T07:42:15Z</time>
      </trkpt>
      <trkpt lat="49.37739" lon="3.31105">
        <ele>48</ele>
        <time>2015-01-18T07:42:20Z</time>
      </trkpt>
      <trkpt lat="49.37728" lon="3.31118">
        <ele>50</ele>
        <time>2015-01-18T07:42:25Z</time>
      </trkpt>
      <trkpt lat="49.37713" lon="3.31142">
        <ele>50</ele>
        <time>2015-01-18T07:42:30Z</time>
      </trkpt>
      <trkpt lat="49.37698" lon="3.31184">
        <ele>48</ele>
        <time>2015-01-18T07:42:36Z</time>
      </trkpt>
      <trkpt lat="49.37684" lon="3.31206">
        <ele>47</ele>
        <time>2015-01-18T07:42:40Z</time>
      </trkpt>
      <trkpt lat="49.37673" lon="3.31228">
        <ele>47</ele>
        <time>2015-01-18T07:42:45Z</time>
      </trkpt>
      <trkpt lat="49.37661" lon="3.31248">
        <ele>47</ele>
        <time>2015-01-18T07:42:50Z</time>
      </trkpt>
      <trkpt lat="49.37648" lon="3.31267">
        <ele>47</ele>
        <time>2015-01-18T07:42:55Z</time>
      </trkpt>
      <trkpt lat="49.37634" lon="3.3129">
        <ele>45</ele>
        <time>2015-01-18T07:43:00Z</time>
      </trkpt>
      <trkpt lat="49.3762" lon="3.31313">
        <ele>44</ele>
        <time>2015-01-18T07:43:05Z</time>
      </trkpt>
      <trkpt lat="49.37606" lon="3.31338">
        <ele>42</ele>
        <time>2015-01-18T07:43:10Z</time>
      </trkpt>
      <trkpt lat="49.3759" lon="3.31357">
        <ele>46</ele>
        <time>2015-01-18T07:43:15Z</time>
      </trkpt>
      <trkpt lat="49.3757" lon="3.31388">
        <ele>45</ele>
        <time>2015-01-18T07:43:21Z</time>
      </trkpt>
      <trkpt lat="49.37555" lon="3.31405">
        <ele>44</ele>
        <time>2015-01-18T07:43:25Z</time>
      </trkpt>
      <trkpt lat="49.37538" lon="3.31425">
        <ele>46</ele>
        <time>2015-01-18T07:43:30Z</time>
      </trkpt>
      <trkpt lat="49.37521" lon="3.3145">
        <ele>46</ele>
        <time>2015-01-18T07:43:35Z</time>
      </trkpt>
      <trkpt lat="49.37502" lon="3.31472">
        <ele>44</ele>
        <time>2015-01-18T07:43:40Z</time>
      </trkpt>
      <trkpt lat="49.37484" lon="3.31491">
        <ele>45</ele>
        <time>2015-01-18T07:43:45Z</time>
      </trkpt>
      <trkpt lat="49.37466" lon="3.3151">
        <ele>45</ele>
        <time>2015-01-18T07:43:50Z</time>
      </trkpt>
      <trkpt lat="49.37449" lon="3.31529">
        <ele>44</ele>
        <time>2015-01-18T07:43:55Z</time>
      </trkpt>
      <trkpt lat="49.37434" lon="3.31548">
        <ele>48</ele>
        <time>2015-01-18T07:44:00Z</time>
      </trkpt>
      <trkpt lat="49.37413" lon="3.31564">
        <ele>46</ele>
        <time>2015-01-18T07:44:06Z</time>
      </trkpt>
      <trkpt lat="49.37403" lon="3.31575">
        <ele>48</ele>
        <time>2015-01-18T07:44:10Z</time>
      </trkpt>
      <trkpt lat="49.37385" lon="3.31597">
        <ele>46</ele>
        <time>2015-01-18T07:44:17Z</time>
      </trkpt>
      <trkpt lat="49.37374" lon="3.31611">
        <ele>45</ele>
        <time>2015-01-18T07:44:20Z</time>
      </trkpt>
      <trkpt lat="49.37357" lon="3.31631">
        <ele>47</ele>
        <time>2015-01-18T07:44:25Z</time>
      </trkpt>
      <trkpt lat="49.37339" lon="3.31649">
        <ele>47</ele>
        <time>2015-01-18T07:44:30Z</time>
      </trkpt>
      <trkpt lat="49.37322" lon="3.31668">
        <ele>47</ele>
        <time>2015-01-18T07:44:35Z</time>
      </trkpt>
      <trkpt lat="49.37305" lon="3.31687">
        <ele>46</ele>
        <time>2015-01-18T07:44:40Z</time>
      </trkpt>
      <trkpt lat="49.37289" lon="3.31707">
        <ele>46</ele>
        <time>2015-01-18T07:44:45Z</time>
      </trkpt>
      <trkpt lat="49.37273" lon="3.3173">
        <ele>45</ele>
        <time>2015-01-18T07:44:50Z</time>
      </trkpt>
      <trkpt lat="49.37254" lon="3.31749">
        <ele>46</ele>
        <time>2015-01-18T07:44:55Z</time>
      </trkpt>
      <trkpt lat="49.37237" lon="3.31765">
        <ele>46</ele>
        <time>2015-01-18T07:45:00Z</time>
      </trkpt>
      <trkpt lat="49.37215" lon="3.31784">
        <ele>43</ele>
        <time>2015-01-18T07:45:05Z</time>
      </trkpt>
      <trkpt lat="49.372" lon="3.31803">
        <ele>43</ele>
        <time>2015-01-18T07:45:10Z</time>
      </trkpt>
      <trkpt lat="49.37181" lon="3.31825">
        <ele>45</ele>
        <time>2015-01-18T07:45:15Z</time>
      </trkpt>
      <trkpt lat="49.37163" lon="3.31845">
        <ele>46</ele>
        <time>2015-01-18T07:45:20Z</time>
      </trkpt>
      <trkpt lat="49.37144" lon="3.31865">
        <ele>46</ele>
        <time>2015-01-18T07:45:25Z</time>
      </trkpt>
      <trkpt lat="49.37122" lon="3.31883">
        <ele>45</ele>
        <time>2015-01-18T07:45:30Z</time>
      </trkpt>
      <trkpt lat="49.37097" lon="3.31897">
        <ele>47</ele>
        <time>2015-01-18T07:45:35Z</time>
      </trkpt>
      <trkpt lat="49.37072" lon="3.31908">
        <ele>45</ele>
        <time>2015-01-18T07:45:40Z</time>
      </trkpt>
      <trkpt lat="49.3705" lon="3.31919">
        <ele>47</ele>
        <time>2015-01-18T07:45:45Z</time>
      </trkpt>
      <trkpt lat="49.3703" lon="3.31932">
        <ele>45</ele>
        <time>2015-01-18T07:45:50Z</time>
      </trkpt>
      <trkpt lat="49.37008" lon="3.31947">
        <ele>44</ele>
        <time>2015-01-18T07:45:55Z</time>
      </trkpt>
      <trkpt lat="49.36978" lon="3.31962">
        <ele>46</ele>
        <time>2015-01-18T07:46:02Z</time>
      </trkpt>
      <trkpt lat="49.36957" lon="3.31974">
        <ele>46</ele>
        <time>2015-01-18T07:46:07Z</time>
      </trkpt>
      <trkpt lat="49.36944" lon="3.31982">
        <ele>46</ele>
        <time>2015-01-18T07:46:10Z</time>
      </trkpt>
      <trkpt lat="49.3692" lon="3.31994">
        <ele>42</ele>
        <time>2015-01-18T07:46:15Z</time>
      </trkpt>
      <trkpt lat="49.36897" lon="3.32007">
        <ele>41</ele>
        <time>2015-01-18T07:46:20Z</time>
      </trkpt>
      <trkpt lat="49.36876" lon="3.32021">
        <ele>43</ele>
        <time>2015-01-18T07:46:25Z</time>
      </trkpt>
      <trkpt lat="49.36855" lon="3.32035">
        <ele>46</ele>
        <time>2015-01-18T07:46:30Z</time>
      </trkpt>
      <trkpt lat="49.36833" lon="3.32046">
        <ele>43</ele>
        <time>2015-01-18T07:46:35Z</time>
      </trkpt>
      <trkpt lat="49.36812" lon="3.32061">
        <ele>43</ele>
        <time>2015-01-18T07:46:40Z</time>
      </trkpt>
      <trkpt lat="49.36791" lon="3.32074">
        <ele>43</ele>
        <time>2015-01-18T07:46:45Z</time>
      </trkpt>
      <trkpt lat="49.36771" lon="3.32084">
        <ele>41</ele>
        <time>2015-01-18T07:46:50Z</time>
      </trkpt>
      <trkpt lat="49.36751" lon="3.32097">
        <ele>42</ele>
        <time>2015-01-18T07:46:55Z</time>
      </trkpt>
      <trkpt lat="49.36731" lon="3.32109">
        <ele>44</ele>
        <time>2015-01-18T07:47:00Z</time>
      </trkpt>
      <trkpt lat="49.36712" lon="3.32119">
        <ele>45</ele>
        <time>2015-01-18T07:47:05Z</time>
      </trkpt>
      <trkpt lat="49.36697" lon="3.32126">
        <ele>46</ele>
        <time>2015-01-18T07:47:10Z</time>
      </trkpt>
      <trkpt lat="49.36686" lon="3.32132">
        <ele>45</ele>
        <time>2015-01-18T07:47:15Z</time>
      </trkpt>
      <trkpt lat="49.36669" lon="3.32142">
        <ele>45</ele>
        <time>2015-01-18T07:47:20Z</time>
      </trkpt>
      <trkpt lat="49.36646" lon="3.32153">
        <ele>45</ele>
        <time>2015-01-18T07:47:25Z</time>
      </trkpt>
      <trkpt lat="49.36626" lon="3.32168">
        <ele>45</ele>
        <time>2015-01-18T07:47:30Z</time>
      </trkpt>
      <trkpt lat="49.36606" lon="3.32183">
        <ele>45</ele>
        <time>2015-01-18T07:47:35Z</time>
      </trkpt>
      <trkpt lat="49.36579" lon="3.32205">
        <ele>41</ele>
        <time>2015-01-18T07:47:42Z</time>
      </trkpt>
      <trkpt lat="49.36568" lon="3.32214">
        <ele>40</ele>
        <time>2015-01-18T07:47:45Z</time>
      </trkpt>
      <trkpt lat="49.36555" lon="3.32231">
        <ele>43</ele>
        <time>2015-01-18T07:47:50Z</time>
      </trkpt>
      <trkpt lat="49.36539" lon="3.32248">
        <ele>43</ele>
        <time>2015-01-18T07:47:55Z</time>
      </trkpt>
      <trkpt lat="49.36522" lon="3.32267">
        <ele>43</ele>
        <time>2015-01-18T07:48:00Z</time>
      </trkpt>
      <trkpt lat="49.36506" lon="3.3229">
        <ele>43</ele>
        <time>2015-01-18T07:48:05Z</time>
      </trkpt>
      <trkpt lat="49.36492" lon="3.32316">
        <ele>45</ele>
        <time>2015-01-18T07:48:10Z</time>
      </trkpt>
      <trkpt lat="49.3648" lon="3.32345">
        <ele>46</ele>
        <time>2015-01-18T07:48:15Z</time>
      </trkpt>
      <trkpt lat="49.36472" lon="3.32367">
        <ele>48</ele>
        <time>2015-01-18T07:48:20Z</time>
      </trkpt>
      <trkpt lat="49.36466" lon="3.32385">
        <ele>50</ele>
        <time>2015-01-18T07:48:25Z</time>
      </trkpt>
      <trkpt lat="49.36456" lon="3.3241">
        <ele>50</ele>
        <time>2015-01-18T07:48:30Z</time>
      </trkpt>
      <trkpt lat="49.36445" lon="3.32442">
        <ele>49</ele>
        <time>2015-01-18T07:48:35Z</time>
      </trkpt>
      <trkpt lat="49.36435" lon="3.3247">
        <ele>48</ele>
        <time>2015-01-18T07:48:40Z</time>
      </trkpt>
      <trkpt lat="49.36427" lon="3.32497">
        <ele>47</ele>
        <time>2015-01-18T07:48:45Z</time>
      </trkpt>
      <trkpt lat="49.36422" lon="3.32525">
        <ele>47</ele>
        <time>2015-01-18T07:48:50Z</time>
      </trkpt>
      <trkpt lat="49.36416" lon="3.32553">
        <ele>45</ele>
        <time>2015-01-18T07:48:55Z</time>
      </trkpt>
      <trkpt lat="49.3641" lon="3.32601">
        <ele>48</ele>
        <time>2015-01-18T07:49:03Z</time>
      </trkpt>
      <trkpt lat="49.36408" lon="3.32638">
        <ele>47</ele>
        <time>2015-01-18T07:49:09Z</time>
      </trkpt>
      <trkpt lat="49.36407" lon="3.32643">
        <ele>48</ele>
        <time>2015-01-18T07:49:10Z</time>
      </trkpt>
      <trkpt lat="49.36406" lon="3.32666">
        <ele>46</ele>
        <time>2015-01-18T07:49:15Z</time>
      </trkpt>
      <trkpt lat="49.36408" lon="3.32686">
        <ele>46</ele>
        <time>2015-01-18T07:49:20Z</time>
      </trkpt>
      <trkpt lat="49.3641" lon="3.327">
        <ele>46</ele>
        <time>2015-01-18T07:49:25Z</time>
      </trkpt>
      <trkpt lat="49.36411" lon="3.32705">
        <ele>47</ele>
        <time>2015-01-18T07:49:30Z</time>
      </trkpt>
      <trkpt lat="49.36411" lon="3.32708">
        <ele>46</ele>
        <time>2015-01-18T07:49:35Z</time>
      </trkpt>
      <trkpt lat="49.36413" lon="3.3273">
        <ele>48</ele>
        <time>2015-01-18T07:49:43Z</time>
      </trkpt>
      <trkpt lat="49.36414" lon="3.32739">
        <ele>50</ele>
        <time>2015-01-18T07:49:45Z</time>
      </trkpt>
      <trkpt lat="49.36417" lon="3.32769">
        <ele>51</ele>
        <time>2015-01-18T07:49:50Z</time>
      </trkpt>
      <trkpt lat="49.36418" lon="3.32795">
        <ele>49</ele>
        <time>2015-01-18T07:49:55Z</time>
      </trkpt>
      <trkpt lat="49.36424" lon="3.32821">
        <ele>50</ele>
        <time>2015-01-18T07:50:00Z</time>
      </trkpt>
      <trkpt lat="49.3643" lon="3.32849">
        <ele>49</ele>
        <time>2015-01-18T07:50:05Z</time>
      </trkpt>
      <trkpt lat="49.36437" lon="3.32873">
        <ele>50</ele>
        <time>2015-01-18T07:50:10Z</time>
      </trkpt>
      <trkpt lat="49.36442" lon="3.32892">
        <ele>52</ele>
        <time>2015-01-18T07:50:15Z</time>
      </trkpt>
      <trkpt lat="49.36433" lon="3.32911">
        <ele>52</ele>
        <time>2015-01-18T07:50:20Z</time>
      </trkpt>
      <trkpt lat="49.36416" lon="3.32927">
        <ele>50</ele>
        <time>2015-01-18T07:50:25Z</time>
      </trkpt>
      <trkpt lat="49.36399" lon="3.32943">
        <ele>48</ele>
        <time>2015-01-18T07:50:30Z</time>
      </trkpt>
      <trkpt lat="49.36381" lon="3.32959">
        <ele>49</ele>
        <time>2015-01-18T07:50:35Z</time>
      </trkpt>
      <trkpt lat="49.36359" lon="3.32979">
        <ele>48</ele>
        <time>2015-01-18T07:50:40Z</time>
      </trkpt>
      <trkpt lat="49.36342" lon="3.32993">
        <ele>51</ele>
        <time>2015-01-18T07:50:45Z</time>
      </trkpt>
      <trkpt lat="49.36325" lon="3.33005">
        <ele>52</ele>
        <time>2015-01-18T07:50:50Z</time>
      </trkpt>
      <trkpt lat="49.36307" lon="3.33014">
        <ele>52</ele>
        <time>2015-01-18T07:50:55Z</time>
      </trkpt>
      <trkpt lat="49.36297" lon="3.33001">
        <ele>54</ele>
        <time>2015-01-18T07:51:00Z</time>
      </trkpt>
      <trkpt lat="49.36283" lon="3.32987">
        <ele>54</ele>
        <time>2015-01-18T07:51:05Z</time>
      </trkpt>
      <trkpt lat="49.36268" lon="3.32974">
        <ele>54</ele>
        <time>2015-01-18T07:51:10Z</time>
      </trkpt>
      <trkpt lat="49.36256" lon="3.32964">
        <ele>54</ele>
        <time>2015-01-18T07:51:15Z</time>
      </trkpt>
      <trkpt lat="49.36252" lon="3.32961">
        <ele>54</ele>
        <time>2015-01-18T07:51:20Z</time>
      </trkpt>
      <trkpt lat="49.36234" lon="3.32952">
        <ele>54</ele>
        <time>2015-01-18T07:51:28Z</time>
      </trkpt>
      <trkpt lat="49.36225" lon="3.32948">
        <ele>52</ele>
        <time>2015-01-18T07:51:31Z</time>
      </trkpt>
      <trkpt lat="49.36213" lon="3.32949">
        <ele>53</ele>
        <time>2015-01-18T07:51:35Z</time>
      </trkpt>
      <trkpt lat="49.36185" lon="3.32944">
        <ele>52</ele>
        <time>2015-01-18T07:51:44Z</time>
      </trkpt>
      <trkpt lat="49.36182" lon="3.32943">
        <ele>53</ele>
        <time>2015-01-18T07:51:45Z</time>
      </trkpt>
      <trkpt lat="49.36166" lon="3.32932">
        <ele>53</ele>
        <time>2015-01-18T07:51:50Z</time>
      </trkpt>
      <trkpt lat="49.36143" lon="3.32917">
        <ele>54</ele>
        <time>2015-01-18T07:51:57Z</time>
      </trkpt>
      <trkpt lat="49.36128" lon="3.32916">
        <ele>49</ele>
        <time>2015-01-18T07:52:00Z</time>
      </trkpt>
      <trkpt lat="49.36115" lon="3.32914">
        <ele>52</ele>
        <time>2015-01-18T07:52:05Z</time>
      </trkpt>
      <trkpt lat="49.36085" lon="3.32907">
        <ele>54</ele>
        <time>2015-01-18T07:52:14Z</time>
      </trkpt>
      <trkpt lat="49.36082" lon="3.32905">
        <ele>54</ele>
        <time>2015-01-18T07:52:15Z</time>
      </trkpt>
      <trkpt lat="49.36071" lon="3.32918">
        <ele>54</ele>
        <time>2015-01-18T07:52:20Z</time>
      </trkpt>
      <trkpt lat="49.36064" lon="3.32938">
        <ele>53</ele>
        <time>2015-01-18T07:52:25Z</time>
      </trkpt>
      <trkpt lat="49.36054" lon="3.3296">
        <ele>54</ele>
        <time>2015-01-18T07:52:30Z</time>
      </trkpt>
      <trkpt lat="49.36041" lon="3.32978">
        <ele>54</ele>
        <time>2015-01-18T07:52:35Z</time>
      </trkpt>
      <trkpt lat="49.36025" lon="3.32983">
        <ele>54</ele>
        <time>2015-01-18T07:52:40Z</time>
      </trkpt>
      <trkpt lat="49.3602" lon="3.33003">
        <ele>55</ele>
        <time>2015-01-18T07:52:45Z</time>
      </trkpt>
      <trkpt lat="49.36024" lon="3.3303">
        <ele>57</ele>
        <time>2015-01-18T07:52:50Z</time>
      </trkpt>
      <trkpt lat="49.36026" lon="3.33054">
        <ele>58</ele>
        <time>2015-01-18T07:52:55Z</time>
      </trkpt>
      <trkpt lat="49.36027" lon="3.33078">
        <ele>58</ele>
        <time>2015-01-18T07:53:00Z</time>
      </trkpt>
      <trkpt lat="49.36031" lon="3.33099">
        <ele>56</ele>
        <time>2015-01-18T07:53:05Z</time>
      </trkpt>
      <trkpt lat="49.36036" lon="3.33122">
        <ele>57</ele>
        <time>2015-01-18T07:53:10Z</time>
      </trkpt>
      <trkpt lat="49.36041" lon="3.33146">
        <ele>59</ele>
        <time>2015-01-18T07:53:15Z</time>
      </trkpt>
      <trkpt lat="49.36046" lon="3.3317">
        <ele>60</ele>
        <time>2015-01-18T07:53:20Z</time>
      </trkpt>
      <trkpt lat="49.3605" lon="3.33192">
        <ele>59</ele>
        <time>2015-01-18T07:53:25Z</time>
      </trkpt>
      <trkpt lat="49.36053" lon="3.33209">
        <ele>60</ele>
        <time>2015-01-18T07:53:30Z</time>
      </trkpt>
      <trkpt lat="49.36048" lon="3.33225">
        <ele>60</ele>
        <time>2015-01-18T07:53:35Z</time>
      </trkpt>
      <trkpt lat="49.36037" lon="3.33241">
        <ele>60</ele>
        <time>2015-01-18T07:53:40Z</time>
      </trkpt>
      <trkpt lat="49.36027" lon="3.33258">
        <ele>60</ele>
        <time>2015-01-18T07:53:45Z</time>
      </trkpt>
      <trkpt lat="49.36017" lon="3.33273">
        <ele>61</ele>
        <time>2015-01-18T07:53:50Z</time>
      </trkpt>
      <trkpt lat="49.36008" lon="3.33289">
        <ele>62</ele>
        <time>2015-01-18T07:53:55Z</time>
      </trkpt>
      <trkpt lat="49.35999" lon="3.33306">
        <ele>63</ele>
        <time>2015-01-18T07:54:00Z</time>
      </trkpt>
      <trkpt lat="49.35989" lon="3.33325">
        <ele>63</ele>
        <time>2015-01-18T07:54:06Z</time>
      </trkpt>
      <trkpt lat="49.3598" lon="3.33341">
        <ele>63</ele>
        <time>2015-01-18T07:54:10Z</time>
      </trkpt>
      <trkpt lat="49.35968" lon="3.33358">
        <ele>64</ele>
        <time>2015-01-18T07:54:15Z</time>
      </trkpt>
      <trkpt lat="49.35955" lon="3.33376">
        <ele>65</ele>
        <time>2015-01-18T07:54:20Z</time>
      </trkpt>
      <trkpt lat="49.35942" lon="3.33391">
        <ele>64</ele>
        <time>2015-01-18T07:54:25Z</time>
      </trkpt>
      <trkpt lat="49.3593" lon="3.33406">
        <ele>66</ele>
        <time>2015-01-18T07:54:30Z</time>
      </trkpt>
      <trkpt lat="49.35921" lon="3.33423">
        <ele>68</ele>
        <time>2015-01-18T07:54:35Z</time>
      </trkpt>
      <trkpt lat="49.35913" lon="3.33446">
        <ele>68</ele>
        <time>2015-01-18T07:54:40Z</time>
      </trkpt>
      <trkpt lat="49.35898" lon="3.33456">
        <ele>68</ele>
        <time>2015-01-18T07:54:45Z</time>
      </trkpt>
      <trkpt lat="49.35887" lon="3.33471">
        <ele>69</ele>
        <time>2015-01-18T07:54:50Z</time>
      </trkpt>
      <trkpt lat="49.35875" lon="3.33486">
        <ele>70</ele>
        <time>2015-01-18T07:54:55Z</time>
      </trkpt>
      <trkpt lat="49.35865" lon="3.335">
        <ele>69</ele>
        <time>2015-01-18T07:55:00Z</time>
      </trkpt>
      <trkpt lat="49.35857" lon="3.3349">
        <ele>71</ele>
        <time>2015-01-18T07:55:05Z</time>
      </trkpt>
      <trkpt lat="49.35848" lon="3.33477">
        <ele>72</ele>
        <time>2015-01-18T07:55:10Z</time>
      </trkpt>
      <trkpt lat="49.35839" lon="3.33465">
        <ele>75</ele>
        <time>2015-01-18T07:55:15Z</time>
      </trkpt>
      <trkpt lat="49.35823" lon="3.33444">
        <ele>73</ele>
        <time>2015-01-18T07:55:22Z</time>
      </trkpt>
      <trkpt lat="49.35816" lon="3.33435">
        <ele>73</ele>
        <time>2015-01-18T07:55:25Z</time>
      </trkpt>
      <trkpt lat="49.35805" lon="3.33416">
        <ele>72</ele>
        <time>2015-01-18T07:55:30Z</time>
      </trkpt>
      <trkpt lat="49.35794" lon="3.33394">
        <ele>73</ele>
        <time>2015-01-18T07:55:35Z</time>
      </trkpt>
      <trkpt lat="49.3578" lon="3.3337">
        <ele>74</ele>
        <time>2015-01-18T07:55:40Z</time>
      </trkpt>
      <trkpt lat="49.35764" lon="3.3335">
        <ele>75</ele>
        <time>2015-01-18T07:55:45Z</time>
      </trkpt>
      <trkpt lat="49.35748" lon="3.33331">
        <ele>75</ele>
        <time>2015-01-18T07:55:50Z</time>
      </trkpt>
      <trkpt lat="49.35737" lon="3.33301">
        <ele>76</ele>
        <time>2015-01-18T07:55:56Z</time>
      </trkpt>
      <trkpt lat="49.3573" lon="3.3328">
        <ele>76</ele>
        <time>2015-01-18T07:56:00Z</time>
      </trkpt>
      <trkpt lat="49.3572" lon="3.33253">
        <ele>76</ele>
        <time>2015-01-18T07:56:05Z</time>
      </trkpt>
      <trkpt lat="49.35708" lon="3.33226">
        <ele>76</ele>
        <time>2015-01-18T07:56:10Z</time>
      </trkpt>
      <trkpt lat="49.35695" lon="3.33194">
        <ele>75</ele>
        <time>2015-01-18T07:56:15Z</time>
      </trkpt>
      <trkpt lat="49.35684" lon="3.33163">
        <ele>73</ele>
        <time>2015-01-18T07:56:20Z</time>
      </trkpt>
      <trkpt lat="49.35676" lon="3.3314">
        <ele>74</ele>
        <time>2015-01-18T07:56:25Z</time>
      </trkpt>
      <trkpt lat="49.35672" lon="3.3312">
        <ele>75</ele>
        <time>2015-01-18T07:56:30Z</time>
      </trkpt>
      <trkpt lat="49.35671" lon="3.33096">
        <ele>74</ele>
        <time>2015-01-18T07:56:35Z</time>
      </trkpt>
      <trkpt lat="49.35669" lon="3.33082">
        <ele>76</ele>
        <time>2015-01-18T07:56:40Z</time>
      </trkpt>
      <trkpt lat="49.35664" lon="3.33082">
        <ele>77</ele>
        <time>2015-01-18T07:56:45Z</time>
      </trkpt>
      <trkpt lat="49.35657" lon="3.33086">
        <ele>77</ele>
        <time>2015-01-18T07:56:50Z</time>
      </trkpt>
      <trkpt lat="49.35649" lon="3.3309">
        <ele>78</ele>
        <time>2015-01-18T07:56:55Z</time>
      </trkpt>
      <trkpt lat="49.35643" lon="3.33095">
        <ele>83</ele>
        <time>2015-01-18T07:57:00Z</time>
      </trkpt>
      <trkpt lat="49.35635" lon="3.33099">
        <ele>86</ele>
        <time>2015-01-18T07:57:05Z</time>
      </trkpt>
      <trkpt lat="49.35627" lon="3.33105">
        <ele>86</ele>
        <time>2015-01-18T07:57:10Z</time>
      </trkpt>
      <trkpt lat="49.35612" lon="3.33108">
        <ele>86</ele>
        <time>2015-01-18T07:57:19Z</time>
      </trkpt>
      <trkpt lat="49.35611" lon="3.3311">
        <ele>86</ele>
        <time>2015-01-18T07:57:20Z</time>
      </trkpt>
      <trkpt lat="49.35608" lon="3.33112">
        <ele>88</ele>
        <time>2015-01-18T07:57:25Z</time>
      </trkpt>
      <trkpt lat="49.35599" lon="3.33117">
        <ele>89</ele>
        <time>2015-01-18T07:57:30Z</time>
      </trkpt>
      <trkpt lat="49.35592" lon="3.33119">
        <ele>88</ele>
        <time>2015-01-18T07:57:35Z</time>
      </trkpt>
      <trkpt lat="49.35582" lon="3.33122">
        <ele>89</ele>
        <time>2015-01-18T07:57:42Z</time>
      </trkpt>
      <trkpt lat="49.35575" lon="3.33125">
        <ele>86</ele>
        <time>2015-01-18T07:57:45Z</time>
      </trkpt>
      <trkpt lat="49.3557" lon="3.33127">
        <ele>87</ele>
        <time>2015-01-18T07:57:50Z</time>
      </trkpt>
      <trkpt lat="49.35566" lon="3.33128">
        <ele>89</ele>
        <time>2015-01-18T07:57:55Z</time>
      </trkpt>
      <trkpt lat="49.35557" lon="3.33128">
        <ele>90</ele>
        <time>2015-01-18T07:58:00Z</time>
      </trkpt>
      <trkpt lat="49.35553" lon="3.33129">
        <ele>92</ele>
        <time>2015-01-18T07:58:05Z</time>
      </trkpt>
      <trkpt lat="49.35549" lon="3.33131">
        <ele>95</ele>
        <time>2015-01-18T07:58:10Z</time>
      </trkpt>
      <trkpt lat="49.35544" lon="3.33132">
        <ele>99</ele>
        <time>2015-01-18T07:58:15Z</time>
      </trkpt>
      <trkpt lat="49.35542" lon="3.33128">
        <ele>104</ele>
        <time>2015-01-18T07:58:20Z</time>
      </trkpt>
      <trkpt lat="49.35537" lon="3.33116">
        <ele>108</ele>
        <time>2015-01-18T07:58:28Z</time>
      </trkpt>
      <trkpt lat="49.35536" lon="3.33114">
        <ele>110</ele>
        <time>2015-01-18T07:58:30Z</time>
      </trkpt>
      <trkpt lat="49.35536" lon="3.33108">
        <ele>113</ele>
        <time>2015-01-18T07:58:35Z</time>
      </trkpt>
      <trkpt lat="49.35535" lon="3.331">
        <ele>118</ele>
        <time>2015-01-18T07:58:43Z</time>
      </trkpt>
      <trkpt lat="49.35535" lon="3.33095">
        <ele>116</ele>
        <time>2015-01-18T07:58:45Z</time>
      </trkpt>
      <trkpt lat="49.35532" lon="3.33092">
        <ele>120</ele>
        <time>2015-01-18T07:58:50Z</time>
      </trkpt>
      <trkpt lat="49.35534" lon="3.33083">
        <ele>121</ele>
        <time>2015-01-18T07:58:55Z</time>
      </trkpt>
      <trkpt lat="49.35531" lon="3.33078">
        <ele>118</ele>
        <time>2015-01-18T07:59:02Z</time>
      </trkpt>
      <trkpt lat="49.35529" lon="3.33075">
        <ele>118</ele>
        <time>2015-01-18T07:59:07Z</time>
      </trkpt>
      <trkpt lat="49.35528" lon="3.33073">
        <ele>120</ele>
        <time>2015-01-18T07:59:13Z</time>
      </trkpt>
      <trkpt lat="49.35528" lon="3.33069">
        <ele>121</ele>
        <time>2015-01-18T07:59:15Z</time>
      </trkpt>
      <trkpt lat="49.3552" lon="3.33068">
        <ele>117</ele>
        <time>2015-01-18T07:59:22Z</time>
      </trkpt>
      <trkpt lat="49.35517" lon="3.33067">
        <ele>117</ele>
        <time>2015-01-18T07:59:25Z</time>
      </trkpt>
      <trkpt lat="49.35507" lon="3.33063">
        <ele>113</ele>
        <time>2015-01-18T07:59:33Z</time>
      </trkpt>
      <trkpt lat="49.35505" lon="3.33062">
        <ele>113</ele>
        <time>2015-01-18T07:59:35Z</time>
      </trkpt>
      <trkpt lat="49.355" lon="3.33059">
        <ele>117</ele>
        <time>2015-01-18T07:59:42Z</time>
      </trkpt>
      <trkpt lat="49.35499" lon="3.33053">
        <ele>116</ele>
        <time>2015-01-18T07:59:45Z</time>
      </trkpt>
      <trkpt lat="49.35498" lon="3.33035">
        <ele>117</ele>
        <time>2015-01-18T07:59:51Z</time>
      </trkpt>
      <trkpt lat="49.35494" lon="3.33027">
        <ele>118</ele>
        <time>2015-01-18T07:59:55Z</time>
      </trkpt>
      <trkpt lat="49.35492" lon="3.33025">
        <ele>119</ele>
        <time>2015-01-18T08:00:02Z</time>
      </trkpt>
      <trkpt lat="49.3549" lon="3.33026">
        <ele>121</ele>
        <time>2015-01-18T08:00:07Z</time>
      </trkpt>
      <trkpt lat="49.35487" lon="3.33025">
        <ele>118</ele>
        <time>2015-01-18T08:00:10Z</time>
      </trkpt>
      <trkpt lat="49.35477" lon="3.33027">
        <ele>115</ele>
        <time>2015-01-18T08:00:15Z</time>
      </trkpt>
      <trkpt lat="49.35473" lon="3.33021">
        <ele>115</ele>
        <time>2015-01-18T08:00:22Z</time>
      </trkpt>
      <trkpt lat="49.35471" lon="3.33018">
        <ele>118</ele>
        <time>2015-01-18T08:00:25Z</time>
      </trkpt>
      <trkpt lat="49.3547" lon="3.33011">
        <ele>118</ele>
        <time>2015-01-18T08:00:30Z</time>
      </trkpt>
      <trkpt lat="49.35467" lon="3.33008">
        <ele>117</ele>
        <time>2015-01-18T08:00:35Z</time>
      </trkpt>
      <trkpt lat="49.35461" lon="3.33">
        <ele>119</ele>
        <time>2015-01-18T08:00:40Z</time>
      </trkpt>
      <trkpt lat="49.35457" lon="3.32993">
        <ele>124</ele>
        <time>2015-01-18T08:00:47Z</time>
      </trkpt>
      <trkpt lat="49.35456" lon="3.32985">
        <ele>124</ele>
        <time>2015-01-18T08:00:50Z</time>
      </trkpt>
      <trkpt lat="49.35456" lon="3.32983">
        <ele>123</ele>
        <time>2015-01-18T08:00:55Z</time>
      </trkpt>
      <trkpt lat="49.35456" lon="3.32983">
        <ele>123</ele>
        <time>2015-01-18T08:01:00Z</time>
      </trkpt>
      <trkpt lat="49.35455" lon="3.32984">
        <ele>122</ele>
        <time>2015-01-18T08:01:05Z</time>
      </trkpt>
      <trkpt lat="49.35455" lon="3.32984">
        <ele>122</ele>
        <time>2015-01-18T08:01:14Z</time>
      </trkpt>
      <trkpt lat="49.35455" lon="3.32984">
        <ele>122</ele>
        <time>2015-01-18T08:01:15Z</time>
      </trkpt>
      <trkpt lat="49.35455" lon="3.32984">
        <ele>122</ele>
        <time>2015-01-18T08:01:20Z</time>
      </trkpt>
      <trkpt lat="49.35455" lon="3.32984">
        <ele>121</ele>
        <time>2015-01-18T08:01:25Z</time>
      </trkpt>
      <trkpt lat="49.35457" lon="3.32983">
        <ele>119</ele>
        <time>2015-01-18T08:01:33Z</time>
      </trkpt>
      <trkpt lat="49.35457" lon="3.32982">
        <ele>120</ele>
        <time>2015-01-18T08:01:35Z</time>
      </trkpt>
      <trkpt lat="49.35458" lon="3.32983">
        <ele>121</ele>
        <time>2015-01-18T08:01:40Z</time>
      </trkpt>
      <trkpt lat="49.35457" lon="3.32984">
        <ele>122</ele>
        <time>2015-01-18T08:01:45Z</time>
      </trkpt>
      <trkpt lat="49.35457" lon="3.32983">
        <ele>122</ele>
        <time>2015-01-18T08:01:50Z</time>
      </trkpt>
      <trkpt lat="49.35457" lon="3.32965">
        <ele>123</ele>
        <time>2015-01-18T08:01:55Z</time>
      </trkpt>
      <trkpt lat="49.35454" lon="3.32938">
        <ele>121</ele>
        <time>2015-01-18T08:02:00Z</time>
      </trkpt>
      <trkpt lat="49.35461" lon="3.329">
        <ele>119</ele>
        <time>2015-01-18T08:02:05Z</time>
      </trkpt>
      <trkpt lat="49.35469" lon="3.32864">
        <ele>120</ele>
        <time>2015-01-18T08:02:10Z</time>
      </trkpt>
      <trkpt lat="49.35466" lon="3.32838">
        <ele>124</ele>
        <time>2015-01-18T08:02:19Z</time>
      </trkpt>
      <trkpt lat="49.35465" lon="3.32832">
        <ele>123</ele>
        <time>2015-01-18T08:02:20Z</time>
      </trkpt>
      <trkpt lat="49.3546" lon="3.32806">
        <ele>121</ele>
        <time>2015-01-18T08:02:25Z</time>
      </trkpt>
      <trkpt lat="49.3546" lon="3.32777">
        <ele>123</ele>
        <time>2015-01-18T08:02:31Z</time>
      </trkpt>
      <trkpt lat="49.35457" lon="3.32765">
        <ele>124</ele>
        <time>2015-01-18T08:02:35Z</time>
      </trkpt>
      <trkpt lat="49.35458" lon="3.3273">
        <ele>120</ele>
        <time>2015-01-18T08:02:40Z</time>
      </trkpt>
      <trkpt lat="49.35464" lon="3.32691">
        <ele>115</ele>
        <time>2015-01-18T08:02:45Z</time>
      </trkpt>
      <trkpt lat="49.35455" lon="3.32659">
        <ele>108</ele>
        <time>2015-01-18T08:02:50Z</time>
      </trkpt>
      <trkpt lat="49.35452" lon="3.32613">
        <ele>109</ele>
        <time>2015-01-18T08:02:55Z</time>
      </trkpt>
      <trkpt lat="49.35448" lon="3.32572">
        <ele>107</ele>
        <time>2015-01-18T08:03:00Z</time>
      </trkpt>
      <trkpt lat="49.35441" lon="3.32527">
        <ele>120</ele>
        <time>2015-01-18T08:03:09Z</time>
      </trkpt>
      <trkpt lat="49.35444" lon="3.32517">
        <ele>120</ele>
        <time>2015-01-18T08:03:10Z</time>
      </trkpt>
      <trkpt lat="49.35466" lon="3.32484">
        <ele>103</ele>
        <time>2015-01-18T08:03:16Z</time>
      </trkpt>
      <trkpt lat="49.35474" lon="3.32471">
        <ele>104</ele>
        <time>2015-01-18T08:03:20Z</time>
      </trkpt>
      <trkpt lat="49.35497" lon="3.3246">
        <ele>97</ele>
        <time>2015-01-18T08:03:28Z</time>
      </trkpt>
      <trkpt lat="49.35507" lon="3.32443">
        <ele>98</ele>
        <time>2015-01-18T08:03:31Z</time>
      </trkpt>
      <trkpt lat="49.3551" lon="3.3238">
        <ele>91</ele>
        <time>2015-01-18T08:03:39Z</time>
      </trkpt>
      <trkpt lat="49.35507" lon="3.32373">
        <ele>87</ele>
        <time>2015-01-18T08:03:40Z</time>
      </trkpt>
      <trkpt lat="49.35506" lon="3.32335">
        <ele>84</ele>
        <time>2015-01-18T08:03:46Z</time>
      </trkpt>
      <trkpt lat="49.35513" lon="3.32311">
        <ele>81</ele>
        <time>2015-01-18T08:03:50Z</time>
      </trkpt>
      <trkpt lat="49.3552" lon="3.32274">
        <ele>78</ele>
        <time>2015-01-18T08:03:56Z</time>
      </trkpt>
      <trkpt lat="49.35523" lon="3.32261">
        <ele>75</ele>
        <time>2015-01-18T08:04:00Z</time>
      </trkpt>
      <trkpt lat="49.35503" lon="3.3226">
        <ele>69</ele>
        <time>2015-01-18T08:04:06Z</time>
      </trkpt>
      <trkpt lat="49.35489" lon="3.32256">
        <ele>68</ele>
        <time>2015-01-18T08:04:10Z</time>
      </trkpt>
      <trkpt lat="49.35464" lon="3.32247">
        <ele>62</ele>
        <time>2015-01-18T08:04:18Z</time>
      </trkpt>
      <trkpt lat="49.35457" lon="3.32245">
        <ele>62</ele>
        <time>2015-01-18T08:04:20Z</time>
      </trkpt>
      <trkpt lat="49.35435" lon="3.32237">
        <ele>63</ele>
        <time>2015-01-18T08:04:26Z</time>
      </trkpt>
      <trkpt lat="49.35422" lon="3.32232">
        <ele>64</ele>
        <time>2015-01-18T08:04:30Z</time>
      </trkpt>
      <trkpt lat="49.35403" lon="3.32227">
        <ele>63</ele>
        <time>2015-01-18T08:04:35Z</time>
      </trkpt>
      <trkpt lat="49.35385" lon="3.32221">
        <ele>64</ele>
        <time>2015-01-18T08:04:40Z</time>
      </trkpt>
      <trkpt lat="49.35367" lon="3.32215">
        <ele>65</ele>
        <time>2015-01-18T08:04:45Z</time>
      </trkpt>
      <trkpt lat="49.3535" lon="3.3221">
        <ele>66</ele>
        <time>2015-01-18T08:04:50Z</time>
      </trkpt>
      <trkpt lat="49.35332" lon="3.32205">
        <ele>67</ele>
        <time>2015-01-18T08:04:55Z</time>
      </trkpt>
      <trkpt lat="49.35315" lon="3.32199">
        <ele>68</ele>
        <time>2015-01-18T08:05:00Z</time>
      </trkpt>
      <trkpt lat="49.35297" lon="3.32196">
        <ele>69</ele>
        <time>2015-01-18T08:05:05Z</time>
      </trkpt>
      <trkpt lat="49.35282" lon="3.3219">
        <ele>69</ele>
        <time>2015-01-18T08:05:10Z</time>
      </trkpt>
      <trkpt lat="49.35267" lon="3.32187">
        <ele>72</ele>
        <time>2015-01-18T08:05:15Z</time>
      </trkpt>
      <trkpt lat="49.35251" lon="3.32182">
        <ele>70</ele>
        <time>2015-01-18T08:05:20Z</time>
      </trkpt>
      <trkpt lat="49.35235" lon="3.32177">
        <ele>72</ele>
        <time>2015-01-18T08:05:25Z</time>
      </trkpt>
      <trkpt lat="49.35221" lon="3.32172">
        <ele>72</ele>
        <time>2015-01-18T08:05:30Z</time>
      </trkpt>
      <trkpt lat="49.35195" lon="3.32168">
        <ele>73</ele>
        <time>2015-01-18T08:05:39Z</time>
      </trkpt>
      <trkpt lat="49.35193" lon="3.32167">
        <ele>73</ele>
        <time>2015-01-18T08:05:40Z</time>
      </trkpt>
      <trkpt lat="49.3518" lon="3.32166">
        <ele>72</ele>
        <time>2015-01-18T08:05:45Z</time>
      </trkpt>
      <trkpt lat="49.35168" lon="3.32166">
        <ele>73</ele>
        <time>2015-01-18T08:05:50Z</time>
      </trkpt>
      <trkpt lat="49.3515" lon="3.32178">
        <ele>74</ele>
        <time>2015-01-18T08:05:58Z</time>
      </trkpt>
      <trkpt lat="49.35146" lon="3.32179">
        <ele>75</ele>
        <time>2015-01-18T08:06:00Z</time>
      </trkpt>
      <trkpt lat="49.35134" lon="3.32179">
        <ele>75</ele>
        <time>2015-01-18T08:06:05Z</time>
      </trkpt>
      <trkpt lat="49.35124" lon="3.32182">
        <ele>76</ele>
        <time>2015-01-18T08:06:10Z</time>
      </trkpt>
      <trkpt lat="49.35112" lon="3.32179">
        <ele>81</ele>
        <time>2015-01-18T08:06:17Z</time>
      </trkpt>
      <trkpt lat="49.35105" lon="3.32177">
        <ele>83</ele>
        <time>2015-01-18T08:06:20Z</time>
      </trkpt>
      <trkpt lat="49.35094" lon="3.32175">
        <ele>84</ele>
        <time>2015-01-18T08:06:25Z</time>
      </trkpt>
      <trkpt lat="49.35085" lon="3.32176">
        <ele>83</ele>
        <time>2015-01-18T08:06:30Z</time>
      </trkpt>
      <trkpt lat="49.35074" lon="3.32175">
        <ele>82</ele>
        <time>2015-01-18T08:06:35Z</time>
      </trkpt>
      <trkpt lat="49.35064" lon="3.3218">
        <ele>82</ele>
        <time>2015-01-18T08:06:40Z</time>
      </trkpt>
      <trkpt lat="49.35059" lon="3.32181">
        <ele>82</ele>
        <time>2015-01-18T08:06:45Z</time>
      </trkpt>
      <trkpt lat="49.35045" lon="3.32185">
        <ele>85</ele>
        <time>2015-01-18T08:06:54Z</time>
      </trkpt>
      <trkpt lat="49.35044" lon="3.32187">
        <ele>85</ele>
        <time>2015-01-18T08:06:55Z</time>
      </trkpt>
      <trkpt lat="49.35035" lon="3.32191">
        <ele>85</ele>
        <time>2015-01-18T08:07:00Z</time>
      </trkpt>
      <trkpt lat="49.35027" lon="3.32192">
        <ele>89</ele>
        <time>2015-01-18T08:07:05Z</time>
      </trkpt>
      <trkpt lat="49.35013" lon="3.32199">
        <ele>89</ele>
        <time>2015-01-18T08:07:13Z</time>
      </trkpt>
      <trkpt lat="49.35013" lon="3.32201">
        <ele>91</ele>
        <time>2015-01-18T08:07:15Z</time>
      </trkpt>
      <trkpt lat="49.35009" lon="3.32211">
        <ele>89</ele>
        <time>2015-01-18T08:07:20Z</time>
      </trkpt>
      <trkpt lat="49.35007" lon="3.32218">
        <ele>92</ele>
        <time>2015-01-18T08:07:25Z</time>
      </trkpt>
      <trkpt lat="49.35003" lon="3.32227">
        <ele>91</ele>
        <time>2015-01-18T08:07:30Z</time>
      </trkpt>
      <trkpt lat="49.34999" lon="3.32237">
        <ele>92</ele>
        <time>2015-01-18T08:07:36Z</time>
      </trkpt>
      <trkpt lat="49.34995" lon="3.32244">
        <ele>95</ele>
        <time>2015-01-18T08:07:40Z</time>
      </trkpt>
      <trkpt lat="49.34991" lon="3.32254">
        <ele>100</ele>
        <time>2015-01-18T08:07:47Z</time>
      </trkpt>
      <trkpt lat="49.34987" lon="3.3226">
        <ele>99</ele>
        <time>2015-01-18T08:07:50Z</time>
      </trkpt>
      <trkpt lat="49.34982" lon="3.3227">
        <ele>98</ele>
        <time>2015-01-18T08:07:55Z</time>
      </trkpt>
      <trkpt lat="49.34979" lon="3.32278">
        <ele>101</ele>
        <time>2015-01-18T08:08:00Z</time>
      </trkpt>
      <trkpt lat="49.34976" lon="3.32286">
        <ele>102</ele>
        <time>2015-01-18T08:08:05Z</time>
      </trkpt>
      <trkpt lat="49.34966" lon="3.323">
        <ele>102</ele>
        <time>2015-01-18T08:08:12Z</time>
      </trkpt>
      <trkpt lat="49.34963" lon="3.32306">
        <ele>101</ele>
        <time>2015-01-18T08:08:15Z</time>
      </trkpt>
      <trkpt lat="49.34961" lon="3.32313">
        <ele>102</ele>
        <time>2015-01-18T08:08:20Z</time>
      </trkpt>
      <trkpt lat="49.34958" lon="3.32323">
        <ele>104</ele>
        <time>2015-01-18T08:08:25Z</time>
      </trkpt>
      <trkpt lat="49.34952" lon="3.32337">
        <ele>104</ele>
        <time>2015-01-18T08:08:32Z</time>
      </trkpt>
      <trkpt lat="49.3495" lon="3.32343">
        <ele>106</ele>
        <time>2015-01-18T08:08:35Z</time>
      </trkpt>
      <trkpt lat="49.34947" lon="3.32358">
        <ele>107</ele>
        <time>2015-01-18T08:08:41Z</time>
      </trkpt>
      <trkpt lat="49.34945" lon="3.32366">
        <ele>106</ele>
        <time>2015-01-18T08:08:45Z</time>
      </trkpt>
      <trkpt lat="49.34942" lon="3.32374">
        <ele>110</ele>
        <time>2015-01-18T08:08:50Z</time>
      </trkpt>
      <trkpt lat="49.34942" lon="3.3238">
        <ele>111</ele>
        <time>2015-01-18T08:08:55Z</time>
      </trkpt>
      <trkpt lat="49.34942" lon="3.32392">
        <ele>110</ele>
        <time>2015-01-18T08:09:00Z</time>
      </trkpt>
      <trkpt lat="49.34942" lon="3.32416">
        <ele>114</ele>
        <time>2015-01-18T08:09:09Z</time>
      </trkpt>
      <trkpt lat="49.34944" lon="3.32417">
        <ele>112</ele>
        <time>2015-01-18T08:09:10Z</time>
      </trkpt>
      <trkpt lat="49.34941" lon="3.32436">
        <ele>115</ele>
        <time>2015-01-18T08:09:18Z</time>
      </trkpt>
      <trkpt lat="49.34941" lon="3.32442">
        <ele>117</ele>
        <time>2015-01-18T08:09:20Z</time>
      </trkpt>
      <trkpt lat="49.34943" lon="3.32451">
        <ele>118</ele>
        <time>2015-01-18T08:09:25Z</time>
      </trkpt>
      <trkpt lat="49.34949" lon="3.32471">
        <ele>119</ele>
        <time>2015-01-18T08:09:34Z</time>
      </trkpt>
      <trkpt lat="49.34949" lon="3.32473">
        <ele>120</ele>
        <time>2015-01-18T08:09:35Z</time>
      </trkpt>
      <trkpt lat="49.34948" lon="3.3249">
        <ele>118</ele>
        <time>2015-01-18T08:09:40Z</time>
      </trkpt>
      <trkpt lat="49.34947" lon="3.32501">
        <ele>123</ele>
        <time>2015-01-18T08:09:45Z</time>
      </trkpt>
      <trkpt lat="49.34952" lon="3.32517">
        <ele>120</ele>
        <time>2015-01-18T08:09:52Z</time>
      </trkpt>
      <trkpt lat="49.34955" lon="3.32525">
        <ele>119</ele>
        <time>2015-01-18T08:09:55Z</time>
      </trkpt>
      <trkpt lat="49.34959" lon="3.32534">
        <ele>119</ele>
        <time>2015-01-18T08:10:00Z</time>
      </trkpt>
      <trkpt lat="49.34965" lon="3.32545">
        <ele>119</ele>
        <time>2015-01-18T08:10:06Z</time>
      </trkpt>
      <trkpt lat="49.34968" lon="3.32555">
        <ele>116</ele>
        <time>2015-01-18T08:10:10Z</time>
      </trkpt>
      <trkpt lat="49.3497" lon="3.32565">
        <ele>115</ele>
        <time>2015-01-18T08:10:15Z</time>
      </trkpt>
      <trkpt lat="49.34975" lon="3.32575">
        <ele>116</ele>
        <time>2015-01-18T08:10:20Z</time>
      </trkpt>
      <trkpt lat="49.34982" lon="3.32589">
        <ele>116</ele>
        <time>2015-01-18T08:10:27Z</time>
      </trkpt>
      <trkpt lat="49.34983" lon="3.32597">
        <ele>117</ele>
        <time>2015-01-18T08:10:30Z</time>
      </trkpt>
      <trkpt lat="49.34987" lon="3.32609">
        <ele>117</ele>
        <time>2015-01-18T08:10:35Z</time>
      </trkpt>
      <trkpt lat="49.3499" lon="3.32619">
        <ele>119</ele>
        <time>2015-01-18T08:10:40Z</time>
      </trkpt>
      <trkpt lat="49.34994" lon="3.32625">
        <ele>120</ele>
        <time>2015-01-18T08:10:45Z</time>
      </trkpt>
      <trkpt lat="49.34999" lon="3.3264">
        <ele>122</ele>
        <time>2015-01-18T08:10:52Z</time>
      </trkpt>
      <trkpt lat="49.35001" lon="3.32644">
        <ele>122</ele>
        <time>2015-01-18T08:10:55Z</time>
      </trkpt>
      <trkpt lat="49.35002" lon="3.32655">
        <ele>121</ele>
        <time>2015-01-18T08:11:00Z</time>
      </trkpt>
      <trkpt lat="49.35006" lon="3.32673">
        <ele>122</ele>
        <time>2015-01-18T08:11:09Z</time>
      </trkpt>
      <trkpt lat="49.3501" lon="3.32678">
        <ele>123</ele>
        <time>2015-01-18T08:11:13Z</time>
      </trkpt>
      <trkpt lat="49.35012" lon="3.32679">
        <ele>124</ele>
        <time>2015-01-18T08:11:15Z</time>
      </trkpt>
      <trkpt lat="49.35021" lon="3.32678">
        <ele>125</ele>
        <time>2015-01-18T08:11:21Z</time>
      </trkpt>
      <trkpt lat="49.35025" lon="3.32677">
        <ele>131</ele>
        <time>2015-01-18T08:11:25Z</time>
      </trkpt>
      <trkpt lat="49.35034" lon="3.3268">
        <ele>132</ele>
        <time>2015-01-18T08:11:30Z</time>
      </trkpt>
      <trkpt lat="49.3504" lon="3.32677">
        <ele>137</ele>
        <time>2015-01-18T08:11:35Z</time>
      </trkpt>
      <trkpt lat="49.3505" lon="3.32675">
        <ele>135</ele>
        <time>2015-01-18T08:11:40Z</time>
      </trkpt>
      <trkpt lat="49.35071" lon="3.3267">
        <ele>132</ele>
        <time>2015-01-18T08:11:48Z</time>
      </trkpt>
      <trkpt lat="49.35076" lon="3.32669">
        <ele>130</ele>
        <time>2015-01-18T08:11:50Z</time>
      </trkpt>
      <trkpt lat="49.35085" lon="3.32662">
        <ele>131</ele>
        <time>2015-01-18T08:11:55Z</time>
      </trkpt>
      <trkpt lat="49.35097" lon="3.32652">
        <ele>126</ele>
        <time>2015-01-18T08:12:00Z</time>
      </trkpt>
      <trkpt lat="49.35107" lon="3.32643">
        <ele>127</ele>
        <time>2015-01-18T08:12:05Z</time>
      </trkpt>
      <trkpt lat="49.35122" lon="3.32627">
        <ele>126</ele>
        <time>2015-01-18T08:12:12Z</time>
      </trkpt>
      <trkpt lat="49.3513" lon="3.32621">
        <ele>124</ele>
        <time>2015-01-18T08:12:15Z</time>
      </trkpt>
      <trkpt lat="49.3514" lon="3.32611">
        <ele>130</ele>
        <time>2015-01-18T08:12:20Z</time>
      </trkpt>
      <trkpt lat="49.35155" lon="3.32596">
        <ele>132</ele>
        <time>2015-01-18T08:12:26Z</time>
      </trkpt>
      <trkpt lat="49.35168" lon="3.32585">
        <ele>130</ele>
        <time>2015-01-18T08:12:30Z</time>
      </trkpt>
      <trkpt lat="49.35187" lon="3.32589">
        <ele>133</ele>
        <time>2015-01-18T08:12:36Z</time>
      </trkpt>
      <trkpt lat="49.352" lon="3.32594">
        <ele>130</ele>
        <time>2015-01-18T08:12:40Z</time>
      </trkpt>
      <trkpt lat="49.35216" lon="3.32598">
        <ele>133</ele>
        <time>2015-01-18T08:12:45Z</time>
      </trkpt>
      <trkpt lat="49.35233" lon="3.32599">
        <ele>129</ele>
        <time>2015-01-18T08:12:50Z</time>
      </trkpt>
      <trkpt lat="49.35247" lon="3.32602">
        <ele>128</ele>
        <time>2015-01-18T08:12:55Z</time>
      </trkpt>
      <trkpt lat="49.35258" lon="3.32618">
        <ele>130</ele>
        <time>2015-01-18T08:13:00Z</time>
      </trkpt>
      <trkpt lat="49.35267" lon="3.32632">
        <ele>126</ele>
        <time>2015-01-18T08:13:05Z</time>
      </trkpt>
      <trkpt lat="49.35277" lon="3.32658">
        <ele>126</ele>
        <time>2015-01-18T08:13:12Z</time>
      </trkpt>
      <trkpt lat="49.3528" lon="3.32674">
        <ele>125</ele>
        <time>2015-01-18T08:13:16Z</time>
      </trkpt>
      <trkpt lat="49.35283" lon="3.32691">
        <ele>127</ele>
        <time>2015-01-18T08:13:21Z</time>
      </trkpt>
      <trkpt lat="49.3529" lon="3.32707">
        <ele>132</ele>
        <time>2015-01-18T08:13:27Z</time>
      </trkpt>
      <trkpt lat="49.35292" lon="3.32717">
        <ele>133</ele>
        <time>2015-01-18T08:13:30Z</time>
      </trkpt>
      <trkpt lat="49.35299" lon="3.32746">
        <ele>133</ele>
        <time>2015-01-18T08:13:39Z</time>
      </trkpt>
      <trkpt lat="49.353" lon="3.32747">
        <ele>134</ele>
        <time>2015-01-18T08:13:40Z</time>
      </trkpt>
      <trkpt lat="49.35303" lon="3.32764">
        <ele>137</ele>
        <time>2015-01-18T08:13:47Z</time>
      </trkpt>
      <trkpt lat="49.35305" lon="3.32774">
        <ele>138</ele>
        <time>2015-01-18T08:13:50Z</time>
      </trkpt>
      <trkpt lat="49.35308" lon="3.32792">
        <ele>137</ele>
        <time>2015-01-18T08:13:56Z</time>
      </trkpt>
      <trkpt lat="49.3531" lon="3.32802">
        <ele>139</ele>
        <time>2015-01-18T08:14:00Z</time>
      </trkpt>
      <trkpt lat="49.3531" lon="3.32815">
        <ele>138</ele>
        <time>2015-01-18T08:14:05Z</time>
      </trkpt>
      <trkpt lat="49.35312" lon="3.32835">
        <ele>134</ele>
        <time>2015-01-18T08:14:10Z</time>
      </trkpt>
      <trkpt lat="49.35316" lon="3.3285">
        <ele>136</ele>
        <time>2015-01-18T08:14:15Z</time>
      </trkpt>
      <trkpt lat="49.35318" lon="3.32866">
        <ele>137</ele>
        <time>2015-01-18T08:14:20Z</time>
      </trkpt>
      <trkpt lat="49.35324" lon="3.32883">
        <ele>137</ele>
        <time>2015-01-18T08:14:25Z</time>
      </trkpt>
      <trkpt lat="49.35323" lon="3.32904">
        <ele>135</ele>
        <time>2015-01-18T08:14:30Z</time>
      </trkpt>
      <trkpt lat="49.3533" lon="3.32918">
        <ele>136</ele>
        <time>2015-01-18T08:14:35Z</time>
      </trkpt>
      <trkpt lat="49.35329" lon="3.3294">
        <ele>137</ele>
        <time>2015-01-18T08:14:40Z</time>
      </trkpt>
      <trkpt lat="49.35337" lon="3.32959">
        <ele>140</ele>
        <time>2015-01-18T08:14:45Z</time>
      </trkpt>
      <trkpt lat="49.35338" lon="3.32982">
        <ele>141</ele>
        <time>2015-01-18T08:14:50Z</time>
      </trkpt>
      <trkpt lat="49.35337" lon="3.33019">
        <ele>138</ele>
        <time>2015-01-18T08:14:57Z</time>
      </trkpt>
      <trkpt lat="49.35338" lon="3.33033">
        <ele>138</ele>
        <time>2015-01-18T08:15:00Z</time>
      </trkpt>
      <trkpt lat="49.35346" lon="3.33052">
        <ele>135</ele>
        <time>2015-01-18T08:15:05Z</time>
      </trkpt>
      <trkpt lat="49.3536" lon="3.3305">
        <ele>136</ele>
        <time>2015-01-18T08:15:10Z</time>
      </trkpt>
      <trkpt lat="49.35374" lon="3.33045">
        <ele>139</ele>
        <time>2015-01-18T08:15:15Z</time>
      </trkpt>
      <trkpt lat="49.3541" lon="3.33031">
        <ele>135</ele>
        <time>2015-01-18T08:15:24Z</time>
      </trkpt>
      <trkpt lat="49.35413" lon="3.3303">
        <ele>136</ele>
        <time>2015-01-18T08:15:25Z</time>
      </trkpt>
      <trkpt lat="49.35433" lon="3.33035">
        <ele>130</ele>
        <time>2015-01-18T08:15:30Z</time>
      </trkpt>
      <trkpt lat="49.35448" lon="3.33056">
        <ele>127</ele>
        <time>2015-01-18T08:15:35Z</time>
      </trkpt>
      <trkpt lat="49.35451" lon="3.3306">
        <ele>125</ele>
        <time>2015-01-18T08:15:40Z</time>
      </trkpt>
      <trkpt lat="49.35451" lon="3.33061">
        <ele>126</ele>
        <time>2015-01-18T08:15:45Z</time>
      </trkpt>
      <trkpt lat="49.35451" lon="3.3306">
        <ele>127</ele>
        <time>2015-01-18T08:15:50Z</time>
      </trkpt>
      <trkpt lat="49.3545" lon="3.3306">
        <ele>128</ele>
        <time>2015-01-18T08:15:55Z</time>
      </trkpt>
      <trkpt lat="49.3545" lon="3.3306">
        <ele>128</ele>
        <time>2015-01-18T08:16:00Z</time>
      </trkpt>
      <trkpt lat="49.35449" lon="3.33059">
        <ele>128</ele>
        <time>2015-01-18T08:16:05Z</time>
      </trkpt>
      <trkpt lat="49.35449" lon="3.3306">
        <ele>129</ele>
        <time>2015-01-18T08:16:13Z</time>
      </trkpt>
      <trkpt lat="49.35449" lon="3.3306">
        <ele>129</ele>
        <time>2015-01-18T08:16:15Z</time>
      </trkpt>
      <trkpt lat="49.35449" lon="3.3306">
        <ele>129</ele>
        <time>2015-01-18T08:16:20Z</time>
      </trkpt>
      <trkpt lat="49.35449" lon="3.3306">
        <ele>130</ele>
        <time>2015-01-18T08:16:27Z</time>
      </trkpt>
      <trkpt lat="49.35448" lon="3.33061">
        <ele>129</ele>
        <time>2015-01-18T08:16:30Z</time>
      </trkpt>
      <trkpt lat="49.35448" lon="3.33065">
        <ele>126</ele>
        <time>2015-01-18T08:16:35Z</time>
      </trkpt>
      <trkpt lat="49.35448" lon="3.33065">
        <ele>125</ele>
        <time>2015-01-18T08:16:41Z</time>
      </trkpt>
      <trkpt lat="49.35448" lon="3.33065">
        <ele>125</ele>
        <time>2015-01-18T08:16:49Z</time>
      </trkpt>
      <trkpt lat="49.35448" lon="3.33065">
        <ele>125</ele>
        <time>2015-01-18T08:16:50Z</time>
      </trkpt>
      <trkpt lat="49.35448" lon="3.33065">
        <ele>125</ele>
        <time>2015-01-18T08:16:55Z</time>
      </trkpt>
      <trkpt lat="49.35448" lon="3.33065">
        <ele>126</ele>
        <time>2015-01-18T08:17:00Z</time>
      </trkpt>
      <trkpt lat="49.35448" lon="3.33065">
        <ele>126</ele>
        <time>2015-01-18T08:17:06Z</time>
      </trkpt>
      <trkpt lat="49.35448" lon="3.33065">
        <ele>126</ele>
        <time>2015-01-18T08:17:11Z</time>
      </trkpt>
      <trkpt lat="49.35448" lon="3.33065">
        <ele>126</ele>
        <time>2015-01-18T08:17:16Z</time>
      </trkpt>
      <trkpt lat="49.35448" lon="3.33065">
        <ele>126</ele>
        <time>2015-01-18T08:17:20Z</time>
      </trkpt>
      <trkpt lat="49.35448" lon="3.33065">
        <ele>126</ele>
        <time>2015-01-18T08:17:25Z</time>
      </trkpt>
      <trkpt lat="49.35448" lon="3.33065">
        <ele>126</ele>
        <time>2015-01-18T08:17:30Z</time>
      </trkpt>
      <trkpt lat="49.35448" lon="3.33065">
        <ele>126</ele>
        <time>2015-01-18T08:17:35Z</time>
      </trkpt>
      <trkpt lat="49.35453" lon="3.33081">
        <ele>125</ele>
        <time>2015-01-18T08:17:41Z</time>
      </trkpt>
      <trkpt lat="49.35454" lon="3.33104">
        <ele>126</ele>
        <time>2015-01-18T08:17:45Z</time>
      </trkpt>
      <trkpt lat="49.35452" lon="3.33156">
        <ele>129</ele>
        <time>2015-01-18T08:17:52Z</time>
      </trkpt>
      <trkpt lat="49.35453" lon="3.33187">
        <ele>123</ele>
        <time>2015-01-18T08:17:57Z</time>
      </trkpt>
      <trkpt lat="49.35453" lon="3.33226">
        <ele>123</ele>
        <time>2015-01-18T08:18:04Z</time>
      </trkpt>
      <trkpt lat="49.35452" lon="3.33232">
        <ele>122</ele>
        <time>2015-01-18T08:18:05Z</time>
      </trkpt>
      <trkpt lat="49.35452" lon="3.33264">
        <ele>122</ele>
        <time>2015-01-18T08:18:10Z</time>
      </trkpt>
      <trkpt lat="49.35455" lon="3.33298">
        <ele>123</ele>
        <time>2015-01-18T08:18:16Z</time>
      </trkpt>
      <trkpt lat="49.35454" lon="3.33323">
        <ele>122</ele>
        <time>2015-01-18T08:18:20Z</time>
      </trkpt>
      <trkpt lat="49.35457" lon="3.33355">
        <ele>122</ele>
        <time>2015-01-18T08:18:25Z</time>
      </trkpt>
      <trkpt lat="49.35458" lon="3.33386">
        <ele>124</ele>
        <time>2015-01-18T08:18:30Z</time>
      </trkpt>
      <trkpt lat="49.35463" lon="3.33414">
        <ele>127</ele>
        <time>2015-01-18T08:18:35Z</time>
      </trkpt>
      <trkpt lat="49.35461" lon="3.33461">
        <ele>127</ele>
        <time>2015-01-18T08:18:42Z</time>
      </trkpt>
      <trkpt lat="49.35462" lon="3.33479">
        <ele>126</ele>
        <time>2015-01-18T08:18:45Z</time>
      </trkpt>
      <trkpt lat="49.35463" lon="3.33508">
        <ele>126</ele>
        <time>2015-01-18T08:18:50Z</time>
      </trkpt>
      <trkpt lat="49.35463" lon="3.33538">
        <ele>124</ele>
        <time>2015-01-18T08:18:55Z</time>
      </trkpt>
      <trkpt lat="49.35462" lon="3.33568">
        <ele>125</ele>
        <time>2015-01-18T08:19:00Z</time>
      </trkpt>
      <trkpt lat="49.35461" lon="3.33596">
        <ele>127</ele>
        <time>2015-01-18T08:19:05Z</time>
      </trkpt>
      <trkpt lat="49.3546" lon="3.33624">
        <ele>125</ele>
        <time>2015-01-18T08:19:10Z</time>
      </trkpt>
      <trkpt lat="49.35458" lon="3.33651">
        <ele>126</ele>
        <time>2015-01-18T08:19:15Z</time>
      </trkpt>
      <trkpt lat="49.3545" lon="3.33678">
        <ele>126</ele>
        <time>2015-01-18T08:19:20Z</time>
      </trkpt>
      <trkpt lat="49.35441" lon="3.33705">
        <ele>123</ele>
        <time>2015-01-18T08:19:25Z</time>
      </trkpt>
      <trkpt lat="49.35435" lon="3.33728">
        <ele>125</ele>
        <time>2015-01-18T08:19:30Z</time>
      </trkpt>
      <trkpt lat="49.35441" lon="3.33767">
        <ele>132</ele>
        <time>2015-01-18T08:19:39Z</time>
      </trkpt>
      <trkpt lat="49.35438" lon="3.33785">
        <ele>135</ele>
        <time>2015-01-18T08:19:43Z</time>
      </trkpt>
      <trkpt lat="49.35436" lon="3.33794">
        <ele>135</ele>
        <time>2015-01-18T08:19:45Z</time>
      </trkpt>
      <trkpt lat="49.35429" lon="3.33813">
        <ele>136</ele>
        <time>2015-01-18T08:19:50Z</time>
      </trkpt>
      <trkpt lat="49.35419" lon="3.3383">
        <ele>137</ele>
        <time>2015-01-18T08:19:55Z</time>
      </trkpt>
      <trkpt lat="49.3541" lon="3.33845">
        <ele>137</ele>
        <time>2015-01-18T08:20:00Z</time>
      </trkpt>
      <trkpt lat="49.35411" lon="3.33864">
        <ele>136</ele>
        <time>2015-01-18T08:20:05Z</time>
      </trkpt>
      <trkpt lat="49.35423" lon="3.33887">
        <ele>134</ele>
        <time>2015-01-18T08:20:10Z</time>
      </trkpt>
      <trkpt lat="49.3544" lon="3.33914">
        <ele>132</ele>
        <time>2015-01-18T08:20:15Z</time>
      </trkpt>
      <trkpt lat="49.35455" lon="3.33941">
        <ele>131</ele>
        <time>2015-01-18T08:20:20Z</time>
      </trkpt>
      <trkpt lat="49.35464" lon="3.3397">
        <ele>130</ele>
        <time>2015-01-18T08:20:25Z</time>
      </trkpt>
      <trkpt lat="49.35469" lon="3.34">
        <ele>130</ele>
        <time>2015-01-18T08:20:30Z</time>
      </trkpt>
      <trkpt lat="49.35471" lon="3.34028">
        <ele>128</ele>
        <time>2015-01-18T08:20:35Z</time>
      </trkpt>
      <trkpt lat="49.35472" lon="3.34052">
        <ele>128</ele>
        <time>2015-01-18T08:20:40Z</time>
      </trkpt>
      <trkpt lat="49.35475" lon="3.3408">
        <ele>126</ele>
        <time>2015-01-18T08:20:45Z</time>
      </trkpt>
      <trkpt lat="49.35473" lon="3.34109">
        <ele>128</ele>
        <time>2015-01-18T08:20:50Z</time>
      </trkpt>
      <trkpt lat="49.35472" lon="3.34133">
        <ele>127</ele>
        <time>2015-01-18T08:20:55Z</time>
      </trkpt>
      <trkpt lat="49.35471" lon="3.34156">
        <ele>130</ele>
        <time>2015-01-18T08:21:00Z</time>
      </trkpt>
      <trkpt lat="49.35475" lon="3.34179">
        <ele>130</ele>
        <time>2015-01-18T08:21:05Z</time>
      </trkpt>
      <trkpt lat="49.35468" lon="3.34222">
        <ele>126</ele>
        <time>2015-01-18T08:21:13Z</time>
      </trkpt>
      <trkpt lat="49.3547" lon="3.34231">
        <ele>127</ele>
        <time>2015-01-18T08:21:15Z</time>
      </trkpt>
      <trkpt lat="49.3547" lon="3.34271">
        <ele>129</ele>
        <time>2015-01-18T08:21:23Z</time>
      </trkpt>
      <trkpt lat="49.3547" lon="3.34279">
        <ele>130</ele>
        <time>2015-01-18T08:21:25Z</time>
      </trkpt>
      <trkpt lat="49.35463" lon="3.343">
        <ele>130</ele>
        <time>2015-01-18T08:21:30Z</time>
      </trkpt>
      <trkpt lat="49.35457" lon="3.34318">
        <ele>130</ele>
        <time>2015-01-18T08:21:35Z</time>
      </trkpt>
      <trkpt lat="49.35454" lon="3.34347">
        <ele>132</ele>
        <time>2015-01-18T08:21:43Z</time>
      </trkpt>
      <trkpt lat="49.3545" lon="3.34357">
        <ele>132</ele>
        <time>2015-01-18T08:21:45Z</time>
      </trkpt>
      <trkpt lat="49.35453" lon="3.34384">
        <ele>133</ele>
        <time>2015-01-18T08:21:51Z</time>
      </trkpt>
      <trkpt lat="49.35453" lon="3.34419">
        <ele>128</ele>
        <time>2015-01-18T08:21:58Z</time>
      </trkpt>
      <trkpt lat="49.35453" lon="3.34431">
        <ele>130</ele>
        <time>2015-01-18T08:22:01Z</time>
      </trkpt>
      <trkpt lat="49.35456" lon="3.34444">
        <ele>138</ele>
        <time>2015-01-18T08:22:05Z</time>
      </trkpt>
      <trkpt lat="49.35461" lon="3.34475">
        <ele>142</ele>
        <time>2015-01-18T08:22:12Z</time>
      </trkpt>
      <trkpt lat="49.35463" lon="3.34488">
        <ele>141</ele>
        <time>2015-01-18T08:22:15Z</time>
      </trkpt>
      <trkpt lat="49.35464" lon="3.34513">
        <ele>137</ele>
        <time>2015-01-18T08:22:20Z</time>
      </trkpt>
      <trkpt lat="49.35465" lon="3.34538">
        <ele>136</ele>
        <time>2015-01-18T08:22:25Z</time>
      </trkpt>
      <trkpt lat="49.3547" lon="3.34564">
        <ele>135</ele>
        <time>2015-01-18T08:22:30Z</time>
      </trkpt>
      <trkpt lat="49.35474" lon="3.34591">
        <ele>133</ele>
        <time>2015-01-18T08:22:35Z</time>
      </trkpt>
      <trkpt lat="49.35476" lon="3.34615">
        <ele>136</ele>
        <time>2015-01-18T08:22:40Z</time>
      </trkpt>
      <trkpt lat="49.35478" lon="3.34644">
        <ele>135</ele>
        <time>2015-01-18T08:22:45Z</time>
      </trkpt>
      <trkpt lat="49.35484" lon="3.34688">
        <ele>129</ele>
        <time>2015-01-18T08:22:53Z</time>
      </trkpt>
      <trkpt lat="49.35486" lon="3.34715">
        <ele>129</ele>
        <time>2015-01-18T08:22:58Z</time>
      </trkpt>
      <trkpt lat="49.35488" lon="3.34723">
        <ele>129</ele>
        <time>2015-01-18T08:23:00Z</time>
      </trkpt>
      <trkpt lat="49.35491" lon="3.34744">
        <ele>132</ele>
        <time>2015-01-18T08:23:05Z</time>
      </trkpt>
      <trkpt lat="49.35494" lon="3.34771">
        <ele>132</ele>
        <time>2015-01-18T08:23:10Z</time>
      </trkpt>
      <trkpt lat="49.35501" lon="3.34794">
        <ele>132</ele>
        <time>2015-01-18T08:23:15Z</time>
      </trkpt>
      <trkpt lat="49.35515" lon="3.3482">
        <ele>134</ele>
        <time>2015-01-18T08:23:22Z</time>
      </trkpt>
      <trkpt lat="49.35521" lon="3.3483">
        <ele>136</ele>
        <time>2015-01-18T08:23:25Z</time>
      </trkpt>
      <trkpt lat="49.35537" lon="3.34864">
        <ele>138</ele>
        <time>2015-01-18T08:23:34Z</time>
      </trkpt>
      <trkpt lat="49.35538" lon="3.34868">
        <ele>139</ele>
        <time>2015-01-18T08:23:35Z</time>
      </trkpt>
      <trkpt lat="49.35544" lon="3.34888">
        <ele>140</ele>
        <time>2015-01-18T08:23:40Z</time>
      </trkpt>
      <trkpt lat="49.35552" lon="3.34906">
        <ele>142</ele>
        <time>2015-01-18T08:23:45Z</time>
      </trkpt>
      <trkpt lat="49.35559" lon="3.34927">
        <ele>142</ele>
        <time>2015-01-18T08:23:50Z</time>
      </trkpt>
      <trkpt lat="49.35567" lon="3.34948">
        <ele>142</ele>
        <time>2015-01-18T08:23:55Z</time>
      </trkpt>
      <trkpt lat="49.35576" lon="3.34967">
        <ele>142</ele>
        <time>2015-01-18T08:24:00Z</time>
      </trkpt>
      <trkpt lat="49.35586" lon="3.34993">
        <ele>141</ele>
        <time>2015-01-18T08:24:06Z</time>
      </trkpt>
      <trkpt lat="49.35593" lon="3.35011">
        <ele>139</ele>
        <time>2015-01-18T08:24:10Z</time>
      </trkpt>
      <trkpt lat="49.35599" lon="3.3503">
        <ele>137</ele>
        <time>2015-01-18T08:24:15Z</time>
      </trkpt>
      <trkpt lat="49.35605" lon="3.3505">
        <ele>136</ele>
        <time>2015-01-18T08:24:20Z</time>
      </trkpt>
      <trkpt lat="49.35614" lon="3.35068">
        <ele>137</ele>
        <time>2015-01-18T08:24:25Z</time>
      </trkpt>
      <trkpt lat="49.35623" lon="3.35088">
        <ele>137</ele>
        <time>2015-01-18T08:24:30Z</time>
      </trkpt>
      <trkpt lat="49.35633" lon="3.35109">
        <ele>139</ele>
        <time>2015-01-18T08:24:35Z</time>
      </trkpt>
      <trkpt lat="49.35641" lon="3.3513">
        <ele>139</ele>
        <time>2015-01-18T08:24:40Z</time>
      </trkpt>
      <trkpt lat="49.35651" lon="3.35152">
        <ele>138</ele>
        <time>2015-01-18T08:24:45Z</time>
      </trkpt>
      <trkpt lat="49.3566" lon="3.35175">
        <ele>136</ele>
        <time>2015-01-18T08:24:50Z</time>
      </trkpt>
      <trkpt lat="49.35668" lon="3.35197">
        <ele>136</ele>
        <time>2015-01-18T08:24:55Z</time>
      </trkpt>
      <trkpt lat="49.35676" lon="3.35216">
        <ele>137</ele>
        <time>2015-01-18T08:25:00Z</time>
      </trkpt>
      <trkpt lat="49.35684" lon="3.35236">
        <ele>136</ele>
        <time>2015-01-18T08:25:05Z</time>
      </trkpt>
      <trkpt lat="49.35692" lon="3.35254">
        <ele>136</ele>
        <time>2015-01-18T08:25:10Z</time>
      </trkpt>
      <trkpt lat="49.357" lon="3.35273">
        <ele>137</ele>
        <time>2015-01-18T08:25:15Z</time>
      </trkpt>
      <trkpt lat="49.35709" lon="3.35296">
        <ele>138</ele>
        <time>2015-01-18T08:25:20Z</time>
      </trkpt>
      <trkpt lat="49.35719" lon="3.35317">
        <ele>136</ele>
        <time>2015-01-18T08:25:25Z</time>
      </trkpt>
      <trkpt lat="49.3573" lon="3.35338">
        <ele>136</ele>
        <time>2015-01-18T08:25:30Z</time>
      </trkpt>
      <trkpt lat="49.35741" lon="3.35361">
        <ele>135</ele>
        <time>2015-01-18T08:25:35Z</time>
      </trkpt>
      <trkpt lat="49.35754" lon="3.35356">
        <ele>135</ele>
        <time>2015-01-18T08:25:40Z</time>
      </trkpt>
      <trkpt lat="49.35759" lon="3.35336">
        <ele>136</ele>
        <time>2015-01-18T08:25:45Z</time>
      </trkpt>
      <trkpt lat="49.35755" lon="3.35312">
        <ele>137</ele>
        <time>2015-01-18T08:25:50Z</time>
      </trkpt>
      <trkpt lat="49.35747" lon="3.35302">
        <ele>140</ele>
        <time>2015-01-18T08:25:55Z</time>
      </trkpt>
      <trkpt lat="49.35732" lon="3.35283">
        <ele>136</ele>
        <time>2015-01-18T08:26:00Z</time>
      </trkpt>
      <trkpt lat="49.3571" lon="3.35254">
        <ele>135</ele>
        <time>2015-01-18T08:26:09Z</time>
      </trkpt>
      <trkpt lat="49.35708" lon="3.35251">
        <ele>134</ele>
        <time>2015-01-18T08:26:10Z</time>
      </trkpt>
      <trkpt lat="49.35704" lon="3.35204">
        <ele>130</ele>
        <time>2015-01-18T08:26:19Z</time>
      </trkpt>
      <trkpt lat="49.35706" lon="3.35197">
        <ele>129</ele>
        <time>2015-01-18T08:26:20Z</time>
      </trkpt>
      <trkpt lat="49.35702" lon="3.35163">
        <ele>123</ele>
        <time>2015-01-18T08:26:28Z</time>
      </trkpt>
      <trkpt lat="49.35704" lon="3.35155">
        <ele>123</ele>
        <time>2015-01-18T08:26:30Z</time>
      </trkpt>
      <trkpt lat="49.35727" lon="3.35132">
        <ele>125</ele>
        <time>2015-01-18T08:26:36Z</time>
      </trkpt>
      <trkpt lat="49.35725" lon="3.35107">
        <ele>121</ele>
        <time>2015-01-18T08:26:40Z</time>
      </trkpt>
      <trkpt lat="49.35725" lon="3.35074">
        <ele>125</ele>
        <time>2015-01-18T08:26:45Z</time>
      </trkpt>
      <trkpt lat="49.35723" lon="3.35026">
        <ele>122</ele>
        <time>2015-01-18T08:26:51Z</time>
      </trkpt>
      <trkpt lat="49.35721" lon="3.34991">
        <ele>122</ele>
        <time>2015-01-18T08:26:55Z</time>
      </trkpt>
      <trkpt lat="49.35738" lon="3.34946">
        <ele>116</ele>
        <time>2015-01-18T08:27:00Z</time>
      </trkpt>
      <trkpt lat="49.35767" lon="3.34904">
        <ele>107</ele>
        <time>2015-01-18T08:27:05Z</time>
      </trkpt>
      <trkpt lat="49.3578" lon="3.34829">
        <ele>98</ele>
        <time>2015-01-18T08:27:13Z</time>
      </trkpt>
      <trkpt lat="49.35769" lon="3.34783">
        <ele>89</ele>
        <time>2015-01-18T08:27:17Z</time>
      </trkpt>
      <trkpt lat="49.35767" lon="3.34748">
        <ele>89</ele>
        <time>2015-01-18T08:27:21Z</time>
      </trkpt>
      <trkpt lat="49.35753" lon="3.34723">
        <ele>89</ele>
        <time>2015-01-18T08:27:25Z</time>
      </trkpt>
      <trkpt lat="49.3573" lon="3.347">
        <ele>92</ele>
        <time>2015-01-18T08:27:30Z</time>
      </trkpt>
      <trkpt lat="49.35702" lon="3.3469">
        <ele>88</ele>
        <time>2015-01-18T08:27:35Z</time>
      </trkpt>
      <trkpt lat="49.35691" lon="3.34647">
        <ele>82</ele>
        <time>2015-01-18T08:27:40Z</time>
      </trkpt>
      <trkpt lat="49.35714" lon="3.3455">
        <ele>80</ele>
        <time>2015-01-18T08:27:49Z</time>
      </trkpt>
      <trkpt lat="49.35714" lon="3.3454">
        <ele>79</ele>
        <time>2015-01-18T08:27:50Z</time>
      </trkpt>
      <trkpt lat="49.35727" lon="3.34461">
        <ele>78</ele>
        <time>2015-01-18T08:27:59Z</time>
      </trkpt>
      <trkpt lat="49.35729" lon="3.34453">
        <ele>77</ele>
        <time>2015-01-18T08:28:00Z</time>
      </trkpt>
      <trkpt lat="49.35732" lon="3.34423">
        <ele>76</ele>
        <time>2015-01-18T08:28:05Z</time>
      </trkpt>
      <trkpt lat="49.35732" lon="3.34363">
        <ele>74</ele>
        <time>2015-01-18T08:28:14Z</time>
      </trkpt>
      <trkpt lat="49.35732" lon="3.34354">
        <ele>74</ele>
        <time>2015-01-18T08:28:15Z</time>
      </trkpt>
      <trkpt lat="49.35733" lon="3.34328">
        <ele>77</ele>
        <time>2015-01-18T08:28:20Z</time>
      </trkpt>
      <trkpt lat="49.3576" lon="3.34333">
        <ele>75</ele>
        <time>2015-01-18T08:28:29Z</time>
      </trkpt>
      <trkpt lat="49.35763" lon="3.34336">
        <ele>75</ele>
        <time>2015-01-18T08:28:30Z</time>
      </trkpt>
      <trkpt lat="49.35778" lon="3.34344">
        <ele>75</ele>
        <time>2015-01-18T08:28:35Z</time>
      </trkpt>
      <trkpt lat="49.35785" lon="3.34328">
        <ele>73</ele>
        <time>2015-01-18T08:28:40Z</time>
      </trkpt>
      <trkpt lat="49.35791" lon="3.34304">
        <ele>71</ele>
        <time>2015-01-18T08:28:45Z</time>
      </trkpt>
      <trkpt lat="49.358" lon="3.34279">
        <ele>69</ele>
        <time>2015-01-18T08:28:50Z</time>
      </trkpt>
      <trkpt lat="49.3581" lon="3.3425">
        <ele>68</ele>
        <time>2015-01-18T08:28:55Z</time>
      </trkpt>
      <trkpt lat="49.35822" lon="3.3422">
        <ele>69</ele>
        <time>2015-01-18T08:29:00Z</time>
      </trkpt>
      <trkpt lat="49.35829" lon="3.34191">
        <ele>70</ele>
        <time>2015-01-18T08:29:05Z</time>
      </trkpt>
      <trkpt lat="49.3582" lon="3.34166">
        <ele>71</ele>
        <time>2015-01-18T08:29:10Z</time>
      </trkpt>
      <trkpt lat="49.35827" lon="3.34137">
        <ele>68</ele>
        <time>2015-01-18T08:29:15Z</time>
      </trkpt>
      <trkpt lat="49.35832" lon="3.34103">
        <ele>70</ele>
        <time>2015-01-18T08:29:20Z</time>
      </trkpt>
      <trkpt lat="49.35843" lon="3.34057">
        <ele>67</ele>
        <time>2015-01-18T08:29:27Z</time>
      </trkpt>
      <trkpt lat="49.35848" lon="3.34039">
        <ele>68</ele>
        <time>2015-01-18T08:29:30Z</time>
      </trkpt>
      <trkpt lat="49.35851" lon="3.34009">
        <ele>68</ele>
        <time>2015-01-18T08:29:35Z</time>
      </trkpt>
      <trkpt lat="49.35862" lon="3.3398">
        <ele>67</ele>
        <time>2015-01-18T08:29:40Z</time>
      </trkpt>
      <trkpt lat="49.35873" lon="3.33951">
        <ele>65</ele>
        <time>2015-01-18T08:29:45Z</time>
      </trkpt>
      <trkpt lat="49.35881" lon="3.33925">
        <ele>66</ele>
        <time>2015-01-18T08:29:50Z</time>
      </trkpt>
      <trkpt lat="49.35893" lon="3.33911">
        <ele>68</ele>
        <time>2015-01-18T08:29:55Z</time>
      </trkpt>
      <trkpt lat="49.35901" lon="3.33915">
        <ele>68</ele>
        <time>2015-01-18T08:30:00Z</time>
      </trkpt>
      <trkpt lat="49.3591" lon="3.3393">
        <ele>69</ele>
        <time>2015-01-18T08:30:05Z</time>
      </trkpt>
      <trkpt lat="49.35918" lon="3.33947">
        <ele>70</ele>
        <time>2015-01-18T08:30:10Z</time>
      </trkpt>
      <trkpt lat="49.35926" lon="3.33966">
        <ele>69</ele>
        <time>2015-01-18T08:30:15Z</time>
      </trkpt>
      <trkpt lat="49.35937" lon="3.33979">
        <ele>69</ele>
        <time>2015-01-18T08:30:20Z</time>
      </trkpt>
      <trkpt lat="49.35951" lon="3.33983">
        <ele>68</ele>
        <time>2015-01-18T08:30:25Z</time>
      </trkpt>
      <trkpt lat="49.35965" lon="3.33983">
        <ele>68</ele>
        <time>2015-01-18T08:30:30Z</time>
      </trkpt>
      <trkpt lat="49.35978" lon="3.33977">
        <ele>70</ele>
        <time>2015-01-18T08:30:35Z</time>
      </trkpt>
      <trkpt lat="49.35991" lon="3.33978">
        <ele>73</ele>
        <time>2015-01-18T08:30:40Z</time>
      </trkpt>
      <trkpt lat="49.36011" lon="3.33984">
        <ele>73</ele>
        <time>2015-01-18T08:30:47Z</time>
      </trkpt>
      <trkpt lat="49.36019" lon="3.33984">
        <ele>73</ele>
        <time>2015-01-18T08:30:50Z</time>
      </trkpt>
      <trkpt lat="49.36033" lon="3.33997">
        <ele>71</ele>
        <time>2015-01-18T08:30:57Z</time>
      </trkpt>
      <trkpt lat="49.36033" lon="3.34011">
        <ele>70</ele>
        <time>2015-01-18T08:31:00Z</time>
      </trkpt>
      <trkpt lat="49.36033" lon="3.34034">
        <ele>71</ele>
        <time>2015-01-18T08:31:05Z</time>
      </trkpt>
      <trkpt lat="49.36034" lon="3.34052">
        <ele>74</ele>
        <time>2015-01-18T08:31:10Z</time>
      </trkpt>
      <trkpt lat="49.36034" lon="3.34062">
        <ele>77</ele>
        <time>2015-01-18T08:31:15Z</time>
      </trkpt>
      <trkpt lat="49.36035" lon="3.34063">
        <ele>77</ele>
        <time>2015-01-18T08:31:20Z</time>
      </trkpt>
      <trkpt lat="49.36039" lon="3.34074">
        <ele>78</ele>
        <time>2015-01-18T08:31:25Z</time>
      </trkpt>
      <trkpt lat="49.36054" lon="3.34086">
        <ele>79</ele>
        <time>2015-01-18T08:31:30Z</time>
      </trkpt>
      <trkpt lat="49.36073" lon="3.34102">
        <ele>75</ele>
        <time>2015-01-18T08:31:35Z</time>
      </trkpt>
      <trkpt lat="49.36091" lon="3.34118">
        <ele>77</ele>
        <time>2015-01-18T08:31:41Z</time>
      </trkpt>
      <trkpt lat="49.36086" lon="3.34141">
        <ele>78</ele>
        <time>2015-01-18T08:31:47Z</time>
      </trkpt>
      <trkpt lat="49.3608" lon="3.34155">
        <ele>82</ele>
        <time>2015-01-18T08:31:52Z</time>
      </trkpt>
      <trkpt lat="49.36074" lon="3.34178">
        <ele>84</ele>
        <time>2015-01-18T08:31:59Z</time>
      </trkpt>
      <trkpt lat="49.36073" lon="3.34182">
        <ele>83</ele>
        <time>2015-01-18T08:32:00Z</time>
      </trkpt>
      <trkpt lat="49.3607" lon="3.34201">
        <ele>84</ele>
        <time>2015-01-18T08:32:05Z</time>
      </trkpt>
      <trkpt lat="49.36066" lon="3.34238">
        <ele>86</ele>
        <time>2015-01-18T08:32:13Z</time>
      </trkpt>
      <trkpt lat="49.36064" lon="3.34264">
        <ele>86</ele>
        <time>2015-01-18T08:32:19Z</time>
      </trkpt>
      <trkpt lat="49.36063" lon="3.34276">
        <ele>83</ele>
        <time>2015-01-18T08:32:22Z</time>
      </trkpt>
      <trkpt lat="49.36065" lon="3.34289">
        <ele>83</ele>
        <time>2015-01-18T08:32:27Z</time>
      </trkpt>
      <trkpt lat="49.36066" lon="3.34294">
        <ele>85</ele>
        <time>2015-01-18T08:32:30Z</time>
      </trkpt>
      <trkpt lat="49.36067" lon="3.34302">
        <ele>84</ele>
        <time>2015-01-18T08:32:35Z</time>
      </trkpt>
      <trkpt lat="49.36068" lon="3.34307">
        <ele>92</ele>
        <time>2015-01-18T08:32:41Z</time>
      </trkpt>
      <trkpt lat="49.36071" lon="3.34326">
        <ele>85</ele>
        <time>2015-01-18T08:32:47Z</time>
      </trkpt>
      <trkpt lat="49.36075" lon="3.3433">
        <ele>91</ele>
        <time>2015-01-18T08:32:52Z</time>
      </trkpt>
      <trkpt lat="49.36078" lon="3.34332">
        <ele>90</ele>
        <time>2015-01-18T08:32:55Z</time>
      </trkpt>
      <trkpt lat="49.36085" lon="3.34333">
        <ele>87</ele>
        <time>2015-01-18T08:33:00Z</time>
      </trkpt>
      <trkpt lat="49.36094" lon="3.34336">
        <ele>90</ele>
        <time>2015-01-18T08:33:06Z</time>
      </trkpt>
      <trkpt lat="49.36102" lon="3.34344">
        <ele>93</ele>
        <time>2015-01-18T08:33:10Z</time>
      </trkpt>
      <trkpt lat="49.36131" lon="3.34397">
        <ele>86</ele>
        <time>2015-01-18T08:33:19Z</time>
      </trkpt>
      <trkpt lat="49.36131" lon="3.34405">
        <ele>86</ele>
        <time>2015-01-18T08:33:20Z</time>
      </trkpt>
      <trkpt lat="49.36131" lon="3.34433">
        <ele>86</ele>
        <time>2015-01-18T08:33:25Z</time>
      </trkpt>
      <trkpt lat="49.36127" lon="3.34455">
        <ele>80</ele>
        <time>2015-01-18T08:33:30Z</time>
      </trkpt>
      <trkpt lat="49.36134" lon="3.3447">
        <ele>85</ele>
        <time>2015-01-18T08:33:36Z</time>
      </trkpt>
      <trkpt lat="49.36136" lon="3.34479">
        <ele>91</ele>
        <time>2015-01-18T08:33:40Z</time>
      </trkpt>
      <trkpt lat="49.36139" lon="3.34489">
        <ele>97</ele>
        <time>2015-01-18T08:33:45Z</time>
      </trkpt>
      <trkpt lat="49.36145" lon="3.34512">
        <ele>89</ele>
        <time>2015-01-18T08:33:54Z</time>
      </trkpt>
      <trkpt lat="49.36147" lon="3.34516">
        <ele>92</ele>
        <time>2015-01-18T08:33:57Z</time>
      </trkpt>
      <trkpt lat="49.36148" lon="3.3452">
        <ele>93</ele>
        <time>2015-01-18T08:34:00Z</time>
      </trkpt>
      <trkpt lat="49.36155" lon="3.34536">
        <ele>97</ele>
        <time>2015-01-18T08:34:09Z</time>
      </trkpt>
      <trkpt lat="49.36156" lon="3.34536">
        <ele>98</ele>
        <time>2015-01-18T08:34:10Z</time>
      </trkpt>
      <trkpt lat="49.36157" lon="3.34545">
        <ele>102</ele>
        <time>2015-01-18T08:34:15Z</time>
      </trkpt>
      <trkpt lat="49.36158" lon="3.34556">
        <ele>104</ele>
        <time>2015-01-18T08:34:22Z</time>
      </trkpt>
      <trkpt lat="49.36168" lon="3.34567">
        <ele>100</ele>
        <time>2015-01-18T08:34:28Z</time>
      </trkpt>
      <trkpt lat="49.36176" lon="3.34585">
        <ele>99</ele>
        <time>2015-01-18T08:34:33Z</time>
      </trkpt>
      <trkpt lat="49.36187" lon="3.3459">
        <ele>102</ele>
        <time>2015-01-18T08:34:35Z</time>
      </trkpt>
      <trkpt lat="49.36205" lon="3.34647">
        <ele>100</ele>
        <time>2015-01-18T08:34:43Z</time>
      </trkpt>
      <trkpt lat="49.36211" lon="3.34666">
        <ele>97</ele>
        <time>2015-01-18T08:34:46Z</time>
      </trkpt>
      <trkpt lat="49.36222" lon="3.34697">
        <ele>91</ele>
        <time>2015-01-18T08:34:54Z</time>
      </trkpt>
      <trkpt lat="49.36222" lon="3.34705">
        <ele>91</ele>
        <time>2015-01-18T08:34:56Z</time>
      </trkpt>
      <trkpt lat="49.36231" lon="3.3473">
        <ele>92</ele>
        <time>2015-01-18T08:35:04Z</time>
      </trkpt>
      <trkpt lat="49.36238" lon="3.34749">
        <ele>94</ele>
        <time>2015-01-18T08:35:09Z</time>
      </trkpt>
      <trkpt lat="49.36241" lon="3.34764">
        <ele>94</ele>
        <time>2015-01-18T08:35:13Z</time>
      </trkpt>
      <trkpt lat="49.36244" lon="3.34772">
        <ele>94</ele>
        <time>2015-01-18T08:35:15Z</time>
      </trkpt>
      <trkpt lat="49.36249" lon="3.34791">
        <ele>94</ele>
        <time>2015-01-18T08:35:20Z</time>
      </trkpt>
      <trkpt lat="49.36254" lon="3.34811">
        <ele>94</ele>
        <time>2015-01-18T08:35:25Z</time>
      </trkpt>
      <trkpt lat="49.36262" lon="3.34841">
        <ele>90</ele>
        <time>2015-01-18T08:35:33Z</time>
      </trkpt>
      <trkpt lat="49.3626" lon="3.34848">
        <ele>88</ele>
        <time>2015-01-18T08:35:35Z</time>
      </trkpt>
      <trkpt lat="49.36254" lon="3.34861">
        <ele>91</ele>
        <time>2015-01-18T08:35:41Z</time>
      </trkpt>
      <trkpt lat="49.36253" lon="3.34859">
        <ele>96</ele>
        <time>2015-01-18T08:35:49Z</time>
      </trkpt>
      <trkpt lat="49.36253" lon="3.34858">
        <ele>96</ele>
        <time>2015-01-18T08:35:50Z</time>
      </trkpt>
      <trkpt lat="49.36251" lon="3.34857">
        <ele>95</ele>
        <time>2015-01-18T08:35:57Z</time>
      </trkpt>
      <trkpt lat="49.36251" lon="3.34857">
        <ele>95</ele>
        <time>2015-01-18T08:36:00Z</time>
      </trkpt>
      <trkpt lat="49.36251" lon="3.34856">
        <ele>96</ele>
        <time>2015-01-18T08:36:08Z</time>
      </trkpt>
      <trkpt lat="49.36255" lon="3.34854">
        <ele>95</ele>
        <time>2015-01-18T08:36:14Z</time>
      </trkpt>
      <trkpt lat="49.36256" lon="3.34852">
        <ele>96</ele>
        <time>2015-01-18T08:36:15Z</time>
      </trkpt>
      <trkpt lat="49.36258" lon="3.34843">
        <ele>92</ele>
        <time>2015-01-18T08:36:20Z</time>
      </trkpt>
      <trkpt lat="49.36259" lon="3.34843">
        <ele>93</ele>
        <time>2015-01-18T08:36:29Z</time>
      </trkpt>
      <trkpt lat="49.3626" lon="3.34842">
        <ele>93</ele>
        <time>2015-01-18T08:36:34Z</time>
      </trkpt>
      <trkpt lat="49.3626" lon="3.34842">
        <ele>92</ele>
        <time>2015-01-18T08:36:35Z</time>
      </trkpt>
      <trkpt lat="49.3626" lon="3.34843">
        <ele>93</ele>
        <time>2015-01-18T08:36:41Z</time>
      </trkpt>
      <trkpt lat="49.3626" lon="3.34843">
        <ele>93</ele>
        <time>2015-01-18T08:36:45Z</time>
      </trkpt>
      <trkpt lat="49.36261" lon="3.34843">
        <ele>93</ele>
        <time>2015-01-18T08:36:50Z</time>
      </trkpt>
      <trkpt lat="49.3626" lon="3.34843">
        <ele>93</ele>
        <time>2015-01-18T08:36:55Z</time>
      </trkpt>
      <trkpt lat="49.36262" lon="3.34842">
        <ele>92</ele>
        <time>2015-01-18T08:37:00Z</time>
      </trkpt>
      <trkpt lat="49.3626" lon="3.34842">
        <ele>89</ele>
        <time>2015-01-18T08:37:06Z</time>
      </trkpt>
      <trkpt lat="49.36259" lon="3.34843">
        <ele>89</ele>
        <time>2015-01-18T08:37:10Z</time>
      </trkpt>
      <trkpt lat="49.36259" lon="3.34842">
        <ele>89</ele>
        <time>2015-01-18T08:37:19Z</time>
      </trkpt>
      <trkpt lat="49.3626" lon="3.34842">
        <ele>89</ele>
        <time>2015-01-18T08:37:20Z</time>
      </trkpt>
      <trkpt lat="49.3626" lon="3.34842">
        <ele>89</ele>
        <time>2015-01-18T08:37:25Z</time>
      </trkpt>
      <trkpt lat="49.3626" lon="3.34842">
        <ele>89</ele>
        <time>2015-01-18T08:37:30Z</time>
      </trkpt>
      <trkpt lat="49.36258" lon="3.34843">
        <ele>88</ele>
        <time>2015-01-18T08:37:39Z</time>
      </trkpt>
      <trkpt lat="49.36258" lon="3.34843">
        <ele>88</ele>
        <time>2015-01-18T08:37:41Z</time>
      </trkpt>
      <trkpt lat="49.36257" lon="3.34844">
        <ele>88</ele>
        <time>2015-01-18T08:37:45Z</time>
      </trkpt>
      <trkpt lat="49.36258" lon="3.34844">
        <ele>87</ele>
        <time>2015-01-18T08:37:50Z</time>
      </trkpt>
      <trkpt lat="49.36259" lon="3.34842">
        <ele>86</ele>
        <time>2015-01-18T08:37:55Z</time>
      </trkpt>
      <trkpt lat="49.36258" lon="3.34842">
        <ele>86</ele>
        <time>2015-01-18T08:38:00Z</time>
      </trkpt>
      <trkpt lat="49.36256" lon="3.34841">
        <ele>87</ele>
        <time>2015-01-18T08:38:05Z</time>
      </trkpt>
      <trkpt lat="49.36255" lon="3.34836">
        <ele>91</ele>
        <time>2015-01-18T08:38:11Z</time>
      </trkpt>
      <trkpt lat="49.36256" lon="3.34832">
        <ele>96</ele>
        <time>2015-01-18T08:38:19Z</time>
      </trkpt>
      <trkpt lat="49.36255" lon="3.34831">
        <ele>96</ele>
        <time>2015-01-18T08:38:20Z</time>
      </trkpt>
      <trkpt lat="49.36252" lon="3.34828">
        <ele>96</ele>
        <time>2015-01-18T08:38:28Z</time>
      </trkpt>
      <trkpt lat="49.36252" lon="3.34828">
        <ele>96</ele>
        <time>2015-01-18T08:38:30Z</time>
      </trkpt>
      <trkpt lat="49.36252" lon="3.34827">
        <ele>96</ele>
        <time>2015-01-18T08:38:35Z</time>
      </trkpt>
      <trkpt lat="49.36252" lon="3.34824">
        <ele>97</ele>
        <time>2015-01-18T08:38:40Z</time>
      </trkpt>
      <trkpt lat="49.36253" lon="3.34824">
        <ele>95</ele>
        <time>2015-01-18T08:38:45Z</time>
      </trkpt>
      <trkpt lat="49.36253" lon="3.34825">
        <ele>96</ele>
        <time>2015-01-18T08:38:50Z</time>
      </trkpt>
      <trkpt lat="49.36253" lon="3.34825">
        <ele>96</ele>
        <time>2015-01-18T08:38:55Z</time>
      </trkpt>
      <trkpt lat="49.36253" lon="3.34825">
        <ele>96</ele>
        <time>2015-01-18T08:39:00Z</time>
      </trkpt>
      <trkpt lat="49.36253" lon="3.34825">
        <ele>96</ele>
        <time>2015-01-18T08:39:05Z</time>
      </trkpt>
      <trkpt lat="49.36253" lon="3.34825">
        <ele>96</ele>
        <time>2015-01-18T08:39:10Z</time>
      </trkpt>
      <trkpt lat="49.36253" lon="3.34825">
        <ele>96</ele>
        <time>2015-01-18T08:39:18Z</time>
      </trkpt>
      <trkpt lat="49.36253" lon="3.34825">
        <ele>96</ele>
        <time>2015-01-18T08:39:20Z</time>
      </trkpt>
      <trkpt lat="49.36253" lon="3.34825">
        <ele>96</ele>
        <time>2015-01-18T08:39:25Z</time>
      </trkpt>
      <trkpt lat="49.36253" lon="3.34825">
        <ele>96</ele>
        <time>2015-01-18T08:39:30Z</time>
      </trkpt>
      <trkpt lat="49.36253" lon="3.34824">
        <ele>97</ele>
        <time>2015-01-18T08:39:39Z</time>
      </trkpt>
      <trkpt lat="49.36253" lon="3.34824">
        <ele>97</ele>
        <time>2015-01-18T08:39:40Z</time>
      </trkpt>
      <trkpt lat="49.36253" lon="3.34824">
        <ele>97</ele>
        <time>2015-01-18T08:39:46Z</time>
      </trkpt>
      <trkpt lat="49.36253" lon="3.34824">
        <ele>97</ele>
        <time>2015-01-18T08:39:50Z</time>
      </trkpt>
      <trkpt lat="49.36253" lon="3.34825">
        <ele>98</ele>
        <time>2015-01-18T08:39:56Z</time>
      </trkpt>
      <trkpt lat="49.36252" lon="3.3482">
        <ele>98</ele>
        <time>2015-01-18T08:40:04Z</time>
      </trkpt>
      <trkpt lat="49.36252" lon="3.34819">
        <ele>98</ele>
        <time>2015-01-18T08:40:05Z</time>
      </trkpt>
      <trkpt lat="49.36252" lon="3.34818">
        <ele>99</ele>
        <time>2015-01-18T08:40:14Z</time>
      </trkpt>
      <trkpt lat="49.36252" lon="3.34818">
        <ele>99</ele>
        <time>2015-01-18T08:40:17Z</time>
      </trkpt>
      <trkpt lat="49.36252" lon="3.34817">
        <ele>99</ele>
        <time>2015-01-18T08:40:20Z</time>
      </trkpt>
      <trkpt lat="49.36254" lon="3.34819">
        <ele>96</ele>
        <time>2015-01-18T08:40:28Z</time>
      </trkpt>
      <trkpt lat="49.36254" lon="3.34819">
        <ele>95</ele>
        <time>2015-01-18T08:40:30Z</time>
      </trkpt>
      <trkpt lat="49.36254" lon="3.34819">
        <ele>96</ele>
        <time>2015-01-18T08:40:35Z</time>
      </trkpt>
      <trkpt lat="49.36254" lon="3.3482">
        <ele>96</ele>
        <time>2015-01-18T08:40:40Z</time>
      </trkpt>
      <trkpt lat="49.3625" lon="3.34807">
        <ele>97</ele>
        <time>2015-01-18T08:40:45Z</time>
      </trkpt>
      <trkpt lat="49.36243" lon="3.34792">
        <ele>95</ele>
        <time>2015-01-18T08:40:50Z</time>
      </trkpt>
      <trkpt lat="49.36244" lon="3.34794">
        <ele>94</ele>
        <time>2015-01-18T08:40:57Z</time>
      </trkpt>
      <trkpt lat="49.36246" lon="3.34798">
        <ele>94</ele>
        <time>2015-01-18T08:41:01Z</time>
      </trkpt>
      <trkpt lat="49.36243" lon="3.34805">
        <ele>94</ele>
        <time>2015-01-18T08:41:09Z</time>
      </trkpt>
      <trkpt lat="49.36244" lon="3.34806">
        <ele>95</ele>
        <time>2015-01-18T08:41:13Z</time>
      </trkpt>
      <trkpt lat="49.36244" lon="3.34806">
        <ele>95</ele>
        <time>2015-01-18T08:41:18Z</time>
      </trkpt>
      <trkpt lat="49.36244" lon="3.34806">
        <ele>95</ele>
        <time>2015-01-18T08:41:20Z</time>
      </trkpt>
      <trkpt lat="49.36244" lon="3.34806">
        <ele>95</ele>
        <time>2015-01-18T08:41:25Z</time>
      </trkpt>
      <trkpt lat="49.36244" lon="3.34806">
        <ele>95</ele>
        <time>2015-01-18T08:41:30Z</time>
      </trkpt>
      <trkpt lat="49.36244" lon="3.34806">
        <ele>95</ele>
        <time>2015-01-18T08:41:35Z</time>
      </trkpt>
      <trkpt lat="49.36244" lon="3.34806">
        <ele>95</ele>
        <time>2015-01-18T08:41:40Z</time>
      </trkpt>
      <trkpt lat="49.36244" lon="3.34807">
        <ele>95</ele>
        <time>2015-01-18T08:41:45Z</time>
      </trkpt>
      <trkpt lat="49.36244" lon="3.34807">
        <ele>96</ele>
        <time>2015-01-18T08:41:53Z</time>
      </trkpt>
      <trkpt lat="49.36244" lon="3.34807">
        <ele>96</ele>
        <time>2015-01-18T08:41:57Z</time>
      </trkpt>
      <trkpt lat="49.36244" lon="3.34807">
        <ele>96</ele>
        <time>2015-01-18T08:42:00Z</time>
      </trkpt>
      <trkpt lat="49.36244" lon="3.34807">
        <ele>96</ele>
        <time>2015-01-18T08:42:05Z</time>
      </trkpt>
      <trkpt lat="49.36247" lon="3.3481">
        <ele>97</ele>
        <time>2015-01-18T08:42:11Z</time>
      </trkpt>
      <trkpt lat="49.36249" lon="3.3481">
        <ele>99</ele>
        <time>2015-01-18T08:42:18Z</time>
      </trkpt>
      <trkpt lat="49.36248" lon="3.34811">
        <ele>105</ele>
        <time>2015-01-18T08:42:24Z</time>
      </trkpt>
      <trkpt lat="49.36248" lon="3.34811">
        <ele>105</ele>
        <time>2015-01-18T08:42:25Z</time>
      </trkpt>
      <trkpt lat="49.36248" lon="3.34815">
        <ele>104</ele>
        <time>2015-01-18T08:42:30Z</time>
      </trkpt>
      <trkpt lat="49.36249" lon="3.34817">
        <ele>101</ele>
        <time>2015-01-18T08:42:35Z</time>
      </trkpt>
      <trkpt lat="49.3625" lon="3.34819">
        <ele>101</ele>
        <time>2015-01-18T08:42:44Z</time>
      </trkpt>
      <trkpt lat="49.3625" lon="3.34819">
        <ele>100</ele>
        <time>2015-01-18T08:42:45Z</time>
      </trkpt>
      <trkpt lat="49.36249" lon="3.34821">
        <ele>101</ele>
        <time>2015-01-18T08:42:53Z</time>
      </trkpt>
      <trkpt lat="49.36249" lon="3.34821">
        <ele>101</ele>
        <time>2015-01-18T08:42:58Z</time>
      </trkpt>
      <trkpt lat="49.36249" lon="3.34821">
        <ele>101</ele>
        <time>2015-01-18T08:43:00Z</time>
      </trkpt>
      <trkpt lat="49.3625" lon="3.34821">
        <ele>101</ele>
        <time>2015-01-18T08:43:05Z</time>
      </trkpt>
      <trkpt lat="49.3625" lon="3.3483">
        <ele>100</ele>
        <time>2015-01-18T08:43:10Z</time>
      </trkpt>
      <trkpt lat="49.36253" lon="3.34841">
        <ele>99</ele>
        <time>2015-01-18T08:43:15Z</time>
      </trkpt>
      <trkpt lat="49.3625" lon="3.34856">
        <ele>99</ele>
        <time>2015-01-18T08:43:20Z</time>
      </trkpt>
      <trkpt lat="49.36244" lon="3.34866">
        <ele>101</ele>
        <time>2015-01-18T08:43:25Z</time>
      </trkpt>
      <trkpt lat="49.3624" lon="3.34878">
        <ele>100</ele>
        <time>2015-01-18T08:43:30Z</time>
      </trkpt>
      <trkpt lat="49.36237" lon="3.34908">
        <ele>98</ele>
        <time>2015-01-18T08:43:39Z</time>
      </trkpt>
      <trkpt lat="49.36236" lon="3.34909">
        <ele>98</ele>
        <time>2015-01-18T08:43:40Z</time>
      </trkpt>
      <trkpt lat="49.36238" lon="3.34923">
        <ele>98</ele>
        <time>2015-01-18T08:43:45Z</time>
      </trkpt>
      <trkpt lat="49.36242" lon="3.34936">
        <ele>100</ele>
        <time>2015-01-18T08:43:50Z</time>
      </trkpt>
      <trkpt lat="49.36246" lon="3.34948">
        <ele>96</ele>
        <time>2015-01-18T08:43:55Z</time>
      </trkpt>
      <trkpt lat="49.36262" lon="3.34961">
        <ele>102</ele>
        <time>2015-01-18T08:44:04Z</time>
      </trkpt>
      <trkpt lat="49.3627" lon="3.34969">
        <ele>104</ele>
        <time>2015-01-18T08:44:09Z</time>
      </trkpt>
      <trkpt lat="49.36271" lon="3.34971">
        <ele>104</ele>
        <time>2015-01-18T08:44:10Z</time>
      </trkpt>
      <trkpt lat="49.3628" lon="3.34979">
        <ele>104</ele>
        <time>2015-01-18T08:44:15Z</time>
      </trkpt>
      <trkpt lat="49.3629" lon="3.34986">
        <ele>106</ele>
        <time>2015-01-18T08:44:22Z</time>
      </trkpt>
      <trkpt lat="49.36293" lon="3.34989">
        <ele>106</ele>
        <time>2015-01-18T08:44:25Z</time>
      </trkpt>
      <trkpt lat="49.36308" lon="3.35004">
        <ele>105</ele>
        <time>2015-01-18T08:44:34Z</time>
      </trkpt>
      <trkpt lat="49.36313" lon="3.35009">
        <ele>107</ele>
        <time>2015-01-18T08:44:38Z</time>
      </trkpt>
      <trkpt lat="49.3632" lon="3.35017">
        <ele>109</ele>
        <time>2015-01-18T08:44:44Z</time>
      </trkpt>
      <trkpt lat="49.36322" lon="3.3502">
        <ele>109</ele>
        <time>2015-01-18T08:44:46Z</time>
      </trkpt>
      <trkpt lat="49.36326" lon="3.35025">
        <ele>111</ele>
        <time>2015-01-18T08:44:50Z</time>
      </trkpt>
      <trkpt lat="49.36333" lon="3.35032">
        <ele>114</ele>
        <time>2015-01-18T08:44:55Z</time>
      </trkpt>
      <trkpt lat="49.36338" lon="3.35039">
        <ele>115</ele>
        <time>2015-01-18T08:45:00Z</time>
      </trkpt>
      <trkpt lat="49.36342" lon="3.35048">
        <ele>114</ele>
        <time>2015-01-18T08:45:05Z</time>
      </trkpt>
      <trkpt lat="49.36345" lon="3.35058">
        <ele>115</ele>
        <time>2015-01-18T08:45:10Z</time>
      </trkpt>
      <trkpt lat="49.36349" lon="3.3507">
        <ele>117</ele>
        <time>2015-01-18T08:45:15Z</time>
      </trkpt>
      <trkpt lat="49.36354" lon="3.3508">
        <ele>118</ele>
        <time>2015-01-18T08:45:20Z</time>
      </trkpt>
      <trkpt lat="49.36355" lon="3.35092">
        <ele>119</ele>
        <time>2015-01-18T08:45:25Z</time>
      </trkpt>
      <trkpt lat="49.36359" lon="3.35101">
        <ele>120</ele>
        <time>2015-01-18T08:45:30Z</time>
      </trkpt>
      <trkpt lat="49.36365" lon="3.35111">
        <ele>121</ele>
        <time>2015-01-18T08:45:35Z</time>
      </trkpt>
      <trkpt lat="49.36369" lon="3.35123">
        <ele>122</ele>
        <time>2015-01-18T08:45:41Z</time>
      </trkpt>
      <trkpt lat="49.36371" lon="3.35131">
        <ele>121</ele>
        <time>2015-01-18T08:45:45Z</time>
      </trkpt>
      <trkpt lat="49.36376" lon="3.35139">
        <ele>124</ele>
        <time>2015-01-18T08:45:50Z</time>
      </trkpt>
      <trkpt lat="49.36381" lon="3.35149">
        <ele>125</ele>
        <time>2015-01-18T08:45:55Z</time>
      </trkpt>
      <trkpt lat="49.36383" lon="3.3516">
        <ele>126</ele>
        <time>2015-01-18T08:46:00Z</time>
      </trkpt>
      <trkpt lat="49.36384" lon="3.35172">
        <ele>126</ele>
        <time>2015-01-18T08:46:05Z</time>
      </trkpt>
      <trkpt lat="49.36384" lon="3.35185">
        <ele>127</ele>
        <time>2015-01-18T08:46:10Z</time>
      </trkpt>
      <trkpt lat="49.36381" lon="3.35196">
        <ele>129</ele>
        <time>2015-01-18T08:46:15Z</time>
      </trkpt>
      <trkpt lat="49.36378" lon="3.35208">
        <ele>129</ele>
        <time>2015-01-18T08:46:20Z</time>
      </trkpt>
      <trkpt lat="49.36375" lon="3.35222">
        <ele>129</ele>
        <time>2015-01-18T08:46:25Z</time>
      </trkpt>
      <trkpt lat="49.36372" lon="3.35235">
        <ele>130</ele>
        <time>2015-01-18T08:46:30Z</time>
      </trkpt>
      <trkpt lat="49.36369" lon="3.35248">
        <ele>130</ele>
        <time>2015-01-18T08:46:35Z</time>
      </trkpt>
      <trkpt lat="49.36364" lon="3.35259">
        <ele>130</ele>
        <time>2015-01-18T08:46:40Z</time>
      </trkpt>
      <trkpt lat="49.36361" lon="3.35268">
        <ele>131</ele>
        <time>2015-01-18T08:46:45Z</time>
      </trkpt>
      <trkpt lat="49.36356" lon="3.35281">
        <ele>133</ele>
        <time>2015-01-18T08:46:51Z</time>
      </trkpt>
      <trkpt lat="49.36352" lon="3.35289">
        <ele>133</ele>
        <time>2015-01-18T08:46:55Z</time>
      </trkpt>
      <trkpt lat="49.36349" lon="3.35299">
        <ele>130</ele>
        <time>2015-01-18T08:47:00Z</time>
      </trkpt>
      <trkpt lat="49.36344" lon="3.3531">
        <ele>131</ele>
        <time>2015-01-18T08:47:05Z</time>
      </trkpt>
      <trkpt lat="49.36341" lon="3.35325">
        <ele>132</ele>
        <time>2015-01-18T08:47:10Z</time>
      </trkpt>
      <trkpt lat="49.36337" lon="3.35342">
        <ele>132</ele>
        <time>2015-01-18T08:47:15Z</time>
      </trkpt>
      <trkpt lat="49.36333" lon="3.35361">
        <ele>134</ele>
        <time>2015-01-18T08:47:20Z</time>
      </trkpt>
      <trkpt lat="49.36329" lon="3.3538">
        <ele>134</ele>
        <time>2015-01-18T08:47:25Z</time>
      </trkpt>
      <trkpt lat="49.36323" lon="3.35402">
        <ele>134</ele>
        <time>2015-01-18T08:47:30Z</time>
      </trkpt>
      <trkpt lat="49.36318" lon="3.35426">
        <ele>133</ele>
        <time>2015-01-18T08:47:35Z</time>
      </trkpt>
      <trkpt lat="49.36313" lon="3.35449">
        <ele>134</ele>
        <time>2015-01-18T08:47:40Z</time>
      </trkpt>
      <trkpt lat="49.36309" lon="3.35472">
        <ele>134</ele>
        <time>2015-01-18T08:47:45Z</time>
      </trkpt>
      <trkpt lat="49.36303" lon="3.35496">
        <ele>134</ele>
        <time>2015-01-18T08:47:50Z</time>
      </trkpt>
      <trkpt lat="49.36298" lon="3.35518">
        <ele>135</ele>
        <time>2015-01-18T08:47:55Z</time>
      </trkpt>
      <trkpt lat="49.36293" lon="3.3554">
        <ele>136</ele>
        <time>2015-01-18T08:48:00Z</time>
      </trkpt>
      <trkpt lat="49.36288" lon="3.35562">
        <ele>135</ele>
        <time>2015-01-18T08:48:05Z</time>
      </trkpt>
      <trkpt lat="49.36283" lon="3.35586">
        <ele>135</ele>
        <time>2015-01-18T08:48:10Z</time>
      </trkpt>
      <trkpt lat="49.36278" lon="3.35607">
        <ele>135</ele>
        <time>2015-01-18T08:48:15Z</time>
      </trkpt>
      <trkpt lat="49.36274" lon="3.35632">
        <ele>133</ele>
        <time>2015-01-18T08:48:20Z</time>
      </trkpt>
      <trkpt lat="49.36267" lon="3.35655">
        <ele>134</ele>
        <time>2015-01-18T08:48:25Z</time>
      </trkpt>
      <trkpt lat="49.36262" lon="3.35679">
        <ele>134</ele>
        <time>2015-01-18T08:48:30Z</time>
      </trkpt>
      <trkpt lat="49.36257" lon="3.35706">
        <ele>133</ele>
        <time>2015-01-18T08:48:35Z</time>
      </trkpt>
      <trkpt lat="49.3625" lon="3.35736">
        <ele>134</ele>
        <time>2015-01-18T08:48:40Z</time>
      </trkpt>
      <trkpt lat="49.36244" lon="3.35766">
        <ele>134</ele>
        <time>2015-01-18T08:48:45Z</time>
      </trkpt>
      <trkpt lat="49.36238" lon="3.35795">
        <ele>133</ele>
        <time>2015-01-18T08:48:50Z</time>
      </trkpt>
      <trkpt lat="49.36231" lon="3.35823">
        <ele>134</ele>
        <time>2015-01-18T08:48:55Z</time>
      </trkpt>
      <trkpt lat="49.36224" lon="3.35852">
        <ele>134</ele>
        <time>2015-01-18T08:49:00Z</time>
      </trkpt>
      <trkpt lat="49.36217" lon="3.3588">
        <ele>134</ele>
        <time>2015-01-18T08:49:05Z</time>
      </trkpt>
      <trkpt lat="49.3621" lon="3.35908">
        <ele>133</ele>
        <time>2015-01-18T08:49:10Z</time>
      </trkpt>
      <trkpt lat="49.36203" lon="3.35935">
        <ele>133</ele>
        <time>2015-01-18T08:49:15Z</time>
      </trkpt>
      <trkpt lat="49.36197" lon="3.35959">
        <ele>133</ele>
        <time>2015-01-18T08:49:20Z</time>
      </trkpt>
      <trkpt lat="49.36193" lon="3.35987">
        <ele>133</ele>
        <time>2015-01-18T08:49:25Z</time>
      </trkpt>
      <trkpt lat="49.36192" lon="3.36018">
        <ele>132</ele>
        <time>2015-01-18T08:49:30Z</time>
      </trkpt>
      <trkpt lat="49.36194" lon="3.36047">
        <ele>131</ele>
        <time>2015-01-18T08:49:35Z</time>
      </trkpt>
      <trkpt lat="49.36194" lon="3.36074">
        <ele>133</ele>
        <time>2015-01-18T08:49:40Z</time>
      </trkpt>
      <trkpt lat="49.3619" lon="3.36101">
        <ele>135</ele>
        <time>2015-01-18T08:49:45Z</time>
      </trkpt>
      <trkpt lat="49.36189" lon="3.36129">
        <ele>136</ele>
        <time>2015-01-18T08:49:50Z</time>
      </trkpt>
      <trkpt lat="49.36183" lon="3.36154">
        <ele>138</ele>
        <time>2015-01-18T08:49:55Z</time>
      </trkpt>
      <trkpt lat="49.36175" lon="3.36178">
        <ele>137</ele>
        <time>2015-01-18T08:50:00Z</time>
      </trkpt>
      <trkpt lat="49.36163" lon="3.36201">
        <ele>137</ele>
        <time>2015-01-18T08:50:05Z</time>
      </trkpt>
      <trkpt lat="49.3615" lon="3.36222">
        <ele>137</ele>
        <time>2015-01-18T08:50:10Z</time>
      </trkpt>
      <trkpt lat="49.36135" lon="3.36243">
        <ele>137</ele>
        <time>2015-01-18T08:50:15Z</time>
      </trkpt>
      <trkpt lat="49.36119" lon="3.36262">
        <ele>137</ele>
        <time>2015-01-18T08:50:20Z</time>
      </trkpt>
      <trkpt lat="49.36106" lon="3.36285">
        <ele>136</ele>
        <time>2015-01-18T08:50:25Z</time>
      </trkpt>
      <trkpt lat="49.36095" lon="3.36307">
        <ele>137</ele>
        <time>2015-01-18T08:50:30Z</time>
      </trkpt>
      <trkpt lat="49.36084" lon="3.36328">
        <ele>138</ele>
        <time>2015-01-18T08:50:35Z</time>
      </trkpt>
      <trkpt lat="49.36072" lon="3.3635">
        <ele>139</ele>
        <time>2015-01-18T08:50:40Z</time>
      </trkpt>
      <trkpt lat="49.36064" lon="3.36379">
        <ele>139</ele>
        <time>2015-01-18T08:50:45Z</time>
      </trkpt>
      <trkpt lat="49.36061" lon="3.36408">
        <ele>137</ele>
        <time>2015-01-18T08:50:50Z</time>
      </trkpt>
      <trkpt lat="49.3606" lon="3.3644">
        <ele>137</ele>
        <time>2015-01-18T08:50:55Z</time>
      </trkpt>
      <trkpt lat="49.36061" lon="3.36468">
        <ele>138</ele>
        <time>2015-01-18T08:51:00Z</time>
      </trkpt>
      <trkpt lat="49.36064" lon="3.36496">
        <ele>137</ele>
        <time>2015-01-18T08:51:05Z</time>
      </trkpt>
      <trkpt lat="49.36066" lon="3.36521">
        <ele>140</ele>
        <time>2015-01-18T08:51:10Z</time>
      </trkpt>
      <trkpt lat="49.36068" lon="3.36548">
        <ele>140</ele>
        <time>2015-01-18T08:51:15Z</time>
      </trkpt>
      <trkpt lat="49.3607" lon="3.36574">
        <ele>141</ele>
        <time>2015-01-18T08:51:20Z</time>
      </trkpt>
      <trkpt lat="49.3607" lon="3.36605">
        <ele>141</ele>
        <time>2015-01-18T08:51:25Z</time>
      </trkpt>
      <trkpt lat="49.36068" lon="3.36639">
        <ele>139</ele>
        <time>2015-01-18T08:51:30Z</time>
      </trkpt>
      <trkpt lat="49.36062" lon="3.36673">
        <ele>139</ele>
        <time>2015-01-18T08:51:35Z</time>
      </trkpt>
      <trkpt lat="49.36054" lon="3.36708">
        <ele>137</ele>
        <time>2015-01-18T08:51:40Z</time>
      </trkpt>
      <trkpt lat="49.36048" lon="3.3674">
        <ele>138</ele>
        <time>2015-01-18T08:51:45Z</time>
      </trkpt>
      <trkpt lat="49.36041" lon="3.36769">
        <ele>139</ele>
        <time>2015-01-18T08:51:50Z</time>
      </trkpt>
      <trkpt lat="49.36035" lon="3.368">
        <ele>139</ele>
        <time>2015-01-18T08:51:55Z</time>
      </trkpt>
      <trkpt lat="49.36028" lon="3.3683">
        <ele>139</ele>
        <time>2015-01-18T08:52:00Z</time>
      </trkpt>
      <trkpt lat="49.3602" lon="3.36858">
        <ele>139</ele>
        <time>2015-01-18T08:52:05Z</time>
      </trkpt>
      <trkpt lat="49.3601" lon="3.36886">
        <ele>141</ele>
        <time>2015-01-18T08:52:10Z</time>
      </trkpt>
      <trkpt lat="49.35996" lon="3.36912">
        <ele>141</ele>
        <time>2015-01-18T08:52:15Z</time>
      </trkpt>
      <trkpt lat="49.35986" lon="3.36938">
        <ele>142</ele>
        <time>2015-01-18T08:52:20Z</time>
      </trkpt>
      <trkpt lat="49.35976" lon="3.36964">
        <ele>142</ele>
        <time>2015-01-18T08:52:25Z</time>
      </trkpt>
      <trkpt lat="49.35974" lon="3.36991">
        <ele>142</ele>
        <time>2015-01-18T08:52:30Z</time>
      </trkpt>
      <trkpt lat="49.35972" lon="3.3702">
        <ele>142</ele>
        <time>2015-01-18T08:52:35Z</time>
      </trkpt>
      <trkpt lat="49.35968" lon="3.37047">
        <ele>142</ele>
        <time>2015-01-18T08:52:40Z</time>
      </trkpt>
      <trkpt lat="49.35961" lon="3.3707">
        <ele>143</ele>
        <time>2015-01-18T08:52:45Z</time>
      </trkpt>
      <trkpt lat="49.3595" lon="3.37091">
        <ele>143</ele>
        <time>2015-01-18T08:52:50Z</time>
      </trkpt>
      <trkpt lat="49.35929" lon="3.37132">
        <ele>146</ele>
        <time>2015-01-18T08:52:59Z</time>
      </trkpt>
      <trkpt lat="49.35927" lon="3.37137">
        <ele>146</ele>
        <time>2015-01-18T08:53:00Z</time>
      </trkpt>
      <trkpt lat="49.35908" lon="3.37181">
        <ele>143</ele>
        <time>2015-01-18T08:53:07Z</time>
      </trkpt>
      <trkpt lat="49.35901" lon="3.37203">
        <ele>139</ele>
        <time>2015-01-18T08:53:10Z</time>
      </trkpt>
      <trkpt lat="49.35888" lon="3.37235">
        <ele>140</ele>
        <time>2015-01-18T08:53:15Z</time>
      </trkpt>
      <trkpt lat="49.35882" lon="3.37281">
        <ele>131</ele>
        <time>2015-01-18T08:53:20Z</time>
      </trkpt>
      <trkpt lat="49.35871" lon="3.37322">
        <ele>133</ele>
        <time>2015-01-18T08:53:25Z</time>
      </trkpt>
      <trkpt lat="49.35848" lon="3.37384">
        <ele>128</ele>
        <time>2015-01-18T08:53:32Z</time>
      </trkpt>
      <trkpt lat="49.35838" lon="3.37415">
        <ele>126</ele>
        <time>2015-01-18T08:53:36Z</time>
      </trkpt>
      <trkpt lat="49.35826" lon="3.37442">
        <ele>124</ele>
        <time>2015-01-18T08:53:40Z</time>
      </trkpt>
      <trkpt lat="49.35823" lon="3.37487">
        <ele>123</ele>
        <time>2015-01-18T08:53:46Z</time>
      </trkpt>
      <trkpt lat="49.35819" lon="3.37521">
        <ele>119</ele>
        <time>2015-01-18T08:53:50Z</time>
      </trkpt>
      <trkpt lat="49.35821" lon="3.37565">
        <ele>107</ele>
        <time>2015-01-18T08:53:55Z</time>
      </trkpt>
      <trkpt lat="49.35811" lon="3.37594">
        <ele>106</ele>
        <time>2015-01-18T08:54:00Z</time>
      </trkpt>
      <trkpt lat="49.35805" lon="3.3763">
        <ele>104</ele>
        <time>2015-01-18T08:54:08Z</time>
      </trkpt>
      <trkpt lat="49.35801" lon="3.37663">
        <ele>94</ele>
        <time>2015-01-18T08:54:14Z</time>
      </trkpt>
      <trkpt lat="49.35798" lon="3.37681">
        <ele>90</ele>
        <time>2015-01-18T08:54:16Z</time>
      </trkpt>
      <trkpt lat="49.35794" lon="3.37717">
        <ele>88</ele>
        <time>2015-01-18T08:54:20Z</time>
      </trkpt>
      <trkpt lat="49.35774" lon="3.37749">
        <ele>82</ele>
        <time>2015-01-18T08:54:26Z</time>
      </trkpt>
      <trkpt lat="49.35747" lon="3.37774">
        <ele>83</ele>
        <time>2015-01-18T08:54:33Z</time>
      </trkpt>
      <trkpt lat="49.35732" lon="3.37814">
        <ele>82</ele>
        <time>2015-01-18T08:54:39Z</time>
      </trkpt>
      <trkpt lat="49.35729" lon="3.3782">
        <ele>81</ele>
        <time>2015-01-18T08:54:40Z</time>
      </trkpt>
      <trkpt lat="49.35721" lon="3.37853">
        <ele>79</ele>
        <time>2015-01-18T08:54:45Z</time>
      </trkpt>
      <trkpt lat="49.35717" lon="3.37878">
        <ele>80</ele>
        <time>2015-01-18T08:54:50Z</time>
      </trkpt>
      <trkpt lat="49.3572" lon="3.37902">
        <ele>80</ele>
        <time>2015-01-18T08:54:55Z</time>
      </trkpt>
      <trkpt lat="49.3572" lon="3.37905">
        <ele>79</ele>
        <time>2015-01-18T08:55:00Z</time>
      </trkpt>
      <trkpt lat="49.35719" lon="3.37904">
        <ele>80</ele>
        <time>2015-01-18T08:55:05Z</time>
      </trkpt>
      <trkpt lat="49.35719" lon="3.37905">
        <ele>79</ele>
        <time>2015-01-18T08:55:10Z</time>
      </trkpt>
      <trkpt lat="49.35719" lon="3.37905">
        <ele>79</ele>
        <time>2015-01-18T08:55:15Z</time>
      </trkpt>
      <trkpt lat="49.35719" lon="3.37905">
        <ele>80</ele>
        <time>2015-01-18T08:55:20Z</time>
      </trkpt>
      <trkpt lat="49.35719" lon="3.37905">
        <ele>80</ele>
        <time>2015-01-18T08:55:25Z</time>
      </trkpt>
      <trkpt lat="49.35719" lon="3.37905">
        <ele>80</ele>
        <time>2015-01-18T08:55:30Z</time>
      </trkpt>
      <trkpt lat="49.35719" lon="3.37905">
        <ele>80</ele>
        <time>2015-01-18T08:55:35Z</time>
      </trkpt>
      <trkpt lat="49.35719" lon="3.37905">
        <ele>80</ele>
        <time>2015-01-18T08:55:40Z</time>
      </trkpt>
      <trkpt lat="49.3572" lon="3.37905">
        <ele>79</ele>
        <time>2015-01-18T08:55:46Z</time>
      </trkpt>
      <trkpt lat="49.35719" lon="3.37905">
        <ele>80</ele>
        <time>2015-01-18T08:55:50Z</time>
      </trkpt>
      <trkpt lat="49.35719" lon="3.37905">
        <ele>80</ele>
        <time>2015-01-18T08:55:55Z</time>
      </trkpt>
      <trkpt lat="49.3572" lon="3.37905">
        <ele>79</ele>
        <time>2015-01-18T08:56:00Z</time>
      </trkpt>
      <trkpt lat="49.3572" lon="3.37905">
        <ele>79</ele>
        <time>2015-01-18T08:56:05Z</time>
      </trkpt>
      <trkpt lat="49.3572" lon="3.37905">
        <ele>79</ele>
        <time>2015-01-18T08:56:10Z</time>
      </trkpt>
      <trkpt lat="49.3572" lon="3.37905">
        <ele>79</ele>
        <time>2015-01-18T08:56:15Z</time>
      </trkpt>
      <trkpt lat="49.3572" lon="3.37905">
        <ele>79</ele>
        <time>2015-01-18T08:56:20Z</time>
      </trkpt>
      <trkpt lat="49.3572" lon="3.37905">
        <ele>79</ele>
        <time>2015-01-18T08:56:25Z</time>
      </trkpt>
      <trkpt lat="49.3572" lon="3.37905">
        <ele>79</ele>
        <time>2015-01-18T08:56:30Z</time>
      </trkpt>
      <trkpt lat="49.3572" lon="3.37905">
        <ele>79</ele>
        <time>2015-01-18T08:56:35Z</time>
      </trkpt>
      <trkpt lat="49.3572" lon="3.37905">
        <ele>79</ele>
        <time>2015-01-18T08:56:40Z</time>
      </trkpt>
      <trkpt lat="49.3572" lon="3.37905">
        <ele>79</ele>
        <time>2015-01-18T08:56:45Z</time>
      </trkpt>
      <trkpt lat="49.3572" lon="3.37905">
        <ele>79</ele>
        <time>2015-01-18T08:56:50Z</time>
      </trkpt>
      <trkpt lat="49.3572" lon="3.37905">
        <ele>79</ele>
        <time>2015-01-18T08:56:55Z</time>
      </trkpt>
      <trkpt lat="49.3572" lon="3.37905">
        <ele>79</ele>
        <time>2015-01-18T08:57:00Z</time>
      </trkpt>
      <trkpt lat="49.3572" lon="3.37905">
        <ele>79</ele>
        <time>2015-01-18T08:57:05Z</time>
      </trkpt>
      <trkpt lat="49.3572" lon="3.37905">
        <ele>79</ele>
        <time>2015-01-18T08:57:10Z</time>
      </trkpt>
      <trkpt lat="49.3572" lon="3.37905">
        <ele>79</ele>
        <time>2015-01-18T08:57:15Z</time>
      </trkpt>
      <trkpt lat="49.3572" lon="3.37905">
        <ele>79</ele>
        <time>2015-01-18T08:57:20Z</time>
      </trkpt>
      <trkpt lat="49.3572" lon="3.37905">
        <ele>79</ele>
        <time>2015-01-18T08:57:27Z</time>
      </trkpt>
      <trkpt lat="49.3572" lon="3.37905">
        <ele>79</ele>
        <time>2015-01-18T08:57:30Z</time>
      </trkpt>
      <trkpt lat="49.3572" lon="3.37905">
        <ele>79</ele>
        <time>2015-01-18T08:57:38Z</time>
      </trkpt>
      <trkpt lat="49.3572" lon="3.37905">
        <ele>79</ele>
        <time>2015-01-18T08:57:40Z</time>
      </trkpt>
      <trkpt lat="49.3572" lon="3.37905">
        <ele>79</ele>
        <time>2015-01-18T08:57:45Z</time>
      </trkpt>
      <trkpt lat="49.3572" lon="3.37905">
        <ele>78</ele>
        <time>2015-01-18T08:57:50Z</time>
      </trkpt>
      <trkpt lat="49.35717" lon="3.37895">
        <ele>79</ele>
        <time>2015-01-18T08:57:55Z</time>
      </trkpt>
      <trkpt lat="49.35706" lon="3.37884">
        <ele>78</ele>
        <time>2015-01-18T08:58:00Z</time>
      </trkpt>
      <trkpt lat="49.35695" lon="3.3788">
        <ele>77</ele>
        <time>2015-01-18T08:58:05Z</time>
      </trkpt>
      <trkpt lat="49.35676" lon="3.37875">
        <ele>76</ele>
        <time>2015-01-18T08:58:10Z</time>
      </trkpt>
      <trkpt lat="49.35652" lon="3.37866">
        <ele>74</ele>
        <time>2015-01-18T08:58:15Z</time>
      </trkpt>
      <trkpt lat="49.35617" lon="3.37845">
        <ele>73</ele>
        <time>2015-01-18T08:58:22Z</time>
      </trkpt>
      <trkpt lat="49.35601" lon="3.37835">
        <ele>72</ele>
        <time>2015-01-18T08:58:25Z</time>
      </trkpt>
      <trkpt lat="49.35583" lon="3.37824">
        <ele>76</ele>
        <time>2015-01-18T08:58:30Z</time>
      </trkpt>
      <trkpt lat="49.35568" lon="3.37811">
        <ele>81</ele>
        <time>2015-01-18T08:58:35Z</time>
      </trkpt>
      <trkpt lat="49.35549" lon="3.37798">
        <ele>77</ele>
        <time>2015-01-18T08:58:40Z</time>
      </trkpt>
      <trkpt lat="49.35524" lon="3.37785">
        <ele>76</ele>
        <time>2015-01-18T08:58:47Z</time>
      </trkpt>
      <trkpt lat="49.35515" lon="3.37771">
        <ele>78</ele>
        <time>2015-01-18T08:58:51Z</time>
      </trkpt>
      <trkpt lat="49.35498" lon="3.37766">
        <ele>80</ele>
        <time>2015-01-18T08:58:56Z</time>
      </trkpt>
      <trkpt lat="49.35489" lon="3.37754">
        <ele>78</ele>
        <time>2015-01-18T08:59:00Z</time>
      </trkpt>
      <trkpt lat="49.35474" lon="3.37738">
        <ele>79</ele>
        <time>2015-01-18T08:59:06Z</time>
      </trkpt>
      <trkpt lat="49.35458" lon="3.37729">
        <ele>81</ele>
        <time>2015-01-18T08:59:11Z</time>
      </trkpt>
      <trkpt lat="49.35439" lon="3.37694">
        <ele>80</ele>
        <time>2015-01-18T08:59:19Z</time>
      </trkpt>
      <trkpt lat="49.35436" lon="3.37686">
        <ele>80</ele>
        <time>2015-01-18T08:59:20Z</time>
      </trkpt>
      <trkpt lat="49.35429" lon="3.37674">
        <ele>78</ele>
        <time>2015-01-18T08:59:25Z</time>
      </trkpt>
      <trkpt lat="49.3542" lon="3.3766">
        <ele>78</ele>
        <time>2015-01-18T08:59:31Z</time>
      </trkpt>
      <trkpt lat="49.35416" lon="3.37651">
        <ele>78</ele>
        <time>2015-01-18T08:59:35Z</time>
      </trkpt>
      <trkpt lat="49.35406" lon="3.37639">
        <ele>77</ele>
        <time>2015-01-18T08:59:41Z</time>
      </trkpt>
      <trkpt lat="49.35401" lon="3.37633">
        <ele>76</ele>
        <time>2015-01-18T08:59:47Z</time>
      </trkpt>
      <trkpt lat="49.35398" lon="3.37626">
        <ele>73</ele>
        <time>2015-01-18T08:59:50Z</time>
      </trkpt>
      <trkpt lat="49.35392" lon="3.37613">
        <ele>72</ele>
        <time>2015-01-18T08:59:55Z</time>
      </trkpt>
      <trkpt lat="49.35383" lon="3.37599">
        <ele>79</ele>
        <time>2015-01-18T09:00:00Z</time>
      </trkpt>
      <trkpt lat="49.35381" lon="3.37582">
        <ele>81</ele>
        <time>2015-01-18T09:00:07Z</time>
      </trkpt>
      <trkpt lat="49.3538" lon="3.37574">
        <ele>82</ele>
        <time>2015-01-18T09:00:10Z</time>
      </trkpt>
      <trkpt lat="49.35372" lon="3.37556">
        <ele>79</ele>
        <time>2015-01-18T09:00:15Z</time>
      </trkpt>
      <trkpt lat="49.35365" lon="3.37535">
        <ele>74</ele>
        <time>2015-01-18T09:00:23Z</time>
      </trkpt>
      <trkpt lat="49.35362" lon="3.37525">
        <ele>74</ele>
        <time>2015-01-18T09:00:27Z</time>
      </trkpt>
      <trkpt lat="49.35362" lon="3.37518">
        <ele>74</ele>
        <time>2015-01-18T09:00:30Z</time>
      </trkpt>
      <trkpt lat="49.35354" lon="3.37506">
        <ele>73</ele>
        <time>2015-01-18T09:00:35Z</time>
      </trkpt>
      <trkpt lat="49.3535" lon="3.37483">
        <ele>73</ele>
        <time>2015-01-18T09:00:41Z</time>
      </trkpt>
      <trkpt lat="49.3534" lon="3.37456">
        <ele>78</ele>
        <time>2015-01-18T09:00:48Z</time>
      </trkpt>
      <trkpt lat="49.35333" lon="3.3745">
        <ele>77</ele>
        <time>2015-01-18T09:00:50Z</time>
      </trkpt>
      <trkpt lat="49.35326" lon="3.37436">
        <ele>75</ele>
        <time>2015-01-18T09:00:55Z</time>
      </trkpt>
      <trkpt lat="49.35321" lon="3.37411">
        <ele>80</ele>
        <time>2015-01-18T09:01:02Z</time>
      </trkpt>
      <trkpt lat="49.35314" lon="3.37384">
        <ele>88</ele>
        <time>2015-01-18T09:01:09Z</time>
      </trkpt>
      <trkpt lat="49.35311" lon="3.3738">
        <ele>91</ele>
        <time>2015-01-18T09:01:11Z</time>
      </trkpt>
      <trkpt lat="49.35305" lon="3.37372">
        <ele>91</ele>
        <time>2015-01-18T09:01:15Z</time>
      </trkpt>
      <trkpt lat="49.35295" lon="3.3736">
        <ele>93</ele>
        <time>2015-01-18T09:01:21Z</time>
      </trkpt>
      <trkpt lat="49.35291" lon="3.37352">
        <ele>96</ele>
        <time>2015-01-18T09:01:26Z</time>
      </trkpt>
      <trkpt lat="49.35284" lon="3.37326">
        <ele>93</ele>
        <time>2015-01-18T09:01:32Z</time>
      </trkpt>
      <trkpt lat="49.3528" lon="3.37318">
        <ele>94</ele>
        <time>2015-01-18T09:01:35Z</time>
      </trkpt>
      <trkpt lat="49.35274" lon="3.37301">
        <ele>100</ele>
        <time>2015-01-18T09:01:42Z</time>
      </trkpt>
      <trkpt lat="49.35269" lon="3.37292">
        <ele>103</ele>
        <time>2015-01-18T09:01:45Z</time>
      </trkpt>
      <trkpt lat="49.35256" lon="3.37289">
        <ele>99</ele>
        <time>2015-01-18T09:01:50Z</time>
      </trkpt>
      <trkpt lat="49.35227" lon="3.37303">
        <ele>95</ele>
        <time>2015-01-18T09:01:58Z</time>
      </trkpt>
      <trkpt lat="49.35221" lon="3.37309">
        <ele>95</ele>
        <time>2015-01-18T09:02:00Z</time>
      </trkpt>
      <trkpt lat="49.35198" lon="3.37313">
        <ele>93</ele>
        <time>2015-01-18T09:02:07Z</time>
      </trkpt>
      <trkpt lat="49.3519" lon="3.37308">
        <ele>96</ele>
        <time>2015-01-18T09:02:10Z</time>
      </trkpt>
      <trkpt lat="49.35181" lon="3.3731">
        <ele>94</ele>
        <time>2015-01-18T09:02:17Z</time>
      </trkpt>
      <trkpt lat="49.35169" lon="3.37313">
        <ele>96</ele>
        <time>2015-01-18T09:02:23Z</time>
      </trkpt>
      <trkpt lat="49.35159" lon="3.37327">
        <ele>93</ele>
        <time>2015-01-18T09:02:29Z</time>
      </trkpt>
      <trkpt lat="49.35156" lon="3.37332">
        <ele>92</ele>
        <time>2015-01-18T09:02:31Z</time>
      </trkpt>
      <trkpt lat="49.35153" lon="3.37344">
        <ele>96</ele>
        <time>2015-01-18T09:02:35Z</time>
      </trkpt>
      <trkpt lat="49.35159" lon="3.37377">
        <ele>87</ele>
        <time>2015-01-18T09:02:43Z</time>
      </trkpt>
      <trkpt lat="49.35162" lon="3.37394">
        <ele>89</ele>
        <time>2015-01-18T09:02:48Z</time>
      </trkpt>
      <trkpt lat="49.35162" lon="3.37404">
        <ele>88</ele>
        <time>2015-01-18T09:02:51Z</time>
      </trkpt>
      <trkpt lat="49.35162" lon="3.3744">
        <ele>92</ele>
        <time>2015-01-18T09:02:59Z</time>
      </trkpt>
      <trkpt lat="49.35161" lon="3.37446">
        <ele>92</ele>
        <time>2015-01-18T09:03:00Z</time>
      </trkpt>
      <trkpt lat="49.35142" lon="3.37492">
        <ele>87</ele>
        <time>2015-01-18T09:03:06Z</time>
      </trkpt>
      <trkpt lat="49.3513" lon="3.37521">
        <ele>85</ele>
        <time>2015-01-18T09:03:11Z</time>
      </trkpt>
      <trkpt lat="49.35115" lon="3.37533">
        <ele>86</ele>
        <time>2015-01-18T09:03:15Z</time>
      </trkpt>
      <trkpt lat="49.35094" lon="3.37538">
        <ele>81</ele>
        <time>2015-01-18T09:03:22Z</time>
      </trkpt>
      <trkpt lat="49.35086" lon="3.37538">
        <ele>80</ele>
        <time>2015-01-18T09:03:25Z</time>
      </trkpt>
      <trkpt lat="49.3507" lon="3.37533">
        <ele>84</ele>
        <time>2015-01-18T09:03:30Z</time>
      </trkpt>
      <trkpt lat="49.35055" lon="3.37529">
        <ele>82</ele>
        <time>2015-01-18T09:03:35Z</time>
      </trkpt>
      <trkpt lat="49.35037" lon="3.37528">
        <ele>88</ele>
        <time>2015-01-18T09:03:40Z</time>
      </trkpt>
      <trkpt lat="49.35022" lon="3.37529">
        <ele>84</ele>
        <time>2015-01-18T09:03:45Z</time>
      </trkpt>
      <trkpt lat="49.35005" lon="3.37527">
        <ele>86</ele>
        <time>2015-01-18T09:03:51Z</time>
      </trkpt>
      <trkpt lat="49.34996" lon="3.37529">
        <ele>82</ele>
        <time>2015-01-18T09:03:55Z</time>
      </trkpt>
      <trkpt lat="49.34977" lon="3.37559">
        <ele>76</ele>
        <time>2015-01-18T09:04:04Z</time>
      </trkpt>
      <trkpt lat="49.34977" lon="3.37564">
        <ele>76</ele>
        <time>2015-01-18T09:04:05Z</time>
      </trkpt>
      <trkpt lat="49.34974" lon="3.37586">
        <ele>76</ele>
        <time>2015-01-18T09:04:10Z</time>
      </trkpt>
      <trkpt lat="49.34965" lon="3.37605">
        <ele>74</ele>
        <time>2015-01-18T09:04:15Z</time>
      </trkpt>
      <trkpt lat="49.34962" lon="3.37629">
        <ele>80</ele>
        <time>2015-01-18T09:04:21Z</time>
      </trkpt>
      <trkpt lat="49.34955" lon="3.37648">
        <ele>87</ele>
        <time>2015-01-18T09:04:26Z</time>
      </trkpt>
      <trkpt lat="49.34953" lon="3.3766">
        <ele>88</ele>
        <time>2015-01-18T09:04:32Z</time>
      </trkpt>
      <trkpt lat="49.34952" lon="3.3766">
        <ele>88</ele>
        <time>2015-01-18T09:04:35Z</time>
      </trkpt>
      <trkpt lat="49.34948" lon="3.37651">
        <ele>92</ele>
        <time>2015-01-18T09:04:40Z</time>
      </trkpt>
      <trkpt lat="49.34935" lon="3.37647">
        <ele>90</ele>
        <time>2015-01-18T09:04:45Z</time>
      </trkpt>
      <trkpt lat="49.34928" lon="3.3764">
        <ele>91</ele>
        <time>2015-01-18T09:04:50Z</time>
      </trkpt>
      <trkpt lat="49.3492" lon="3.37637">
        <ele>94</ele>
        <time>2015-01-18T09:04:55Z</time>
      </trkpt>
      <trkpt lat="49.34907" lon="3.37628">
        <ele>94</ele>
        <time>2015-01-18T09:05:00Z</time>
      </trkpt>
      <trkpt lat="49.34898" lon="3.3762">
        <ele>99</ele>
        <time>2015-01-18T09:05:05Z</time>
      </trkpt>
      <trkpt lat="49.34878" lon="3.37595">
        <ele>100</ele>
        <time>2015-01-18T09:05:12Z</time>
      </trkpt>
      <trkpt lat="49.34862" lon="3.37573">
        <ele>96</ele>
        <time>2015-01-18T09:05:19Z</time>
      </trkpt>
      <trkpt lat="49.3486" lon="3.37572">
        <ele>96</ele>
        <time>2015-01-18T09:05:20Z</time>
      </trkpt>
      <trkpt lat="49.34851" lon="3.37565">
        <ele>100</ele>
        <time>2015-01-18T09:05:25Z</time>
      </trkpt>
      <trkpt lat="49.3484" lon="3.37559">
        <ele>101</ele>
        <time>2015-01-18T09:05:30Z</time>
      </trkpt>
      <trkpt lat="49.34821" lon="3.3753">
        <ele>88</ele>
        <time>2015-01-18T09:05:39Z</time>
      </trkpt>
      <trkpt lat="49.34815" lon="3.37527">
        <ele>83</ele>
        <time>2015-01-18T09:05:43Z</time>
      </trkpt>
      <trkpt lat="49.34813" lon="3.37526">
        <ele>83</ele>
        <time>2015-01-18T09:05:45Z</time>
      </trkpt>
      <trkpt lat="49.3481" lon="3.37525">
        <ele>83</ele>
        <time>2015-01-18T09:05:50Z</time>
      </trkpt>
      <trkpt lat="49.3481" lon="3.37519">
        <ele>90</ele>
        <time>2015-01-18T09:05:56Z</time>
      </trkpt>
      <trkpt lat="49.34808" lon="3.37512">
        <ele>92</ele>
        <time>2015-01-18T09:06:00Z</time>
      </trkpt>
      <trkpt lat="49.34807" lon="3.37509">
        <ele>93</ele>
        <time>2015-01-18T09:06:06Z</time>
      </trkpt>
      <trkpt lat="49.34805" lon="3.37505">
        <ele>96</ele>
        <time>2015-01-18T09:06:14Z</time>
      </trkpt>
      <trkpt lat="49.34805" lon="3.37505">
        <ele>96</ele>
        <time>2015-01-18T09:06:15Z</time>
      </trkpt>
      <trkpt lat="49.348" lon="3.37491">
        <ele>97</ele>
        <time>2015-01-18T09:06:20Z</time>
      </trkpt>
      <trkpt lat="49.34792" lon="3.37479">
        <ele>101</ele>
        <time>2015-01-18T09:06:25Z</time>
      </trkpt>
      <trkpt lat="49.34786" lon="3.3747">
        <ele>103</ele>
        <time>2015-01-18T09:06:30Z</time>
      </trkpt>
      <trkpt lat="49.34777" lon="3.37457">
        <ele>103</ele>
        <time>2015-01-18T09:06:39Z</time>
      </trkpt>
      <trkpt lat="49.34776" lon="3.37456">
        <ele>103</ele>
        <time>2015-01-18T09:06:40Z</time>
      </trkpt>
      <trkpt lat="49.34773" lon="3.37445">
        <ele>99</ele>
        <time>2015-01-18T09:06:46Z</time>
      </trkpt>
      <trkpt lat="49.34769" lon="3.37437">
        <ele>102</ele>
        <time>2015-01-18T09:06:50Z</time>
      </trkpt>
      <trkpt lat="49.34767" lon="3.37433">
        <ele>108</ele>
        <time>2015-01-18T09:06:55Z</time>
      </trkpt>
      <trkpt lat="49.34765" lon="3.37428">
        <ele>110</ele>
        <time>2015-01-18T09:07:00Z</time>
      </trkpt>
      <trkpt lat="49.34761" lon="3.37419">
        <ele>110</ele>
        <time>2015-01-18T09:07:05Z</time>
      </trkpt>
      <trkpt lat="49.34754" lon="3.37412">
        <ele>107</ele>
        <time>2015-01-18T09:07:12Z</time>
      </trkpt>
      <trkpt lat="49.34751" lon="3.374">
        <ele>107</ele>
        <time>2015-01-18T09:07:19Z</time>
      </trkpt>
      <trkpt lat="49.34751" lon="3.37399">
        <ele>107</ele>
        <time>2015-01-18T09:07:20Z</time>
      </trkpt>
      <trkpt lat="49.34747" lon="3.37385">
        <ele>102</ele>
        <time>2015-01-18T09:07:28Z</time>
      </trkpt>
      <trkpt lat="49.34745" lon="3.37377">
        <ele>101</ele>
        <time>2015-01-18T09:07:32Z</time>
      </trkpt>
      <trkpt lat="49.34741" lon="3.37368">
        <ele>102</ele>
        <time>2015-01-18T09:07:39Z</time>
      </trkpt>
      <trkpt lat="49.34741" lon="3.37367">
        <ele>103</ele>
        <time>2015-01-18T09:07:40Z</time>
      </trkpt>
      <trkpt lat="49.34741" lon="3.37359">
        <ele>104</ele>
        <time>2015-01-18T09:07:45Z</time>
      </trkpt>
      <trkpt lat="49.34737" lon="3.37353">
        <ele>103</ele>
        <time>2015-01-18T09:07:50Z</time>
      </trkpt>
      <trkpt lat="49.34735" lon="3.37347">
        <ele>112</ele>
        <time>2015-01-18T09:07:57Z</time>
      </trkpt>
      <trkpt lat="49.34729" lon="3.37335">
        <ele>114</ele>
        <time>2015-01-18T09:08:03Z</time>
      </trkpt>
      <trkpt lat="49.34729" lon="3.37333">
        <ele>116</ele>
        <time>2015-01-18T09:08:05Z</time>
      </trkpt>
      <trkpt lat="49.34727" lon="3.37325">
        <ele>118</ele>
        <time>2015-01-18T09:08:10Z</time>
      </trkpt>
      <trkpt lat="49.34727" lon="3.37321">
        <ele>121</ele>
        <time>2015-01-18T09:08:15Z</time>
      </trkpt>
      <trkpt lat="49.34722" lon="3.37314">
        <ele>119</ele>
        <time>2015-01-18T09:08:20Z</time>
      </trkpt>
      <trkpt lat="49.34715" lon="3.37307">
        <ele>117</ele>
        <time>2015-01-18T09:08:25Z</time>
      </trkpt>
      <trkpt lat="49.34709" lon="3.37293">
        <ele>117</ele>
        <time>2015-01-18T09:08:34Z</time>
      </trkpt>
      <trkpt lat="49.34709" lon="3.37291">
        <ele>117</ele>
        <time>2015-01-18T09:08:35Z</time>
      </trkpt>
      <trkpt lat="49.34706" lon="3.37284">
        <ele>116</ele>
        <time>2015-01-18T09:08:40Z</time>
      </trkpt>
      <trkpt lat="49.34703" lon="3.37277">
        <ele>119</ele>
        <time>2015-01-18T09:08:45Z</time>
      </trkpt>
      <trkpt lat="49.34702" lon="3.37274">
        <ele>121</ele>
        <time>2015-01-18T09:08:50Z</time>
      </trkpt>
      <trkpt lat="49.347" lon="3.37269">
        <ele>121</ele>
        <time>2015-01-18T09:08:55Z</time>
      </trkpt>
      <trkpt lat="49.34698" lon="3.37266">
        <ele>124</ele>
        <time>2015-01-18T09:09:00Z</time>
      </trkpt>
      <trkpt lat="49.34699" lon="3.37262">
        <ele>127</ele>
        <time>2015-01-18T09:09:05Z</time>
      </trkpt>
      <trkpt lat="49.34698" lon="3.37259">
        <ele>130</ele>
        <time>2015-01-18T09:09:10Z</time>
      </trkpt>
      <trkpt lat="49.34698" lon="3.37259">
        <ele>131</ele>
        <time>2015-01-18T09:09:15Z</time>
      </trkpt>
      <trkpt lat="49.34696" lon="3.37254">
        <ele>126</ele>
        <time>2015-01-18T09:09:20Z</time>
      </trkpt>
      <trkpt lat="49.34692" lon="3.3724">
        <ele>130</ele>
        <time>2015-01-18T09:09:28Z</time>
      </trkpt>
      <trkpt lat="49.34692" lon="3.37235">
        <ele>132</ele>
        <time>2015-01-18T09:09:30Z</time>
      </trkpt>
      <trkpt lat="49.3469" lon="3.37233">
        <ele>131</ele>
        <time>2015-01-18T09:09:35Z</time>
      </trkpt>
      <trkpt lat="49.34687" lon="3.37224">
        <ele>130</ele>
        <time>2015-01-18T09:09:40Z</time>
      </trkpt>
      <trkpt lat="49.34683" lon="3.37216">
        <ele>128</ele>
        <time>2015-01-18T09:09:45Z</time>
      </trkpt>
      <trkpt lat="49.34678" lon="3.37205">
        <ele>128</ele>
        <time>2015-01-18T09:09:50Z</time>
      </trkpt>
      <trkpt lat="49.34674" lon="3.37197">
        <ele>128</ele>
        <time>2015-01-18T09:09:55Z</time>
      </trkpt>
      <trkpt lat="49.3467" lon="3.37181">
        <ele>130</ele>
        <time>2015-01-18T09:10:02Z</time>
      </trkpt>
      <trkpt lat="49.34667" lon="3.37172">
        <ele>130</ele>
        <time>2015-01-18T09:10:05Z</time>
      </trkpt>
      <trkpt lat="49.34662" lon="3.3716">
        <ele>128</ele>
        <time>2015-01-18T09:10:10Z</time>
      </trkpt>
      <trkpt lat="49.34662" lon="3.37146">
        <ele>130</ele>
        <time>2015-01-18T09:10:17Z</time>
      </trkpt>
      <trkpt lat="49.34657" lon="3.37139">
        <ele>126</ele>
        <time>2015-01-18T09:10:20Z</time>
      </trkpt>
      <trkpt lat="49.34653" lon="3.37125">
        <ele>133</ele>
        <time>2015-01-18T09:10:25Z</time>
      </trkpt>
      <trkpt lat="49.34648" lon="3.37113">
        <ele>132</ele>
        <time>2015-01-18T09:10:30Z</time>
      </trkpt>
      <trkpt lat="49.34644" lon="3.37102">
        <ele>133</ele>
        <time>2015-01-18T09:10:35Z</time>
      </trkpt>
      <trkpt lat="49.34639" lon="3.37093">
        <ele>131</ele>
        <time>2015-01-18T09:10:40Z</time>
      </trkpt>
      <trkpt lat="49.34635" lon="3.37082">
        <ele>133</ele>
        <time>2015-01-18T09:10:45Z</time>
      </trkpt>
      <trkpt lat="49.34633" lon="3.3707">
        <ele>135</ele>
        <time>2015-01-18T09:10:50Z</time>
      </trkpt>
      <trkpt lat="49.34626" lon="3.3705">
        <ele>137</ele>
        <time>2015-01-18T09:10:58Z</time>
      </trkpt>
      <trkpt lat="49.34624" lon="3.37045">
        <ele>137</ele>
        <time>2015-01-18T09:11:00Z</time>
      </trkpt>
      <trkpt lat="49.34621" lon="3.37031">
        <ele>137</ele>
        <time>2015-01-18T09:11:05Z</time>
      </trkpt>
      <trkpt lat="49.34617" lon="3.37018">
        <ele>136</ele>
        <time>2015-01-18T09:11:10Z</time>
      </trkpt>
      <trkpt lat="49.34611" lon="3.37007">
        <ele>135</ele>
        <time>2015-01-18T09:11:15Z</time>
      </trkpt>
      <trkpt lat="49.34607" lon="3.36996">
        <ele>134</ele>
        <time>2015-01-18T09:11:20Z</time>
      </trkpt>
      <trkpt lat="49.34603" lon="3.36984">
        <ele>133</ele>
        <time>2015-01-18T09:11:27Z</time>
      </trkpt>
      <trkpt lat="49.34602" lon="3.36978">
        <ele>133</ele>
        <time>2015-01-18T09:11:30Z</time>
      </trkpt>
      <trkpt lat="49.34597" lon="3.36966">
        <ele>135</ele>
        <time>2015-01-18T09:11:36Z</time>
      </trkpt>
      <trkpt lat="49.34593" lon="3.3696">
        <ele>134</ele>
        <time>2015-01-18T09:11:40Z</time>
      </trkpt>
      <trkpt lat="49.34582" lon="3.36945">
        <ele>135</ele>
        <time>2015-01-18T09:11:48Z</time>
      </trkpt>
      <trkpt lat="49.3458" lon="3.3694">
        <ele>137</ele>
        <time>2015-01-18T09:11:50Z</time>
      </trkpt>
      <trkpt lat="49.34577" lon="3.36932">
        <ele>140</ele>
        <time>2015-01-18T09:11:55Z</time>
      </trkpt>
      <trkpt lat="49.34574" lon="3.36924">
        <ele>139</ele>
        <time>2015-01-18T09:12:00Z</time>
      </trkpt>
      <trkpt lat="49.34571" lon="3.36913">
        <ele>141</ele>
        <time>2015-01-18T09:12:05Z</time>
      </trkpt>
      <trkpt lat="49.34566" lon="3.36905">
        <ele>141</ele>
        <time>2015-01-18T09:12:10Z</time>
      </trkpt>
      <trkpt lat="49.34563" lon="3.36896">
        <ele>140</ele>
        <time>2015-01-18T09:12:16Z</time>
      </trkpt>
      <trkpt lat="49.34561" lon="3.36892">
        <ele>141</ele>
        <time>2015-01-18T09:12:20Z</time>
      </trkpt>
      <trkpt lat="49.34556" lon="3.36884">
        <ele>142</ele>
        <time>2015-01-18T09:12:25Z</time>
      </trkpt>
      <trkpt lat="49.34552" lon="3.36876">
        <ele>144</ele>
        <time>2015-01-18T09:12:30Z</time>
      </trkpt>
      <trkpt lat="49.34551" lon="3.36866">
        <ele>145</ele>
        <time>2015-01-18T09:12:35Z</time>
      </trkpt>
      <trkpt lat="49.3455" lon="3.36859">
        <ele>147</ele>
        <time>2015-01-18T09:12:40Z</time>
      </trkpt>
      <trkpt lat="49.34545" lon="3.36856">
        <ele>148</ele>
        <time>2015-01-18T09:12:45Z</time>
      </trkpt>
      <trkpt lat="49.34538" lon="3.36859">
        <ele>148</ele>
        <time>2015-01-18T09:12:50Z</time>
      </trkpt>
      <trkpt lat="49.34528" lon="3.36869">
        <ele>149</ele>
        <time>2015-01-18T09:12:55Z</time>
      </trkpt>
      <trkpt lat="49.34519" lon="3.36881">
        <ele>150</ele>
        <time>2015-01-18T09:13:00Z</time>
      </trkpt>
      <trkpt lat="49.34511" lon="3.36899">
        <ele>147</ele>
        <time>2015-01-18T09:13:05Z</time>
      </trkpt>
      <trkpt lat="49.34501" lon="3.36915">
        <ele>147</ele>
        <time>2015-01-18T09:13:10Z</time>
      </trkpt>
      <trkpt lat="49.34492" lon="3.36932">
        <ele>148</ele>
        <time>2015-01-18T09:13:15Z</time>
      </trkpt>
      <trkpt lat="49.34483" lon="3.3695">
        <ele>148</ele>
        <time>2015-01-18T09:13:20Z</time>
      </trkpt>
      <trkpt lat="49.34475" lon="3.36969">
        <ele>149</ele>
        <time>2015-01-18T09:13:25Z</time>
      </trkpt>
      <trkpt lat="49.34468" lon="3.3699">
        <ele>149</ele>
        <time>2015-01-18T09:13:30Z</time>
      </trkpt>
      <trkpt lat="49.34462" lon="3.3701">
        <ele>149</ele>
        <time>2015-01-18T09:13:35Z</time>
      </trkpt>
      <trkpt lat="49.34457" lon="3.37032">
        <ele>149</ele>
        <time>2015-01-18T09:13:40Z</time>
      </trkpt>
      <trkpt lat="49.34451" lon="3.37058">
        <ele>149</ele>
        <time>2015-01-18T09:13:45Z</time>
      </trkpt>
      <trkpt lat="49.34444" lon="3.37087">
        <ele>149</ele>
        <time>2015-01-18T09:13:50Z</time>
      </trkpt>
      <trkpt lat="49.34438" lon="3.37116">
        <ele>150</ele>
        <time>2015-01-18T09:13:55Z</time>
      </trkpt>
      <trkpt lat="49.34432" lon="3.37143">
        <ele>149</ele>
        <time>2015-01-18T09:14:00Z</time>
      </trkpt>
      <trkpt lat="49.34426" lon="3.37169">
        <ele>151</ele>
        <time>2015-01-18T09:14:05Z</time>
      </trkpt>
      <trkpt lat="49.3442" lon="3.37197">
        <ele>151</ele>
        <time>2015-01-18T09:14:10Z</time>
      </trkpt>
      <trkpt lat="49.34407" lon="3.37212">
        <ele>153</ele>
        <time>2015-01-18T09:14:15Z</time>
      </trkpt>
      <trkpt lat="49.34397" lon="3.37194">
        <ele>153</ele>
        <time>2015-01-18T09:14:20Z</time>
      </trkpt>
      <trkpt lat="49.34389" lon="3.37168">
        <ele>154</ele>
        <time>2015-01-18T09:14:25Z</time>
      </trkpt>
      <trkpt lat="49.3438" lon="3.37144">
        <ele>155</ele>
        <time>2015-01-18T09:14:30Z</time>
      </trkpt>
      <trkpt lat="49.34372" lon="3.37119">
        <ele>154</ele>
        <time>2015-01-18T09:14:35Z</time>
      </trkpt>
      <trkpt lat="49.34363" lon="3.37092">
        <ele>155</ele>
        <time>2015-01-18T09:14:40Z</time>
      </trkpt>
      <trkpt lat="49.34355" lon="3.37067">
        <ele>154</ele>
        <time>2015-01-18T09:14:45Z</time>
      </trkpt>
      <trkpt lat="49.34346" lon="3.3704">
        <ele>156</ele>
        <time>2015-01-18T09:14:50Z</time>
      </trkpt>
      <trkpt lat="49.34337" lon="3.37012">
        <ele>157</ele>
        <time>2015-01-18T09:14:55Z</time>
      </trkpt>
      <trkpt lat="49.34328" lon="3.36985">
        <ele>157</ele>
        <time>2015-01-18T09:15:00Z</time>
      </trkpt>
      <trkpt lat="49.3432" lon="3.36958">
        <ele>156</ele>
        <time>2015-01-18T09:15:05Z</time>
      </trkpt>
      <trkpt lat="49.3431" lon="3.36932">
        <ele>157</ele>
        <time>2015-01-18T09:15:10Z</time>
      </trkpt>
      <trkpt lat="49.34301" lon="3.36907">
        <ele>157</ele>
        <time>2015-01-18T09:15:15Z</time>
      </trkpt>
      <trkpt lat="49.34293" lon="3.36879">
        <ele>156</ele>
        <time>2015-01-18T09:15:20Z</time>
      </trkpt>
      <trkpt lat="49.34283" lon="3.36852">
        <ele>156</ele>
        <time>2015-01-18T09:15:25Z</time>
      </trkpt>
      <trkpt lat="49.34273" lon="3.36825">
        <ele>157</ele>
        <time>2015-01-18T09:15:30Z</time>
      </trkpt>
      <trkpt lat="49.34265" lon="3.36796">
        <ele>158</ele>
        <time>2015-01-18T09:15:35Z</time>
      </trkpt>
      <trkpt lat="49.34257" lon="3.36765">
        <ele>158</ele>
        <time>2015-01-18T09:15:40Z</time>
      </trkpt>
      <trkpt lat="49.34247" lon="3.36737">
        <ele>159</ele>
        <time>2015-01-18T09:15:45Z</time>
      </trkpt>
      <trkpt lat="49.34238" lon="3.36705">
        <ele>158</ele>
        <time>2015-01-18T09:15:50Z</time>
      </trkpt>
      <trkpt lat="49.34228" lon="3.36675">
        <ele>158</ele>
        <time>2015-01-18T09:15:55Z</time>
      </trkpt>
      <trkpt lat="49.34219" lon="3.36643">
        <ele>158</ele>
        <time>2015-01-18T09:16:00Z</time>
      </trkpt>
      <trkpt lat="49.34208" lon="3.3661">
        <ele>159</ele>
        <time>2015-01-18T09:16:05Z</time>
      </trkpt>
      <trkpt lat="49.34198" lon="3.36577">
        <ele>158</ele>
        <time>2015-01-18T09:16:10Z</time>
      </trkpt>
      <trkpt lat="49.34188" lon="3.36543">
        <ele>159</ele>
        <time>2015-01-18T09:16:15Z</time>
      </trkpt>
      <trkpt lat="49.34175" lon="3.36507">
        <ele>158</ele>
        <time>2015-01-18T09:16:20Z</time>
      </trkpt>
      <trkpt lat="49.34162" lon="3.36467">
        <ele>159</ele>
        <time>2015-01-18T09:16:26Z</time>
      </trkpt>
      <trkpt lat="49.34154" lon="3.36439">
        <ele>157</ele>
        <time>2015-01-18T09:16:30Z</time>
      </trkpt>
      <trkpt lat="49.34142" lon="3.36403">
        <ele>156</ele>
        <time>2015-01-18T09:16:35Z</time>
      </trkpt>
      <trkpt lat="49.34131" lon="3.36368">
        <ele>157</ele>
        <time>2015-01-18T09:16:40Z</time>
      </trkpt>
      <trkpt lat="49.34121" lon="3.36332">
        <ele>157</ele>
        <time>2015-01-18T09:16:45Z</time>
      </trkpt>
      <trkpt lat="49.34108" lon="3.36292">
        <ele>157</ele>
        <time>2015-01-18T09:16:50Z</time>
      </trkpt>
      <trkpt lat="49.34097" lon="3.36252">
        <ele>155</ele>
        <time>2015-01-18T09:16:55Z</time>
      </trkpt>
      <trkpt lat="49.34082" lon="3.36215">
        <ele>154</ele>
        <time>2015-01-18T09:17:00Z</time>
      </trkpt>
      <trkpt lat="49.34063" lon="3.36178">
        <ele>151</ele>
        <time>2015-01-18T09:17:05Z</time>
      </trkpt>
      <trkpt lat="49.34041" lon="3.3614">
        <ele>149</ele>
        <time>2015-01-18T09:17:10Z</time>
      </trkpt>
      <trkpt lat="49.34019" lon="3.361">
        <ele>150</ele>
        <time>2015-01-18T09:17:15Z</time>
      </trkpt>
      <trkpt lat="49.33995" lon="3.36061">
        <ele>149</ele>
        <time>2015-01-18T09:17:20Z</time>
      </trkpt>
      <trkpt lat="49.33974" lon="3.36017">
        <ele>145</ele>
        <time>2015-01-18T09:17:25Z</time>
      </trkpt>
      <trkpt lat="49.33959" lon="3.35966">
        <ele>141</ele>
        <time>2015-01-18T09:17:30Z</time>
      </trkpt>
      <trkpt lat="49.33948" lon="3.35909">
        <ele>138</ele>
        <time>2015-01-18T09:17:35Z</time>
      </trkpt>
      <trkpt lat="49.33937" lon="3.35846">
        <ele>135</ele>
        <time>2015-01-18T09:17:40Z</time>
      </trkpt>
      <trkpt lat="49.33926" lon="3.35789">
        <ele>135</ele>
        <time>2015-01-18T09:17:45Z</time>
      </trkpt>
      <trkpt lat="49.33928" lon="3.35742">
        <ele>134</ele>
        <time>2015-01-18T09:17:50Z</time>
      </trkpt>
      <trkpt lat="49.33955" lon="3.35727">
        <ele>134</ele>
        <time>2015-01-18T09:17:55Z</time>
      </trkpt>
      <trkpt lat="49.33984" lon="3.35712">
        <ele>132</ele>
        <time>2015-01-18T09:18:00Z</time>
      </trkpt>
      <trkpt lat="49.34011" lon="3.35696">
        <ele>130</ele>
        <time>2015-01-18T09:18:05Z</time>
      </trkpt>
      <trkpt lat="49.34037" lon="3.35683">
        <ele>132</ele>
        <time>2015-01-18T09:18:10Z</time>
      </trkpt>
      <trkpt lat="49.34072" lon="3.35667">
        <ele>134</ele>
        <time>2015-01-18T09:18:17Z</time>
      </trkpt>
      <trkpt lat="49.34087" lon="3.35662">
        <ele>134</ele>
        <time>2015-01-18T09:18:20Z</time>
      </trkpt>
      <trkpt lat="49.34115" lon="3.35651">
        <ele>133</ele>
        <time>2015-01-18T09:18:26Z</time>
      </trkpt>
      <trkpt lat="49.34137" lon="3.35641">
        <ele>135</ele>
        <time>2015-01-18T09:18:32Z</time>
      </trkpt>
      <trkpt lat="49.34156" lon="3.35614">
        <ele>137</ele>
        <time>2015-01-18T09:18:39Z</time>
      </trkpt>
      <trkpt lat="49.34158" lon="3.35611">
        <ele>137</ele>
        <time>2015-01-18T09:18:40Z</time>
      </trkpt>
      <trkpt lat="49.34167" lon="3.35591">
        <ele>140</ele>
        <time>2015-01-18T09:18:45Z</time>
      </trkpt>
      <trkpt lat="49.34176" lon="3.3557">
        <ele>139</ele>
        <time>2015-01-18T09:18:51Z</time>
      </trkpt>
      <trkpt lat="49.34179" lon="3.35556">
        <ele>139</ele>
        <time>2015-01-18T09:18:55Z</time>
      </trkpt>
      <trkpt lat="49.34187" lon="3.3554">
        <ele>139</ele>
        <time>2015-01-18T09:19:00Z</time>
      </trkpt>
      <trkpt lat="49.34195" lon="3.35525">
        <ele>136</ele>
        <time>2015-01-18T09:19:05Z</time>
      </trkpt>
      <trkpt lat="49.342" lon="3.35506">
        <ele>138</ele>
        <time>2015-01-18T09:19:11Z</time>
      </trkpt>
      <trkpt lat="49.34206" lon="3.35496">
        <ele>136</ele>
        <time>2015-01-18T09:19:15Z</time>
      </trkpt>
      <trkpt lat="49.34211" lon="3.35481">
        <ele>135</ele>
        <time>2015-01-18T09:19:20Z</time>
      </trkpt>
      <trkpt lat="49.34217" lon="3.35464">
        <ele>135</ele>
        <time>2015-01-18T09:19:26Z</time>
      </trkpt>
      <trkpt lat="49.34223" lon="3.35447">
        <ele>138</ele>
        <time>2015-01-18T09:19:32Z</time>
      </trkpt>
      <trkpt lat="49.34226" lon="3.35439">
        <ele>139</ele>
        <time>2015-01-18T09:19:35Z</time>
      </trkpt>
      <trkpt lat="49.34232" lon="3.35428">
        <ele>140</ele>
        <time>2015-01-18T09:19:40Z</time>
      </trkpt>
      <trkpt lat="49.34239" lon="3.35417">
        <ele>141</ele>
        <time>2015-01-18T09:19:45Z</time>
      </trkpt>
      <trkpt lat="49.34249" lon="3.3541">
        <ele>141</ele>
        <time>2015-01-18T09:19:50Z</time>
      </trkpt>
      <trkpt lat="49.3426" lon="3.354">
        <ele>140</ele>
        <time>2015-01-18T09:19:55Z</time>
      </trkpt>
      <trkpt lat="49.34273" lon="3.35388">
        <ele>144</ele>
        <time>2015-01-18T09:20:00Z</time>
      </trkpt>
      <trkpt lat="49.34287" lon="3.35383">
        <ele>142</ele>
        <time>2015-01-18T09:20:05Z</time>
      </trkpt>
      <trkpt lat="49.34304" lon="3.35376">
        <ele>141</ele>
        <time>2015-01-18T09:20:10Z</time>
      </trkpt>
      <trkpt lat="49.34322" lon="3.3537">
        <ele>141</ele>
        <time>2015-01-18T09:20:15Z</time>
      </trkpt>
      <trkpt lat="49.34343" lon="3.35366">
        <ele>140</ele>
        <time>2015-01-18T09:20:20Z</time>
      </trkpt>
      <trkpt lat="49.34362" lon="3.35356">
        <ele>140</ele>
        <time>2015-01-18T09:20:25Z</time>
      </trkpt>
      <trkpt lat="49.34372" lon="3.35328">
        <ele>141</ele>
        <time>2015-01-18T09:20:30Z</time>
      </trkpt>
      <trkpt lat="49.34378" lon="3.35299">
        <ele>142</ele>
        <time>2015-01-18T09:20:35Z</time>
      </trkpt>
      <trkpt lat="49.34384" lon="3.35272">
        <ele>142</ele>
        <time>2015-01-18T09:20:40Z</time>
      </trkpt>
      <trkpt lat="49.34387" lon="3.35245">
        <ele>141</ele>
        <time>2015-01-18T09:20:45Z</time>
      </trkpt>
      <trkpt lat="49.34388" lon="3.3522">
        <ele>143</ele>
        <time>2015-01-18T09:20:50Z</time>
      </trkpt>
      <trkpt lat="49.34388" lon="3.35197">
        <ele>144</ele>
        <time>2015-01-18T09:20:55Z</time>
      </trkpt>
      <trkpt lat="49.34386" lon="3.35173">
        <ele>146</ele>
        <time>2015-01-18T09:21:00Z</time>
      </trkpt>
      <trkpt lat="49.3438" lon="3.35147">
        <ele>145</ele>
        <time>2015-01-18T09:21:05Z</time>
      </trkpt>
      <trkpt lat="49.34364" lon="3.3512">
        <ele>144</ele>
        <time>2015-01-18T09:21:10Z</time>
      </trkpt>
      <trkpt lat="49.34347" lon="3.35091">
        <ele>146</ele>
        <time>2015-01-18T09:21:15Z</time>
      </trkpt>
      <trkpt lat="49.34331" lon="3.35063">
        <ele>145</ele>
        <time>2015-01-18T09:21:20Z</time>
      </trkpt>
      <trkpt lat="49.3431" lon="3.35022">
        <ele>145</ele>
        <time>2015-01-18T09:21:27Z</time>
      </trkpt>
      <trkpt lat="49.343" lon="3.35001">
        <ele>143</ele>
        <time>2015-01-18T09:21:30Z</time>
      </trkpt>
      <trkpt lat="49.34283" lon="3.34969">
        <ele>143</ele>
        <time>2015-01-18T09:21:35Z</time>
      </trkpt>
      <trkpt lat="49.34265" lon="3.34939">
        <ele>144</ele>
        <time>2015-01-18T09:21:40Z</time>
      </trkpt>
      <trkpt lat="49.34247" lon="3.3491">
        <ele>144</ele>
        <time>2015-01-18T09:21:45Z</time>
      </trkpt>
      <trkpt lat="49.34227" lon="3.34885">
        <ele>143</ele>
        <time>2015-01-18T09:21:50Z</time>
      </trkpt>
      <trkpt lat="49.34208" lon="3.34867">
        <ele>142</ele>
        <time>2015-01-18T09:21:55Z</time>
      </trkpt>
      <trkpt lat="49.34198" lon="3.34854">
        <ele>144</ele>
        <time>2015-01-18T09:22:00Z</time>
      </trkpt>
      <trkpt lat="49.34196" lon="3.3485">
        <ele>145</ele>
        <time>2015-01-18T09:22:08Z</time>
      </trkpt>
      <trkpt lat="49.34193" lon="3.34845">
        <ele>146</ele>
        <time>2015-01-18T09:22:12Z</time>
      </trkpt>
      <trkpt lat="49.34192" lon="3.34842">
        <ele>147</ele>
        <time>2015-01-18T09:22:15Z</time>
      </trkpt>
      <trkpt lat="49.34184" lon="3.34831">
        <ele>148</ele>
        <time>2015-01-18T09:22:20Z</time>
      </trkpt>
      <trkpt lat="49.34177" lon="3.34817">
        <ele>147</ele>
        <time>2015-01-18T09:22:25Z</time>
      </trkpt>
      <trkpt lat="49.34166" lon="3.34799">
        <ele>149</ele>
        <time>2015-01-18T09:22:30Z</time>
      </trkpt>
      <trkpt lat="49.34155" lon="3.34784">
        <ele>150</ele>
        <time>2015-01-18T09:22:35Z</time>
      </trkpt>
      <trkpt lat="49.34142" lon="3.3477">
        <ele>148</ele>
        <time>2015-01-18T09:22:40Z</time>
      </trkpt>
      <trkpt lat="49.34128" lon="3.3476">
        <ele>147</ele>
        <time>2015-01-18T09:22:45Z</time>
      </trkpt>
      <trkpt lat="49.34114" lon="3.34745">
        <ele>146</ele>
        <time>2015-01-18T09:22:50Z</time>
      </trkpt>
      <trkpt lat="49.34097" lon="3.34733">
        <ele>144</ele>
        <time>2015-01-18T09:22:55Z</time>
      </trkpt>
      <trkpt lat="49.34065" lon="3.34709">
        <ele>146</ele>
        <time>2015-01-18T09:23:04Z</time>
      </trkpt>
      <trkpt lat="49.34062" lon="3.34707">
        <ele>147</ele>
        <time>2015-01-18T09:23:05Z</time>
      </trkpt>
      <trkpt lat="49.34043" lon="3.34696">
        <ele>147</ele>
        <time>2015-01-18T09:23:10Z</time>
      </trkpt>
      <trkpt lat="49.34024" lon="3.34685">
        <ele>145</ele>
        <time>2015-01-18T09:23:15Z</time>
      </trkpt>
      <trkpt lat="49.33996" lon="3.34667">
        <ele>143</ele>
        <time>2015-01-18T09:23:24Z</time>
      </trkpt>
      <trkpt lat="49.33991" lon="3.34664">
        <ele>142</ele>
        <time>2015-01-18T09:23:25Z</time>
      </trkpt>
      <trkpt lat="49.33961" lon="3.34648">
        <ele>142</ele>
        <time>2015-01-18T09:23:33Z</time>
      </trkpt>
      <trkpt lat="49.33953" lon="3.34644">
        <ele>142</ele>
        <time>2015-01-18T09:23:35Z</time>
      </trkpt>
      <trkpt lat="49.33931" lon="3.34637">
        <ele>141</ele>
        <time>2015-01-18T09:23:40Z</time>
      </trkpt>
      <trkpt lat="49.33909" lon="3.3463">
        <ele>142</ele>
        <time>2015-01-18T09:23:45Z</time>
      </trkpt>
      <trkpt lat="49.33883" lon="3.34617">
        <ele>144</ele>
        <time>2015-01-18T09:23:51Z</time>
      </trkpt>
      <trkpt lat="49.33869" lon="3.34609">
        <ele>146</ele>
        <time>2015-01-18T09:23:55Z</time>
      </trkpt>
      <trkpt lat="49.33847" lon="3.34601">
        <ele>146</ele>
        <time>2015-01-18T09:24:00Z</time>
      </trkpt>
      <trkpt lat="49.33825" lon="3.34592">
        <ele>143</ele>
        <time>2015-01-18T09:24:05Z</time>
      </trkpt>
      <trkpt lat="49.33803" lon="3.34583">
        <ele>143</ele>
        <time>2015-01-18T09:24:10Z</time>
      </trkpt>
      <trkpt lat="49.33782" lon="3.34572">
        <ele>138</ele>
        <time>2015-01-18T09:24:15Z</time>
      </trkpt>
      <trkpt lat="49.33747" lon="3.34557">
        <ele>133</ele>
        <time>2015-01-18T09:24:23Z</time>
      </trkpt>
      <trkpt lat="49.33738" lon="3.34553">
        <ele>135</ele>
        <time>2015-01-18T09:24:25Z</time>
      </trkpt>
      <trkpt lat="49.3372" lon="3.34542">
        <ele>136</ele>
        <time>2015-01-18T09:24:30Z</time>
      </trkpt>
      <trkpt lat="49.33699" lon="3.34527">
        <ele>130</ele>
        <time>2015-01-18T09:24:35Z</time>
      </trkpt>
      <trkpt lat="49.33681" lon="3.34512">
        <ele>132</ele>
        <time>2015-01-18T09:24:40Z</time>
      </trkpt>
      <trkpt lat="49.33668" lon="3.34495">
        <ele>132</ele>
        <time>2015-01-18T09:24:45Z</time>
      </trkpt>
      <trkpt lat="49.33655" lon="3.34473">
        <ele>133</ele>
        <time>2015-01-18T09:24:50Z</time>
      </trkpt>
      <trkpt lat="49.3363" lon="3.34425">
        <ele>132</ele>
        <time>2015-01-18T09:24:59Z</time>
      </trkpt>
      <trkpt lat="49.33622" lon="3.34409">
        <ele>133</ele>
        <time>2015-01-18T09:25:02Z</time>
      </trkpt>
      <trkpt lat="49.33615" lon="3.34393">
        <ele>133</ele>
        <time>2015-01-18T09:25:05Z</time>
      </trkpt>
      <trkpt lat="49.33606" lon="3.34367">
        <ele>134</ele>
        <time>2015-01-18T09:25:10Z</time>
      </trkpt>
      <trkpt lat="49.33599" lon="3.34337">
        <ele>134</ele>
        <time>2015-01-18T09:25:16Z</time>
      </trkpt>
      <trkpt lat="49.33591" lon="3.34317">
        <ele>136</ele>
        <time>2015-01-18T09:25:20Z</time>
      </trkpt>
      <trkpt lat="49.33582" lon="3.3429">
        <ele>137</ele>
        <time>2015-01-18T09:25:25Z</time>
      </trkpt>
      <trkpt lat="49.33575" lon="3.3426">
        <ele>136</ele>
        <time>2015-01-18T09:25:30Z</time>
      </trkpt>
      <trkpt lat="49.33569" lon="3.34232">
        <ele>134</ele>
        <time>2015-01-18T09:25:35Z</time>
      </trkpt>
      <trkpt lat="49.33565" lon="3.34203">
        <ele>135</ele>
        <time>2015-01-18T09:25:40Z</time>
      </trkpt>
      <trkpt lat="49.33562" lon="3.34173">
        <ele>136</ele>
        <time>2015-01-18T09:25:45Z</time>
      </trkpt>
      <trkpt lat="49.33561" lon="3.34139">
        <ele>135</ele>
        <time>2015-01-18T09:25:50Z</time>
      </trkpt>
      <trkpt lat="49.33558" lon="3.34109">
        <ele>134</ele>
        <time>2015-01-18T09:25:55Z</time>
      </trkpt>
      <trkpt lat="49.33553" lon="3.34079">
        <ele>131</ele>
        <time>2015-01-18T09:26:00Z</time>
      </trkpt>
      <trkpt lat="49.33548" lon="3.34051">
        <ele>133</ele>
        <time>2015-01-18T09:26:05Z</time>
      </trkpt>
      <trkpt lat="49.33545" lon="3.34025">
        <ele>132</ele>
        <time>2015-01-18T09:26:10Z</time>
      </trkpt>
      <trkpt lat="49.33542" lon="3.33985">
        <ele>134</ele>
        <time>2015-01-18T09:26:19Z</time>
      </trkpt>
      <trkpt lat="49.33542" lon="3.33981">
        <ele>135</ele>
        <time>2015-01-18T09:26:20Z</time>
      </trkpt>
      <trkpt lat="49.3354" lon="3.33963">
        <ele>136</ele>
        <time>2015-01-18T09:26:25Z</time>
      </trkpt>
      <trkpt lat="49.33543" lon="3.33942">
        <ele>136</ele>
        <time>2015-01-18T09:26:30Z</time>
      </trkpt>
      <trkpt lat="49.33546" lon="3.33919">
        <ele>130</ele>
        <time>2015-01-18T09:26:35Z</time>
      </trkpt>
      <trkpt lat="49.33545" lon="3.33895">
        <ele>130</ele>
        <time>2015-01-18T09:26:40Z</time>
      </trkpt>
      <trkpt lat="49.33547" lon="3.33875">
        <ele>133</ele>
        <time>2015-01-18T09:26:45Z</time>
      </trkpt>
      <trkpt lat="49.33555" lon="3.33858">
        <ele>137</ele>
        <time>2015-01-18T09:26:50Z</time>
      </trkpt>
      <trkpt lat="49.3357" lon="3.33854">
        <ele>139</ele>
        <time>2015-01-18T09:26:56Z</time>
      </trkpt>
      <trkpt lat="49.3358" lon="3.33858">
        <ele>141</ele>
        <time>2015-01-18T09:27:00Z</time>
      </trkpt>
      <trkpt lat="49.33593" lon="3.33854">
        <ele>141</ele>
        <time>2015-01-18T09:27:05Z</time>
      </trkpt>
      <trkpt lat="49.33597" lon="3.33838">
        <ele>141</ele>
        <time>2015-01-18T09:27:10Z</time>
      </trkpt>
      <trkpt lat="49.33605" lon="3.33803">
        <ele>142</ele>
        <time>2015-01-18T09:27:17Z</time>
      </trkpt>
      <trkpt lat="49.33607" lon="3.33785">
        <ele>141</ele>
        <time>2015-01-18T09:27:20Z</time>
      </trkpt>
      <trkpt lat="49.33605" lon="3.33749">
        <ele>134</ele>
        <time>2015-01-18T09:27:25Z</time>
      </trkpt>
      <trkpt lat="49.33582" lon="3.33728">
        <ele>126</ele>
        <time>2015-01-18T09:27:30Z</time>
      </trkpt>
      <trkpt lat="49.3355" lon="3.33732">
        <ele>127</ele>
        <time>2015-01-18T09:27:36Z</time>
      </trkpt>
      <trkpt lat="49.33528" lon="3.33732">
        <ele>127</ele>
        <time>2015-01-18T09:27:40Z</time>
      </trkpt>
      <trkpt lat="49.33497" lon="3.33736">
        <ele>128</ele>
        <time>2015-01-18T09:27:45Z</time>
      </trkpt>
      <trkpt lat="49.33467" lon="3.33739">
        <ele>125</ele>
        <time>2015-01-18T09:27:50Z</time>
      </trkpt>
      <trkpt lat="49.33427" lon="3.33694">
        <ele>123</ele>
        <time>2015-01-18T09:27:58Z</time>
      </trkpt>
      <trkpt lat="49.33418" lon="3.33686">
        <ele>121</ele>
        <time>2015-01-18T09:28:00Z</time>
      </trkpt>
      <trkpt lat="49.33394" lon="3.33675">
        <ele>121</ele>
        <time>2015-01-18T09:28:05Z</time>
      </trkpt>
      <trkpt lat="49.33357" lon="3.33705">
        <ele>117</ele>
        <time>2015-01-18T09:28:14Z</time>
      </trkpt>
      <trkpt lat="49.33356" lon="3.33714">
        <ele>114</ele>
        <time>2015-01-18T09:28:15Z</time>
      </trkpt>
      <trkpt lat="49.33352" lon="3.33761">
        <ele>113</ele>
        <time>2015-01-18T09:28:20Z</time>
      </trkpt>
      <trkpt lat="49.33351" lon="3.3382">
        <ele>110</ele>
        <time>2015-01-18T09:28:25Z</time>
      </trkpt>
      <trkpt lat="49.33341" lon="3.33875">
        <ele>105</ele>
        <time>2015-01-18T09:28:30Z</time>
      </trkpt>
      <trkpt lat="49.3334" lon="3.33928">
        <ele>104</ele>
        <time>2015-01-18T09:28:35Z</time>
      </trkpt>
      <trkpt lat="49.33347" lon="3.33985">
        <ele>101</ele>
        <time>2015-01-18T09:28:40Z</time>
      </trkpt>
      <trkpt lat="49.33357" lon="3.34041">
        <ele>99</ele>
        <time>2015-01-18T09:28:45Z</time>
      </trkpt>
      <trkpt lat="49.33353" lon="3.34089">
        <ele>95</ele>
        <time>2015-01-18T09:28:50Z</time>
      </trkpt>
      <trkpt lat="49.33323" lon="3.34093">
        <ele>92</ele>
        <time>2015-01-18T09:28:55Z</time>
      </trkpt>
      <trkpt lat="49.33303" lon="3.34053">
        <ele>88</ele>
        <time>2015-01-18T09:29:00Z</time>
      </trkpt>
      <trkpt lat="49.33283" lon="3.34006">
        <ele>84</ele>
        <time>2015-01-18T09:29:05Z</time>
      </trkpt>
      <trkpt lat="49.33276" lon="3.33958">
        <ele>80</ele>
        <time>2015-01-18T09:29:10Z</time>
      </trkpt>
      <trkpt lat="49.33261" lon="3.33913">
        <ele>80</ele>
        <time>2015-01-18T09:29:15Z</time>
      </trkpt>
      <trkpt lat="49.33231" lon="3.33846">
        <ele>77</ele>
        <time>2015-01-18T09:29:23Z</time>
      </trkpt>
      <trkpt lat="49.33227" lon="3.33827">
        <ele>77</ele>
        <time>2015-01-18T09:29:25Z</time>
      </trkpt>
      <trkpt lat="49.33215" lon="3.33768">
        <ele>76</ele>
        <time>2015-01-18T09:29:31Z</time>
      </trkpt>
      <trkpt lat="49.33211" lon="3.33726">
        <ele>72</ele>
        <time>2015-01-18T09:29:35Z</time>
      </trkpt>
      <trkpt lat="49.33213" lon="3.33675">
        <ele>72</ele>
        <time>2015-01-18T09:29:40Z</time>
      </trkpt>
      <trkpt lat="49.33243" lon="3.33605">
        <ele>74</ele>
        <time>2015-01-18T09:29:48Z</time>
      </trkpt>
      <trkpt lat="49.33252" lon="3.33589">
        <ele>74</ele>
        <time>2015-01-18T09:29:50Z</time>
      </trkpt>
      <trkpt lat="49.33275" lon="3.33559">
        <ele>72</ele>
        <time>2015-01-18T09:29:55Z</time>
      </trkpt>
      <trkpt lat="49.33303" lon="3.3349">
        <ele>70</ele>
        <time>2015-01-18T09:30:03Z</time>
      </trkpt>
      <trkpt lat="49.33302" lon="3.33433">
        <ele>66</ele>
        <time>2015-01-18T09:30:08Z</time>
      </trkpt>
      <trkpt lat="49.33296" lon="3.3341">
        <ele>67</ele>
        <time>2015-01-18T09:30:10Z</time>
      </trkpt>
      <trkpt lat="49.33279" lon="3.33355">
        <ele>63</ele>
        <time>2015-01-18T09:30:15Z</time>
      </trkpt>
      <trkpt lat="49.33262" lon="3.33301">
        <ele>65</ele>
        <time>2015-01-18T09:30:20Z</time>
      </trkpt>
      <trkpt lat="49.33257" lon="3.33224">
        <ele>65</ele>
        <time>2015-01-18T09:30:27Z</time>
      </trkpt>
      <trkpt lat="49.33261" lon="3.33163">
        <ele>65</ele>
        <time>2015-01-18T09:30:33Z</time>
      </trkpt>
      <trkpt lat="49.33262" lon="3.33144">
        <ele>65</ele>
        <time>2015-01-18T09:30:35Z</time>
      </trkpt>
      <trkpt lat="49.33266" lon="3.33096">
        <ele>63</ele>
        <time>2015-01-18T09:30:40Z</time>
      </trkpt>
      <trkpt lat="49.33266" lon="3.3305">
        <ele>62</ele>
        <time>2015-01-18T09:30:45Z</time>
      </trkpt>
      <trkpt lat="49.3326" lon="3.32977">
        <ele>60</ele>
        <time>2015-01-18T09:30:53Z</time>
      </trkpt>
      <trkpt lat="49.33261" lon="3.32959">
        <ele>59</ele>
        <time>2015-01-18T09:30:55Z</time>
      </trkpt>
      <trkpt lat="49.33274" lon="3.32918">
        <ele>58</ele>
        <time>2015-01-18T09:31:00Z</time>
      </trkpt>
      <trkpt lat="49.33289" lon="3.3288">
        <ele>55</ele>
        <time>2015-01-18T09:31:05Z</time>
      </trkpt>
      <trkpt lat="49.33306" lon="3.32851">
        <ele>54</ele>
        <time>2015-01-18T09:31:10Z</time>
      </trkpt>
      <trkpt lat="49.33317" lon="3.32821">
        <ele>52</ele>
        <time>2015-01-18T09:31:15Z</time>
      </trkpt>
      <trkpt lat="49.33333" lon="3.32805">
        <ele>54</ele>
        <time>2015-01-18T09:31:20Z</time>
      </trkpt>
      <trkpt lat="49.33346" lon="3.32786">
        <ele>56</ele>
        <time>2015-01-18T09:31:25Z</time>
      </trkpt>
      <trkpt lat="49.33348" lon="3.32754">
        <ele>56</ele>
        <time>2015-01-18T09:31:30Z</time>
      </trkpt>
      <trkpt lat="49.33352" lon="3.32718">
        <ele>55</ele>
        <time>2015-01-18T09:31:35Z</time>
      </trkpt>
      <trkpt lat="49.33353" lon="3.32656">
        <ele>57</ele>
        <time>2015-01-18T09:31:43Z</time>
      </trkpt>
      <trkpt lat="49.33353" lon="3.32639">
        <ele>57</ele>
        <time>2015-01-18T09:31:45Z</time>
      </trkpt>
      <trkpt lat="49.33359" lon="3.32593">
        <ele>57</ele>
        <time>2015-01-18T09:31:50Z</time>
      </trkpt>
      <trkpt lat="49.33368" lon="3.32545">
        <ele>56</ele>
        <time>2015-01-18T09:31:55Z</time>
      </trkpt>
      <trkpt lat="49.33382" lon="3.32494">
        <ele>51</ele>
        <time>2015-01-18T09:32:00Z</time>
      </trkpt>
      <trkpt lat="49.33401" lon="3.32447">
        <ele>44</ele>
        <time>2015-01-18T09:32:05Z</time>
      </trkpt>
      <trkpt lat="49.33424" lon="3.32407">
        <ele>47</ele>
        <time>2015-01-18T09:32:10Z</time>
      </trkpt>
      <trkpt lat="49.33448" lon="3.32372">
        <ele>44</ele>
        <time>2015-01-18T09:32:15Z</time>
      </trkpt>
      <trkpt lat="49.33472" lon="3.32336">
        <ele>45</ele>
        <time>2015-01-18T09:32:20Z</time>
      </trkpt>
      <trkpt lat="49.33503" lon="3.32296">
        <ele>44</ele>
        <time>2015-01-18T09:32:26Z</time>
      </trkpt>
      <trkpt lat="49.33521" lon="3.32267">
        <ele>45</ele>
        <time>2015-01-18T09:32:30Z</time>
      </trkpt>
      <trkpt lat="49.3355" lon="3.32243">
        <ele>49</ele>
        <time>2015-01-18T09:32:35Z</time>
      </trkpt>
      <trkpt lat="49.33578" lon="3.32217">
        <ele>48</ele>
        <time>2015-01-18T09:32:40Z</time>
      </trkpt>
      <trkpt lat="49.33605" lon="3.32199">
        <ele>48</ele>
        <time>2015-01-18T09:32:45Z</time>
      </trkpt>
      <trkpt lat="49.33636" lon="3.32175">
        <ele>48</ele>
        <time>2015-01-18T09:32:51Z</time>
      </trkpt>
      <trkpt lat="49.33657" lon="3.3216">
        <ele>49</ele>
        <time>2015-01-18T09:32:55Z</time>
      </trkpt>
      <trkpt lat="49.33681" lon="3.32145">
        <ele>52</ele>
        <time>2015-01-18T09:33:00Z</time>
      </trkpt>
      <trkpt lat="49.33706" lon="3.32123">
        <ele>51</ele>
        <time>2015-01-18T09:33:05Z</time>
      </trkpt>
      <trkpt lat="49.33732" lon="3.32106">
        <ele>48</ele>
        <time>2015-01-18T09:33:11Z</time>
      </trkpt>
      <trkpt lat="49.33748" lon="3.32092">
        <ele>47</ele>
        <time>2015-01-18T09:33:15Z</time>
      </trkpt>
      <trkpt lat="49.33763" lon="3.32076">
        <ele>49</ele>
        <time>2015-01-18T09:33:20Z</time>
      </trkpt>
      <trkpt lat="49.3378" lon="3.32061">
        <ele>52</ele>
        <time>2015-01-18T09:33:25Z</time>
      </trkpt>
      <trkpt lat="49.33805" lon="3.32029">
        <ele>52</ele>
        <time>2015-01-18T09:33:32Z</time>
      </trkpt>
      <trkpt lat="49.33811" lon="3.32014">
        <ele>52</ele>
        <time>2015-01-18T09:33:35Z</time>
      </trkpt>
      <trkpt lat="49.3382" lon="3.31992">
        <ele>53</ele>
        <time>2015-01-18T09:33:40Z</time>
      </trkpt>
      <trkpt lat="49.33825" lon="3.31966">
        <ele>54</ele>
        <time>2015-01-18T09:33:45Z</time>
      </trkpt>
      <trkpt lat="49.3383" lon="3.31936">
        <ele>55</ele>
        <time>2015-01-18T09:33:51Z</time>
      </trkpt>
      <trkpt lat="49.33834" lon="3.31915">
        <ele>54</ele>
        <time>2015-01-18T09:33:55Z</time>
      </trkpt>
      <trkpt lat="49.33839" lon="3.31892">
        <ele>55</ele>
        <time>2015-01-18T09:34:00Z</time>
      </trkpt>
      <trkpt lat="49.33845" lon="3.31862">
        <ele>58</ele>
        <time>2015-01-18T09:34:06Z</time>
      </trkpt>
      <trkpt lat="49.3385" lon="3.3184">
        <ele>58</ele>
        <time>2015-01-18T09:34:10Z</time>
      </trkpt>
      <trkpt lat="49.33857" lon="3.31812">
        <ele>57</ele>
        <time>2015-01-18T09:34:15Z</time>
      </trkpt>
      <trkpt lat="49.33863" lon="3.31784">
        <ele>57</ele>
        <time>2015-01-18T09:34:20Z</time>
      </trkpt>
      <trkpt lat="49.33869" lon="3.31755">
        <ele>57</ele>
        <time>2015-01-18T09:34:25Z</time>
      </trkpt>
      <trkpt lat="49.33877" lon="3.31727">
        <ele>54</ele>
        <time>2015-01-18T09:34:30Z</time>
      </trkpt>
      <trkpt lat="49.33886" lon="3.317">
        <ele>57</ele>
        <time>2015-01-18T09:34:35Z</time>
      </trkpt>
      <trkpt lat="49.33911" lon="3.31658">
        <ele>63</ele>
        <time>2015-01-18T09:34:44Z</time>
      </trkpt>
      <trkpt lat="49.33923" lon="3.31643">
        <ele>64</ele>
        <time>2015-01-18T09:34:48Z</time>
      </trkpt>
      <trkpt lat="49.3393" lon="3.31635">
        <ele>65</ele>
        <time>2015-01-18T09:34:50Z</time>
      </trkpt>
      <trkpt lat="49.33945" lon="3.31616">
        <ele>66</ele>
        <time>2015-01-18T09:34:55Z</time>
      </trkpt>
      <trkpt lat="49.3396" lon="3.31596">
        <ele>66</ele>
        <time>2015-01-18T09:35:00Z</time>
      </trkpt>
      <trkpt lat="49.33974" lon="3.31576">
        <ele>66</ele>
        <time>2015-01-18T09:35:05Z</time>
      </trkpt>
      <trkpt lat="49.33987" lon="3.31553">
        <ele>67</ele>
        <time>2015-01-18T09:35:10Z</time>
      </trkpt>
      <trkpt lat="49.34001" lon="3.31525">
        <ele>68</ele>
        <time>2015-01-18T09:35:16Z</time>
      </trkpt>
      <trkpt lat="49.34011" lon="3.31508">
        <ele>67</ele>
        <time>2015-01-18T09:35:20Z</time>
      </trkpt>
      <trkpt lat="49.34022" lon="3.31481">
        <ele>64</ele>
        <time>2015-01-18T09:35:25Z</time>
      </trkpt>
      <trkpt lat="49.34031" lon="3.31456">
        <ele>65</ele>
        <time>2015-01-18T09:35:30Z</time>
      </trkpt>
      <trkpt lat="49.34038" lon="3.31431">
        <ele>66</ele>
        <time>2015-01-18T09:35:35Z</time>
      </trkpt>
      <trkpt lat="49.34036" lon="3.31411">
        <ele>68</ele>
        <time>2015-01-18T09:35:40Z</time>
      </trkpt>
      <trkpt lat="49.34032" lon="3.31391">
        <ele>67</ele>
        <time>2015-01-18T09:35:45Z</time>
      </trkpt>
      <trkpt lat="49.34026" lon="3.31375">
        <ele>68</ele>
        <time>2015-01-18T09:35:50Z</time>
      </trkpt>
      <trkpt lat="49.34018" lon="3.31356">
        <ele>69</ele>
        <time>2015-01-18T09:35:55Z</time>
      </trkpt>
      <trkpt lat="49.3401" lon="3.31337">
        <ele>68</ele>
        <time>2015-01-18T09:36:00Z</time>
      </trkpt>
      <trkpt lat="49.34002" lon="3.31318">
        <ele>68</ele>
        <time>2015-01-18T09:36:05Z</time>
      </trkpt>
      <trkpt lat="49.33994" lon="3.31297">
        <ele>68</ele>
        <time>2015-01-18T09:36:10Z</time>
      </trkpt>
      <trkpt lat="49.33986" lon="3.31278">
        <ele>69</ele>
        <time>2015-01-18T09:36:15Z</time>
      </trkpt>
      <trkpt lat="49.33972" lon="3.31245">
        <ele>69</ele>
        <time>2015-01-18T09:36:23Z</time>
      </trkpt>
      <trkpt lat="49.3397" lon="3.31237">
        <ele>69</ele>
        <time>2015-01-18T09:36:25Z</time>
      </trkpt>
      <trkpt lat="49.33962" lon="3.31217">
        <ele>68</ele>
        <time>2015-01-18T09:36:30Z</time>
      </trkpt>
      <trkpt lat="49.33952" lon="3.31192">
        <ele>67</ele>
        <time>2015-01-18T09:36:36Z</time>
      </trkpt>
      <trkpt lat="49.33946" lon="3.31173">
        <ele>66</ele>
        <time>2015-01-18T09:36:40Z</time>
      </trkpt>
      <trkpt lat="49.33936" lon="3.3115">
        <ele>68</ele>
        <time>2015-01-18T09:36:45Z</time>
      </trkpt>
      <trkpt lat="49.33926" lon="3.31122">
        <ele>69</ele>
        <time>2015-01-18T09:36:51Z</time>
      </trkpt>
      <trkpt lat="49.33919" lon="3.31105">
        <ele>71</ele>
        <time>2015-01-18T09:36:55Z</time>
      </trkpt>
      <trkpt lat="49.3391" lon="3.31082">
        <ele>71</ele>
        <time>2015-01-18T09:37:00Z</time>
      </trkpt>
      <trkpt lat="49.339" lon="3.31058">
        <ele>71</ele>
        <time>2015-01-18T09:37:05Z</time>
      </trkpt>
      <trkpt lat="49.33886" lon="3.3102">
        <ele>73</ele>
        <time>2015-01-18T09:37:13Z</time>
      </trkpt>
      <trkpt lat="49.33882" lon="3.3101">
        <ele>74</ele>
        <time>2015-01-18T09:37:15Z</time>
      </trkpt>
      <trkpt lat="49.33873" lon="3.30985">
        <ele>74</ele>
        <time>2015-01-18T09:37:20Z</time>
      </trkpt>
      <trkpt lat="49.33863" lon="3.3096">
        <ele>74</ele>
        <time>2015-01-18T09:37:25Z</time>
      </trkpt>
      <trkpt lat="49.33853" lon="3.30935">
        <ele>75</ele>
        <time>2015-01-18T09:37:30Z</time>
      </trkpt>
      <trkpt lat="49.33846" lon="3.3091">
        <ele>75</ele>
        <time>2015-01-18T09:37:35Z</time>
      </trkpt>
      <trkpt lat="49.33841" lon="3.30888">
        <ele>75</ele>
        <time>2015-01-18T09:37:40Z</time>
      </trkpt>
      <trkpt lat="49.33837" lon="3.30867">
        <ele>75</ele>
        <time>2015-01-18T09:37:45Z</time>
      </trkpt>
      <trkpt lat="49.33834" lon="3.30845">
        <ele>76</ele>
        <time>2015-01-18T09:37:50Z</time>
      </trkpt>
      <trkpt lat="49.3383" lon="3.30825">
        <ele>76</ele>
        <time>2015-01-18T09:37:55Z</time>
      </trkpt>
      <trkpt lat="49.33824" lon="3.30799">
        <ele>76</ele>
        <time>2015-01-18T09:38:02Z</time>
      </trkpt>
      <trkpt lat="49.33822" lon="3.30786">
        <ele>76</ele>
        <time>2015-01-18T09:38:05Z</time>
      </trkpt>
      <trkpt lat="49.33815" lon="3.30766">
        <ele>79</ele>
        <time>2015-01-18T09:38:10Z</time>
      </trkpt>
      <trkpt lat="49.3381" lon="3.30747">
        <ele>79</ele>
        <time>2015-01-18T09:38:15Z</time>
      </trkpt>
      <trkpt lat="49.33804" lon="3.30728">
        <ele>80</ele>
        <time>2015-01-18T09:38:20Z</time>
      </trkpt>
      <trkpt lat="49.33799" lon="3.30707">
        <ele>82</ele>
        <time>2015-01-18T09:38:25Z</time>
      </trkpt>
      <trkpt lat="49.33793" lon="3.30681">
        <ele>82</ele>
        <time>2015-01-18T09:38:30Z</time>
      </trkpt>
      <trkpt lat="49.33786" lon="3.3065">
        <ele>80</ele>
        <time>2015-01-18T09:38:35Z</time>
      </trkpt>
      <trkpt lat="49.33776" lon="3.30613">
        <ele>77</ele>
        <time>2015-01-18T09:38:40Z</time>
      </trkpt>
      <trkpt lat="49.33755" lon="3.30536">
        <ele>78</ele>
        <time>2015-01-18T09:38:48Z</time>
      </trkpt>
      <trkpt lat="49.3375" lon="3.30513">
        <ele>77</ele>
        <time>2015-01-18T09:38:50Z</time>
      </trkpt>
      <trkpt lat="49.33736" lon="3.30457">
        <ele>76</ele>
        <time>2015-01-18T09:38:55Z</time>
      </trkpt>
      <trkpt lat="49.33724" lon="3.30409">
        <ele>76</ele>
        <time>2015-01-18T09:39:00Z</time>
      </trkpt>
      <trkpt lat="49.33707" lon="3.30354">
        <ele>77</ele>
        <time>2015-01-18T09:39:08Z</time>
      </trkpt>
      <trkpt lat="49.33706" lon="3.30342">
        <ele>78</ele>
        <time>2015-01-18T09:39:10Z</time>
      </trkpt>
      <trkpt lat="49.33698" lon="3.30319">
        <ele>80</ele>
        <time>2015-01-18T09:39:15Z</time>
      </trkpt>
      <trkpt lat="49.33692" lon="3.30294">
        <ele>82</ele>
        <time>2015-01-18T09:39:20Z</time>
      </trkpt>
      <trkpt lat="49.33681" lon="3.30257">
        <ele>81</ele>
        <time>2015-01-18T09:39:28Z</time>
      </trkpt>
      <trkpt lat="49.33678" lon="3.30249">
        <ele>82</ele>
        <time>2015-01-18T09:39:30Z</time>
      </trkpt>
      <trkpt lat="49.33675" lon="3.30231">
        <ele>83</ele>
        <time>2015-01-18T09:39:35Z</time>
      </trkpt>
      <trkpt lat="49.33673" lon="3.30214">
        <ele>83</ele>
        <time>2015-01-18T09:39:40Z</time>
      </trkpt>
      <trkpt lat="49.33671" lon="3.30197">
        <ele>84</ele>
        <time>2015-01-18T09:39:45Z</time>
      </trkpt>
      <trkpt lat="49.33665" lon="3.30178">
        <ele>85</ele>
        <time>2015-01-18T09:39:50Z</time>
      </trkpt>
      <trkpt lat="49.33656" lon="3.30156">
        <ele>84</ele>
        <time>2015-01-18T09:39:55Z</time>
      </trkpt>
      <trkpt lat="49.33647" lon="3.30133">
        <ele>85</ele>
        <time>2015-01-18T09:40:00Z</time>
      </trkpt>
      <trkpt lat="49.33636" lon="3.3011">
        <ele>83</ele>
        <time>2015-01-18T09:40:05Z</time>
      </trkpt>
      <trkpt lat="49.33624" lon="3.30085">
        <ele>82</ele>
        <time>2015-01-18T09:40:10Z</time>
      </trkpt>
      <trkpt lat="49.33612" lon="3.30058">
        <ele>83</ele>
        <time>2015-01-18T09:40:15Z</time>
      </trkpt>
      <trkpt lat="49.336" lon="3.30033">
        <ele>82</ele>
        <time>2015-01-18T09:40:20Z</time>
      </trkpt>
      <trkpt lat="49.33588" lon="3.30008">
        <ele>83</ele>
        <time>2015-01-18T09:40:25Z</time>
      </trkpt>
      <trkpt lat="49.33577" lon="3.29983">
        <ele>83</ele>
        <time>2015-01-18T09:40:30Z</time>
      </trkpt>
      <trkpt lat="49.33566" lon="3.29961">
        <ele>84</ele>
        <time>2015-01-18T09:40:35Z</time>
      </trkpt>
      <trkpt lat="49.33555" lon="3.2994">
        <ele>87</ele>
        <time>2015-01-18T09:40:40Z</time>
      </trkpt>
      <trkpt lat="49.33544" lon="3.29919">
        <ele>88</ele>
        <time>2015-01-18T09:40:45Z</time>
      </trkpt>
      <trkpt lat="49.33527" lon="3.29879">
        <ele>88</ele>
        <time>2015-01-18T09:40:54Z</time>
      </trkpt>
      <trkpt lat="49.33516" lon="3.29857">
        <ele>88</ele>
        <time>2015-01-18T09:40:59Z</time>
      </trkpt>
      <trkpt lat="49.33514" lon="3.29853">
        <ele>88</ele>
        <time>2015-01-18T09:41:00Z</time>
      </trkpt>
      <trkpt lat="49.33503" lon="3.2983">
        <ele>89</ele>
        <time>2015-01-18T09:41:05Z</time>
      </trkpt>
      <trkpt lat="49.33491" lon="3.29805">
        <ele>90</ele>
        <time>2015-01-18T09:41:10Z</time>
      </trkpt>
      <trkpt lat="49.33479" lon="3.2978">
        <ele>88</ele>
        <time>2015-01-18T09:41:15Z</time>
      </trkpt>
      <trkpt lat="49.33468" lon="3.29754">
        <ele>87</ele>
        <time>2015-01-18T09:41:20Z</time>
      </trkpt>
      <trkpt lat="49.33453" lon="3.29729">
        <ele>86</ele>
        <time>2015-01-18T09:41:25Z</time>
      </trkpt>
      <trkpt lat="49.33442" lon="3.29703">
        <ele>88</ele>
        <time>2015-01-18T09:41:30Z</time>
      </trkpt>
      <trkpt lat="49.33432" lon="3.29679">
        <ele>90</ele>
        <time>2015-01-18T09:41:35Z</time>
      </trkpt>
      <trkpt lat="49.33422" lon="3.29651">
        <ele>91</ele>
        <time>2015-01-18T09:41:41Z</time>
      </trkpt>
      <trkpt lat="49.33417" lon="3.29633">
        <ele>92</ele>
        <time>2015-01-18T09:41:45Z</time>
      </trkpt>
      <trkpt lat="49.33407" lon="3.29614">
        <ele>93</ele>
        <time>2015-01-18T09:41:50Z</time>
      </trkpt>
      <trkpt lat="49.33398" lon="3.29597">
        <ele>96</ele>
        <time>2015-01-18T09:41:55Z</time>
      </trkpt>
      <trkpt lat="49.33387" lon="3.29582">
        <ele>96</ele>
        <time>2015-01-18T09:42:00Z</time>
      </trkpt>
      <trkpt lat="49.33376" lon="3.29566">
        <ele>96</ele>
        <time>2015-01-18T09:42:05Z</time>
      </trkpt>
      <trkpt lat="49.33363" lon="3.29552">
        <ele>96</ele>
        <time>2015-01-18T09:42:10Z</time>
      </trkpt>
      <trkpt lat="49.33349" lon="3.29541">
        <ele>97</ele>
        <time>2015-01-18T09:42:15Z</time>
      </trkpt>
      <trkpt lat="49.33339" lon="3.29531">
        <ele>97</ele>
        <time>2015-01-18T09:42:20Z</time>
      </trkpt>
      <trkpt lat="49.3333" lon="3.29513">
        <ele>97</ele>
        <time>2015-01-18T09:42:25Z</time>
      </trkpt>
      <trkpt lat="49.33316" lon="3.29491">
        <ele>96</ele>
        <time>2015-01-18T09:42:30Z</time>
      </trkpt>
      <trkpt lat="49.33298" lon="3.29464">
        <ele>95</ele>
        <time>2015-01-18T09:42:36Z</time>
      </trkpt>
      <trkpt lat="49.33284" lon="3.29444">
        <ele>95</ele>
        <time>2015-01-18T09:42:40Z</time>
      </trkpt>
      <trkpt lat="49.3327" lon="3.29416">
        <ele>93</ele>
        <time>2015-01-18T09:42:45Z</time>
      </trkpt>
      <trkpt lat="49.33257" lon="3.2939">
        <ele>93</ele>
        <time>2015-01-18T09:42:50Z</time>
      </trkpt>
      <trkpt lat="49.3325" lon="3.29356">
        <ele>93</ele>
        <time>2015-01-18T09:42:55Z</time>
      </trkpt>
      <trkpt lat="49.33243" lon="3.29308">
        <ele>92</ele>
        <time>2015-01-18T09:43:00Z</time>
      </trkpt>
      <trkpt lat="49.33236" lon="3.29254">
        <ele>89</ele>
        <time>2015-01-18T09:43:05Z</time>
      </trkpt>
      <trkpt lat="49.33216" lon="3.29208">
        <ele>85</ele>
        <time>2015-01-18T09:43:10Z</time>
      </trkpt>
      <trkpt lat="49.33192" lon="3.29163">
        <ele>81</ele>
        <time>2015-01-18T09:43:15Z</time>
      </trkpt>
      <trkpt lat="49.33166" lon="3.29127">
        <ele>81</ele>
        <time>2015-01-18T09:43:20Z</time>
      </trkpt>
      <trkpt lat="49.33149" lon="3.29102">
        <ele>80</ele>
        <time>2015-01-18T09:43:25Z</time>
      </trkpt>
      <trkpt lat="49.3314" lon="3.29098">
        <ele>83</ele>
        <time>2015-01-18T09:43:30Z</time>
      </trkpt>
      <trkpt lat="49.33131" lon="3.29105">
        <ele>83</ele>
        <time>2015-01-18T09:43:35Z</time>
      </trkpt>
      <trkpt lat="49.33113" lon="3.29105">
        <ele>84</ele>
        <time>2015-01-18T09:43:42Z</time>
      </trkpt>
      <trkpt lat="49.33108" lon="3.29102">
        <ele>83</ele>
        <time>2015-01-18T09:43:45Z</time>
      </trkpt>
      <trkpt lat="49.331" lon="3.2909">
        <ele>81</ele>
        <time>2015-01-18T09:43:50Z</time>
      </trkpt>
      <trkpt lat="49.33092" lon="3.29077">
        <ele>86</ele>
        <time>2015-01-18T09:43:56Z</time>
      </trkpt>
      <trkpt lat="49.3308" lon="3.29056">
        <ele>89</ele>
        <time>2015-01-18T09:44:04Z</time>
      </trkpt>
      <trkpt lat="49.33078" lon="3.29053">
        <ele>89</ele>
        <time>2015-01-18T09:44:05Z</time>
      </trkpt>
      <trkpt lat="49.33076" lon="3.29042">
        <ele>94</ele>
        <time>2015-01-18T09:44:10Z</time>
      </trkpt>
      <trkpt lat="49.33071" lon="3.29027">
        <ele>95</ele>
        <time>2015-01-18T09:44:15Z</time>
      </trkpt>
      <trkpt lat="49.33066" lon="3.29016">
        <ele>93</ele>
        <time>2015-01-18T09:44:20Z</time>
      </trkpt>
      <trkpt lat="49.3306" lon="3.29004">
        <ele>91</ele>
        <time>2015-01-18T09:44:25Z</time>
      </trkpt>
      <trkpt lat="49.33053" lon="3.28991">
        <ele>90</ele>
        <time>2015-01-18T09:44:30Z</time>
      </trkpt>
      <trkpt lat="49.33047" lon="3.2898">
        <ele>89</ele>
        <time>2015-01-18T09:44:35Z</time>
      </trkpt>
      <trkpt lat="49.33043" lon="3.28965">
        <ele>93</ele>
        <time>2015-01-18T09:44:41Z</time>
      </trkpt>
      <trkpt lat="49.33032" lon="3.28945">
        <ele>95</ele>
        <time>2015-01-18T09:44:48Z</time>
      </trkpt>
      <trkpt lat="49.33022" lon="3.28931">
        <ele>98</ele>
        <time>2015-01-18T09:44:54Z</time>
      </trkpt>
      <trkpt lat="49.33021" lon="3.2893">
        <ele>96</ele>
        <time>2015-01-18T09:44:55Z</time>
      </trkpt>
      <trkpt lat="49.33017" lon="3.28918">
        <ele>87</ele>
        <time>2015-01-18T09:45:00Z</time>
      </trkpt>
      <trkpt lat="49.3301" lon="3.2891">
        <ele>86</ele>
        <time>2015-01-18T09:45:06Z</time>
      </trkpt>
      <trkpt lat="49.33004" lon="3.28897">
        <ele>89</ele>
        <time>2015-01-18T09:45:12Z</time>
      </trkpt>
      <trkpt lat="49.33001" lon="3.2889">
        <ele>87</ele>
        <time>2015-01-18T09:45:15Z</time>
      </trkpt>
      <trkpt lat="49.32999" lon="3.2888">
        <ele>86</ele>
        <time>2015-01-18T09:45:20Z</time>
      </trkpt>
      <trkpt lat="49.32993" lon="3.28872">
        <ele>86</ele>
        <time>2015-01-18T09:45:25Z</time>
      </trkpt>
      <trkpt lat="49.32987" lon="3.2886">
        <ele>86</ele>
        <time>2015-01-18T09:45:31Z</time>
      </trkpt>
      <trkpt lat="49.32981" lon="3.28854">
        <ele>90</ele>
        <time>2015-01-18T09:45:35Z</time>
      </trkpt>
      <trkpt lat="49.32974" lon="3.28842">
        <ele>92</ele>
        <time>2015-01-18T09:45:40Z</time>
      </trkpt>
      <trkpt lat="49.32969" lon="3.28831">
        <ele>95</ele>
        <time>2015-01-18T09:45:45Z</time>
      </trkpt>
      <trkpt lat="49.32963" lon="3.28819">
        <ele>100</ele>
        <time>2015-01-18T09:45:50Z</time>
      </trkpt>
      <trkpt lat="49.32954" lon="3.28804">
        <ele>98</ele>
        <time>2015-01-18T09:45:57Z</time>
      </trkpt>
      <trkpt lat="49.3295" lon="3.28798">
        <ele>95</ele>
        <time>2015-01-18T09:46:00Z</time>
      </trkpt>
      <trkpt lat="49.32937" lon="3.28776">
        <ele>92</ele>
        <time>2015-01-18T09:46:09Z</time>
      </trkpt>
      <trkpt lat="49.32936" lon="3.28775">
        <ele>93</ele>
        <time>2015-01-18T09:46:10Z</time>
      </trkpt>
      <trkpt lat="49.32928" lon="3.28759">
        <ele>95</ele>
        <time>2015-01-18T09:46:19Z</time>
      </trkpt>
      <trkpt lat="49.32926" lon="3.28757">
        <ele>95</ele>
        <time>2015-01-18T09:46:20Z</time>
      </trkpt>
      <trkpt lat="49.32922" lon="3.28747">
        <ele>97</ele>
        <time>2015-01-18T09:46:25Z</time>
      </trkpt>
      <trkpt lat="49.32916" lon="3.28738">
        <ele>98</ele>
        <time>2015-01-18T09:46:30Z</time>
      </trkpt>
      <trkpt lat="49.32911" lon="3.28729">
        <ele>99</ele>
        <time>2015-01-18T09:46:35Z</time>
      </trkpt>
      <trkpt lat="49.32905" lon="3.28722">
        <ele>103</ele>
        <time>2015-01-18T09:46:40Z</time>
      </trkpt>
      <trkpt lat="49.32898" lon="3.2871">
        <ele>104</ele>
        <time>2015-01-18T09:46:45Z</time>
      </trkpt>
      <trkpt lat="49.32887" lon="3.28695">
        <ele>106</ele>
        <time>2015-01-18T09:46:54Z</time>
      </trkpt>
      <trkpt lat="49.32886" lon="3.28692">
        <ele>107</ele>
        <time>2015-01-18T09:46:55Z</time>
      </trkpt>
      <trkpt lat="49.32882" lon="3.28682">
        <ele>108</ele>
        <time>2015-01-18T09:47:00Z</time>
      </trkpt>
      <trkpt lat="49.32877" lon="3.28672">
        <ele>110</ele>
        <time>2015-01-18T09:47:05Z</time>
      </trkpt>
      <trkpt lat="49.32871" lon="3.28659">
        <ele>110</ele>
        <time>2015-01-18T09:47:10Z</time>
      </trkpt>
      <trkpt lat="49.32864" lon="3.28633">
        <ele>112</ele>
        <time>2015-01-18T09:47:19Z</time>
      </trkpt>
      <trkpt lat="49.32863" lon="3.28631">
        <ele>113</ele>
        <time>2015-01-18T09:47:20Z</time>
      </trkpt>
      <trkpt lat="49.32856" lon="3.28618">
        <ele>112</ele>
        <time>2015-01-18T09:47:25Z</time>
      </trkpt>
      <trkpt lat="49.3285" lon="3.28605">
        <ele>111</ele>
        <time>2015-01-18T09:47:30Z</time>
      </trkpt>
      <trkpt lat="49.32844" lon="3.28592">
        <ele>112</ele>
        <time>2015-01-18T09:47:35Z</time>
      </trkpt>
      <trkpt lat="49.32838" lon="3.28578">
        <ele>112</ele>
        <time>2015-01-18T09:47:40Z</time>
      </trkpt>
      <trkpt lat="49.32832" lon="3.28562">
        <ele>108</ele>
        <time>2015-01-18T09:47:45Z</time>
      </trkpt>
      <trkpt lat="49.32823" lon="3.28536">
        <ele>109</ele>
        <time>2015-01-18T09:47:53Z</time>
      </trkpt>
      <trkpt lat="49.32819" lon="3.28527">
        <ele>110</ele>
        <time>2015-01-18T09:47:56Z</time>
      </trkpt>
      <trkpt lat="49.32815" lon="3.2851">
        <ele>108</ele>
        <time>2015-01-18T09:48:01Z</time>
      </trkpt>
      <trkpt lat="49.32813" lon="3.28496">
        <ele>110</ele>
        <time>2015-01-18T09:48:05Z</time>
      </trkpt>
      <trkpt lat="49.3281" lon="3.28473">
        <ele>114</ele>
        <time>2015-01-18T09:48:11Z</time>
      </trkpt>
      <trkpt lat="49.32808" lon="3.28443">
        <ele>114</ele>
        <time>2015-01-18T09:48:17Z</time>
      </trkpt>
      <trkpt lat="49.32807" lon="3.28429">
        <ele>114</ele>
        <time>2015-01-18T09:48:20Z</time>
      </trkpt>
      <trkpt lat="49.32807" lon="3.28407">
        <ele>117</ele>
        <time>2015-01-18T09:48:25Z</time>
      </trkpt>
      <trkpt lat="49.32806" lon="3.28386">
        <ele>119</ele>
        <time>2015-01-18T09:48:30Z</time>
      </trkpt>
      <trkpt lat="49.32806" lon="3.28363">
        <ele>119</ele>
        <time>2015-01-18T09:48:35Z</time>
      </trkpt>
      <trkpt lat="49.32807" lon="3.2834">
        <ele>119</ele>
        <time>2015-01-18T09:48:40Z</time>
      </trkpt>
      <trkpt lat="49.32808" lon="3.28318">
        <ele>120</ele>
        <time>2015-01-18T09:48:45Z</time>
      </trkpt>
      <trkpt lat="49.3281" lon="3.28278">
        <ele>124</ele>
        <time>2015-01-18T09:48:54Z</time>
      </trkpt>
      <trkpt lat="49.3281" lon="3.28274">
        <ele>124</ele>
        <time>2015-01-18T09:48:55Z</time>
      </trkpt>
      <trkpt lat="49.32814" lon="3.28252">
        <ele>124</ele>
        <time>2015-01-18T09:49:00Z</time>
      </trkpt>
      <trkpt lat="49.32818" lon="3.28232">
        <ele>125</ele>
        <time>2015-01-18T09:49:05Z</time>
      </trkpt>
      <trkpt lat="49.32824" lon="3.2821">
        <ele>126</ele>
        <time>2015-01-18T09:49:10Z</time>
      </trkpt>
      <trkpt lat="49.32829" lon="3.28188">
        <ele>126</ele>
        <time>2015-01-18T09:49:15Z</time>
      </trkpt>
      <trkpt lat="49.32835" lon="3.28165">
        <ele>127</ele>
        <time>2015-01-18T09:49:20Z</time>
      </trkpt>
      <trkpt lat="49.3284" lon="3.28142">
        <ele>126</ele>
        <time>2015-01-18T09:49:25Z</time>
      </trkpt>
      <trkpt lat="49.32845" lon="3.28121">
        <ele>126</ele>
        <time>2015-01-18T09:49:30Z</time>
      </trkpt>
      <trkpt lat="49.32849" lon="3.28098">
        <ele>125</ele>
        <time>2015-01-18T09:49:35Z</time>
      </trkpt>
      <trkpt lat="49.32855" lon="3.28077">
        <ele>128</ele>
        <time>2015-01-18T09:49:40Z</time>
      </trkpt>
      <trkpt lat="49.3286" lon="3.28056">
        <ele>129</ele>
        <time>2015-01-18T09:49:45Z</time>
      </trkpt>
      <trkpt lat="49.32865" lon="3.28033">
        <ele>129</ele>
        <time>2015-01-18T09:49:50Z</time>
      </trkpt>
      <trkpt lat="49.3287" lon="3.28012">
        <ele>129</ele>
        <time>2015-01-18T09:49:55Z</time>
      </trkpt>
      <trkpt lat="49.32876" lon="3.27989">
        <ele>129</ele>
        <time>2015-01-18T09:50:00Z</time>
      </trkpt>
      <trkpt lat="49.32882" lon="3.27965">
        <ele>129</ele>
        <time>2015-01-18T09:50:05Z</time>
      </trkpt>
      <trkpt lat="49.32886" lon="3.27942">
        <ele>128</ele>
        <time>2015-01-18T09:50:10Z</time>
      </trkpt>
      <trkpt lat="49.32891" lon="3.2792">
        <ele>128</ele>
        <time>2015-01-18T09:50:15Z</time>
      </trkpt>
      <trkpt lat="49.32896" lon="3.27897">
        <ele>128</ele>
        <time>2015-01-18T09:50:20Z</time>
      </trkpt>
      <trkpt lat="49.32902" lon="3.27873">
        <ele>129</ele>
        <time>2015-01-18T09:50:25Z</time>
      </trkpt>
      <trkpt lat="49.32906" lon="3.27851">
        <ele>129</ele>
        <time>2015-01-18T09:50:30Z</time>
      </trkpt>
      <trkpt lat="49.32913" lon="3.27822">
        <ele>131</ele>
        <time>2015-01-18T09:50:36Z</time>
      </trkpt>
      <trkpt lat="49.32918" lon="3.27803">
        <ele>131</ele>
        <time>2015-01-18T09:50:40Z</time>
      </trkpt>
      <trkpt lat="49.32923" lon="3.2778">
        <ele>132</ele>
        <time>2015-01-18T09:50:45Z</time>
      </trkpt>
      <trkpt lat="49.32929" lon="3.27756">
        <ele>132</ele>
        <time>2015-01-18T09:50:50Z</time>
      </trkpt>
      <trkpt lat="49.32934" lon="3.27734">
        <ele>133</ele>
        <time>2015-01-18T09:50:55Z</time>
      </trkpt>
      <trkpt lat="49.32939" lon="3.2771">
        <ele>134</ele>
        <time>2015-01-18T09:51:00Z</time>
      </trkpt>
      <trkpt lat="49.32944" lon="3.27686">
        <ele>134</ele>
        <time>2015-01-18T09:51:05Z</time>
      </trkpt>
      <trkpt lat="49.32949" lon="3.27663">
        <ele>133</ele>
        <time>2015-01-18T09:51:10Z</time>
      </trkpt>
      <trkpt lat="49.32953" lon="3.27642">
        <ele>135</ele>
        <time>2015-01-18T09:51:15Z</time>
      </trkpt>
      <trkpt lat="49.32957" lon="3.27617">
        <ele>134</ele>
        <time>2015-01-18T09:51:20Z</time>
      </trkpt>
      <trkpt lat="49.3296" lon="3.27592">
        <ele>135</ele>
        <time>2015-01-18T09:51:25Z</time>
      </trkpt>
      <trkpt lat="49.32964" lon="3.27563">
        <ele>135</ele>
        <time>2015-01-18T09:51:30Z</time>
      </trkpt>
      <trkpt lat="49.32968" lon="3.27533">
        <ele>136</ele>
        <time>2015-01-18T09:51:35Z</time>
      </trkpt>
      <trkpt lat="49.32972" lon="3.27503">
        <ele>136</ele>
        <time>2015-01-18T09:51:40Z</time>
      </trkpt>
      <trkpt lat="49.32977" lon="3.27471">
        <ele>136</ele>
        <time>2015-01-18T09:51:45Z</time>
      </trkpt>
      <trkpt lat="49.32979" lon="3.2744">
        <ele>136</ele>
        <time>2015-01-18T09:51:50Z</time>
      </trkpt>
      <trkpt lat="49.32983" lon="3.27411">
        <ele>137</ele>
        <time>2015-01-18T09:51:55Z</time>
      </trkpt>
      <trkpt lat="49.32987" lon="3.27385">
        <ele>139</ele>
        <time>2015-01-18T09:52:00Z</time>
      </trkpt>
      <trkpt lat="49.32992" lon="3.27352">
        <ele>143</ele>
        <time>2015-01-18T09:52:06Z</time>
      </trkpt>
      <trkpt lat="49.32995" lon="3.27329">
        <ele>142</ele>
        <time>2015-01-18T09:52:10Z</time>
      </trkpt>
      <trkpt lat="49.32998" lon="3.27299">
        <ele>143</ele>
        <time>2015-01-18T09:52:15Z</time>
      </trkpt>
      <trkpt lat="49.33002" lon="3.27272">
        <ele>142</ele>
        <time>2015-01-18T09:52:20Z</time>
      </trkpt>
      <trkpt lat="49.33004" lon="3.27244">
        <ele>140</ele>
        <time>2015-01-18T09:52:25Z</time>
      </trkpt>
      <trkpt lat="49.33008" lon="3.27215">
        <ele>140</ele>
        <time>2015-01-18T09:52:30Z</time>
      </trkpt>
      <trkpt lat="49.33015" lon="3.27176">
        <ele>143</ele>
        <time>2015-01-18T09:52:37Z</time>
      </trkpt>
      <trkpt lat="49.33018" lon="3.27158">
        <ele>147</ele>
        <time>2015-01-18T09:52:40Z</time>
      </trkpt>
      <trkpt lat="49.33022" lon="3.27127">
        <ele>146</ele>
        <time>2015-01-18T09:52:45Z</time>
      </trkpt>
      <trkpt lat="49.33021" lon="3.27098">
        <ele>147</ele>
        <time>2015-01-18T09:52:50Z</time>
      </trkpt>
      <trkpt lat="49.33023" lon="3.27069">
        <ele>147</ele>
        <time>2015-01-18T09:52:55Z</time>
      </trkpt>
      <trkpt lat="49.33027" lon="3.27039">
        <ele>146</ele>
        <time>2015-01-18T09:53:00Z</time>
      </trkpt>
      <trkpt lat="49.33032" lon="3.2701">
        <ele>144</ele>
        <time>2015-01-18T09:53:05Z</time>
      </trkpt>
      <trkpt lat="49.33039" lon="3.26958">
        <ele>147</ele>
        <time>2015-01-18T09:53:14Z</time>
      </trkpt>
      <trkpt lat="49.33043" lon="3.26942">
        <ele>148</ele>
        <time>2015-01-18T09:53:17Z</time>
      </trkpt>
      <trkpt lat="49.33047" lon="3.26925">
        <ele>149</ele>
        <time>2015-01-18T09:53:20Z</time>
      </trkpt>
      <trkpt lat="49.33057" lon="3.269">
        <ele>148</ele>
        <time>2015-01-18T09:53:25Z</time>
      </trkpt>
      <trkpt lat="49.33066" lon="3.26879">
        <ele>149</ele>
        <time>2015-01-18T09:53:30Z</time>
      </trkpt>
      <trkpt lat="49.33073" lon="3.26862">
        <ele>148</ele>
        <time>2015-01-18T09:53:35Z</time>
      </trkpt>
      <trkpt lat="49.33082" lon="3.26854">
        <ele>150</ele>
        <time>2015-01-18T09:53:40Z</time>
      </trkpt>
      <trkpt lat="49.33095" lon="3.26866">
        <ele>151</ele>
        <time>2015-01-18T09:53:46Z</time>
      </trkpt>
      <trkpt lat="49.33104" lon="3.26876">
        <ele>153</ele>
        <time>2015-01-18T09:53:50Z</time>
      </trkpt>
      <trkpt lat="49.33118" lon="3.26891">
        <ele>153</ele>
        <time>2015-01-18T09:53:55Z</time>
      </trkpt>
      <trkpt lat="49.33135" lon="3.26907">
        <ele>151</ele>
        <time>2015-01-18T09:54:00Z</time>
      </trkpt>
      <trkpt lat="49.33152" lon="3.26924">
        <ele>150</ele>
        <time>2015-01-18T09:54:05Z</time>
      </trkpt>
      <trkpt lat="49.33168" lon="3.26941">
        <ele>151</ele>
        <time>2015-01-18T09:54:10Z</time>
      </trkpt>
      <trkpt lat="49.33184" lon="3.26956">
        <ele>150</ele>
        <time>2015-01-18T09:54:15Z</time>
      </trkpt>
      <trkpt lat="49.332" lon="3.26972">
        <ele>151</ele>
        <time>2015-01-18T09:54:20Z</time>
      </trkpt>
      <trkpt lat="49.33216" lon="3.2699">
        <ele>151</ele>
        <time>2015-01-18T09:54:25Z</time>
      </trkpt>
      <trkpt lat="49.33234" lon="3.27007">
        <ele>151</ele>
        <time>2015-01-18T09:54:30Z</time>
      </trkpt>
      <trkpt lat="49.33252" lon="3.27023">
        <ele>151</ele>
        <time>2015-01-18T09:54:35Z</time>
      </trkpt>
      <trkpt lat="49.3327" lon="3.27041">
        <ele>151</ele>
        <time>2015-01-18T09:54:40Z</time>
      </trkpt>
      <trkpt lat="49.33286" lon="3.27058">
        <ele>152</ele>
        <time>2015-01-18T09:54:45Z</time>
      </trkpt>
      <trkpt lat="49.333" lon="3.27072">
        <ele>152</ele>
        <time>2015-01-18T09:54:50Z</time>
      </trkpt>
      <trkpt lat="49.33309" lon="3.27098">
        <ele>151</ele>
        <time>2015-01-18T09:54:55Z</time>
      </trkpt>
      <trkpt lat="49.33321" lon="3.27124">
        <ele>153</ele>
        <time>2015-01-18T09:55:00Z</time>
      </trkpt>
      <trkpt lat="49.33338" lon="3.27141">
        <ele>152</ele>
        <time>2015-01-18T09:55:05Z</time>
      </trkpt>
      <trkpt lat="49.33358" lon="3.27153">
        <ele>152</ele>
        <time>2015-01-18T09:55:10Z</time>
      </trkpt>
      <trkpt lat="49.3337" lon="3.27135">
        <ele>151</ele>
        <time>2015-01-18T09:55:15Z</time>
      </trkpt>
      <trkpt lat="49.33363" lon="3.27108">
        <ele>152</ele>
        <time>2015-01-18T09:55:20Z</time>
      </trkpt>
      <trkpt lat="49.33352" lon="3.27085">
        <ele>152</ele>
        <time>2015-01-18T09:55:25Z</time>
      </trkpt>
      <trkpt lat="49.33356" lon="3.27057">
        <ele>151</ele>
        <time>2015-01-18T09:55:30Z</time>
      </trkpt>
      <trkpt lat="49.33363" lon="3.27029">
        <ele>152</ele>
        <time>2015-01-18T09:55:35Z</time>
      </trkpt>
      <trkpt lat="49.33371" lon="3.27">
        <ele>152</ele>
        <time>2015-01-18T09:55:40Z</time>
      </trkpt>
      <trkpt lat="49.33378" lon="3.26973">
        <ele>154</ele>
        <time>2015-01-18T09:55:45Z</time>
      </trkpt>
      <trkpt lat="49.33386" lon="3.26944">
        <ele>154</ele>
        <time>2015-01-18T09:55:50Z</time>
      </trkpt>
      <trkpt lat="49.33393" lon="3.26916">
        <ele>154</ele>
        <time>2015-01-18T09:55:55Z</time>
      </trkpt>
      <trkpt lat="49.33401" lon="3.26888">
        <ele>155</ele>
        <time>2015-01-18T09:56:00Z</time>
      </trkpt>
      <trkpt lat="49.33409" lon="3.2686">
        <ele>154</ele>
        <time>2015-01-18T09:56:05Z</time>
      </trkpt>
      <trkpt lat="49.33416" lon="3.26832">
        <ele>155</ele>
        <time>2015-01-18T09:56:10Z</time>
      </trkpt>
      <trkpt lat="49.33423" lon="3.26804">
        <ele>155</ele>
        <time>2015-01-18T09:56:15Z</time>
      </trkpt>
      <trkpt lat="49.33429" lon="3.26778">
        <ele>156</ele>
        <time>2015-01-18T09:56:20Z</time>
      </trkpt>
      <trkpt lat="49.33438" lon="3.26755">
        <ele>156</ele>
        <time>2015-01-18T09:56:25Z</time>
      </trkpt>
      <trkpt lat="49.33448" lon="3.26743">
        <ele>157</ele>
        <time>2015-01-18T09:56:30Z</time>
      </trkpt>
      <trkpt lat="49.33447" lon="3.2673">
        <ele>158</ele>
        <time>2015-01-18T09:56:35Z</time>
      </trkpt>
      <trkpt lat="49.33451" lon="3.26716">
        <ele>158</ele>
        <time>2015-01-18T09:56:40Z</time>
      </trkpt>
      <trkpt lat="49.33453" lon="3.26693">
        <ele>158</ele>
        <time>2015-01-18T09:56:45Z</time>
      </trkpt>
      <trkpt lat="49.33461" lon="3.26666">
        <ele>157</ele>
        <time>2015-01-18T09:56:50Z</time>
      </trkpt>
      <trkpt lat="49.33468" lon="3.26637">
        <ele>156</ele>
        <time>2015-01-18T09:56:55Z</time>
      </trkpt>
      <trkpt lat="49.33476" lon="3.26605">
        <ele>156</ele>
        <time>2015-01-18T09:57:00Z</time>
      </trkpt>
      <trkpt lat="49.33485" lon="3.26571">
        <ele>156</ele>
        <time>2015-01-18T09:57:05Z</time>
      </trkpt>
      <trkpt lat="49.33494" lon="3.26537">
        <ele>155</ele>
        <time>2015-01-18T09:57:10Z</time>
      </trkpt>
      <trkpt lat="49.33503" lon="3.26503">
        <ele>156</ele>
        <time>2015-01-18T09:57:15Z</time>
      </trkpt>
      <trkpt lat="49.33512" lon="3.26467">
        <ele>153</ele>
        <time>2015-01-18T09:57:20Z</time>
      </trkpt>
      <trkpt lat="49.33522" lon="3.26427">
        <ele>151</ele>
        <time>2015-01-18T09:57:26Z</time>
      </trkpt>
      <trkpt lat="49.3353" lon="3.264">
        <ele>151</ele>
        <time>2015-01-18T09:57:30Z</time>
      </trkpt>
      <trkpt lat="49.33541" lon="3.26364">
        <ele>151</ele>
        <time>2015-01-18T09:57:35Z</time>
      </trkpt>
      <trkpt lat="49.33549" lon="3.26337">
        <ele>152</ele>
        <time>2015-01-18T09:57:40Z</time>
      </trkpt>
      <trkpt lat="49.33546" lon="3.26326">
        <ele>151</ele>
        <time>2015-01-18T09:57:45Z</time>
      </trkpt>
      <trkpt lat="49.33543" lon="3.26344">
        <ele>152</ele>
        <time>2015-01-18T09:57:50Z</time>
      </trkpt>
      <trkpt lat="49.33536" lon="3.26369">
        <ele>152</ele>
        <time>2015-01-18T09:57:55Z</time>
      </trkpt>
      <trkpt lat="49.33529" lon="3.264">
        <ele>152</ele>
        <time>2015-01-18T09:58:00Z</time>
      </trkpt>
      <trkpt lat="49.3352" lon="3.2643">
        <ele>153</ele>
        <time>2015-01-18T09:58:05Z</time>
      </trkpt>
      <trkpt lat="49.33512" lon="3.2646">
        <ele>153</ele>
        <time>2015-01-18T09:58:10Z</time>
      </trkpt>
      <trkpt lat="49.33505" lon="3.2649">
        <ele>154</ele>
        <time>2015-01-18T09:58:15Z</time>
      </trkpt>
      <trkpt lat="49.33497" lon="3.26521">
        <ele>154</ele>
        <time>2015-01-18T09:58:20Z</time>
      </trkpt>
      <trkpt lat="49.33488" lon="3.26551">
        <ele>156</ele>
        <time>2015-01-18T09:58:25Z</time>
      </trkpt>
      <trkpt lat="49.33479" lon="3.2658">
        <ele>156</ele>
        <time>2015-01-18T09:58:30Z</time>
      </trkpt>
      <trkpt lat="49.3347" lon="3.26609">
        <ele>157</ele>
        <time>2015-01-18T09:58:35Z</time>
      </trkpt>
      <trkpt lat="49.33464" lon="3.2664">
        <ele>158</ele>
        <time>2015-01-18T09:58:40Z</time>
      </trkpt>
      <trkpt lat="49.33458" lon="3.26666">
        <ele>158</ele>
        <time>2015-01-18T09:58:45Z</time>
      </trkpt>
      <trkpt lat="49.33453" lon="3.26692">
        <ele>158</ele>
        <time>2015-01-18T09:58:50Z</time>
      </trkpt>
      <trkpt lat="49.3345" lon="3.26718">
        <ele>157</ele>
        <time>2015-01-18T09:58:55Z</time>
      </trkpt>
      <trkpt lat="49.33441" lon="3.26741">
        <ele>157</ele>
        <time>2015-01-18T09:59:00Z</time>
      </trkpt>
      <trkpt lat="49.3343" lon="3.26768">
        <ele>158</ele>
        <time>2015-01-18T09:59:05Z</time>
      </trkpt>
      <trkpt lat="49.33421" lon="3.26799">
        <ele>157</ele>
        <time>2015-01-18T09:59:10Z</time>
      </trkpt>
      <trkpt lat="49.33412" lon="3.26831">
        <ele>156</ele>
        <time>2015-01-18T09:59:15Z</time>
      </trkpt>
      <trkpt lat="49.33404" lon="3.26867">
        <ele>155</ele>
        <time>2015-01-18T09:59:20Z</time>
      </trkpt>
      <trkpt lat="49.33394" lon="3.26902">
        <ele>153</ele>
        <time>2015-01-18T09:59:25Z</time>
      </trkpt>
      <trkpt lat="49.33385" lon="3.26939">
        <ele>153</ele>
        <time>2015-01-18T09:59:30Z</time>
      </trkpt>
      <trkpt lat="49.33374" lon="3.26976">
        <ele>153</ele>
        <time>2015-01-18T09:59:35Z</time>
      </trkpt>
      <trkpt lat="49.33364" lon="3.27012">
        <ele>153</ele>
        <time>2015-01-18T09:59:40Z</time>
      </trkpt>
      <trkpt lat="49.33354" lon="3.27048">
        <ele>152</ele>
        <time>2015-01-18T09:59:45Z</time>
      </trkpt>
      <trkpt lat="49.33349" lon="3.27083">
        <ele>152</ele>
        <time>2015-01-18T09:59:50Z</time>
      </trkpt>
      <trkpt lat="49.33362" lon="3.27115">
        <ele>153</ele>
        <time>2015-01-18T09:59:55Z</time>
      </trkpt>
      <trkpt lat="49.33378" lon="3.27151">
        <ele>151</ele>
        <time>2015-01-18T10:00:00Z</time>
      </trkpt>
      <trkpt lat="49.334" lon="3.2718">
        <ele>151</ele>
        <time>2015-01-18T10:00:05Z</time>
      </trkpt>
      <trkpt lat="49.33424" lon="3.27202">
        <ele>152</ele>
        <time>2015-01-18T10:00:10Z</time>
      </trkpt>
      <trkpt lat="49.33449" lon="3.27225">
        <ele>151</ele>
        <time>2015-01-18T10:00:15Z</time>
      </trkpt>
      <trkpt lat="49.33472" lon="3.27249">
        <ele>151</ele>
        <time>2015-01-18T10:00:20Z</time>
      </trkpt>
      <trkpt lat="49.33496" lon="3.27275">
        <ele>151</ele>
        <time>2015-01-18T10:00:25Z</time>
      </trkpt>
      <trkpt lat="49.33521" lon="3.27293">
        <ele>150</ele>
        <time>2015-01-18T10:00:30Z</time>
      </trkpt>
      <trkpt lat="49.33547" lon="3.2731">
        <ele>150</ele>
        <time>2015-01-18T10:00:35Z</time>
      </trkpt>
      <trkpt lat="49.33573" lon="3.27325">
        <ele>151</ele>
        <time>2015-01-18T10:00:40Z</time>
      </trkpt>
      <trkpt lat="49.33599" lon="3.27341">
        <ele>151</ele>
        <time>2015-01-18T10:00:45Z</time>
      </trkpt>
      <trkpt lat="49.33622" lon="3.27355">
        <ele>152</ele>
        <time>2015-01-18T10:00:50Z</time>
      </trkpt>
      <trkpt lat="49.33641" lon="3.27377">
        <ele>150</ele>
        <time>2015-01-18T10:00:55Z</time>
      </trkpt>
      <trkpt lat="49.33659" lon="3.27401">
        <ele>152</ele>
        <time>2015-01-18T10:01:00Z</time>
      </trkpt>
      <trkpt lat="49.3368" lon="3.27415">
        <ele>153</ele>
        <time>2015-01-18T10:01:05Z</time>
      </trkpt>
      <trkpt lat="49.33705" lon="3.27412">
        <ele>152</ele>
        <time>2015-01-18T10:01:10Z</time>
      </trkpt>
      <trkpt lat="49.33737" lon="3.27424">
        <ele>152</ele>
        <time>2015-01-18T10:01:16Z</time>
      </trkpt>
      <trkpt lat="49.33763" lon="3.27442">
        <ele>153</ele>
        <time>2015-01-18T10:01:21Z</time>
      </trkpt>
      <trkpt lat="49.33786" lon="3.27453">
        <ele>151</ele>
        <time>2015-01-18T10:01:25Z</time>
      </trkpt>
      <trkpt lat="49.33813" lon="3.2747">
        <ele>149</ele>
        <time>2015-01-18T10:01:30Z</time>
      </trkpt>
      <trkpt lat="49.33841" lon="3.27487">
        <ele>147</ele>
        <time>2015-01-18T10:01:35Z</time>
      </trkpt>
      <trkpt lat="49.33868" lon="3.27503">
        <ele>148</ele>
        <time>2015-01-18T10:01:40Z</time>
      </trkpt>
      <trkpt lat="49.33895" lon="3.2752">
        <ele>148</ele>
        <time>2015-01-18T10:01:45Z</time>
      </trkpt>
      <trkpt lat="49.33921" lon="3.27539">
        <ele>148</ele>
        <time>2015-01-18T10:01:50Z</time>
      </trkpt>
      <trkpt lat="49.33943" lon="3.27568">
        <ele>147</ele>
        <time>2015-01-18T10:01:55Z</time>
      </trkpt>
      <trkpt lat="49.33969" lon="3.27583">
        <ele>148</ele>
        <time>2015-01-18T10:02:00Z</time>
      </trkpt>
      <trkpt lat="49.33999" lon="3.27581">
        <ele>148</ele>
        <time>2015-01-18T10:02:05Z</time>
      </trkpt>
      <trkpt lat="49.34027" lon="3.27595">
        <ele>148</ele>
        <time>2015-01-18T10:02:10Z</time>
      </trkpt>
      <trkpt lat="49.34075" lon="3.27626">
        <ele>148</ele>
        <time>2015-01-18T10:02:19Z</time>
      </trkpt>
      <trkpt lat="49.3409" lon="3.27635">
        <ele>147</ele>
        <time>2015-01-18T10:02:22Z</time>
      </trkpt>
      <trkpt lat="49.34105" lon="3.27644">
        <ele>148</ele>
        <time>2015-01-18T10:02:25Z</time>
      </trkpt>
      <trkpt lat="49.34133" lon="3.2766">
        <ele>148</ele>
        <time>2015-01-18T10:02:30Z</time>
      </trkpt>
      <trkpt lat="49.34159" lon="3.27675">
        <ele>147</ele>
        <time>2015-01-18T10:02:35Z</time>
      </trkpt>
      <trkpt lat="49.3418" lon="3.27689">
        <ele>148</ele>
        <time>2015-01-18T10:02:40Z</time>
      </trkpt>
      <trkpt lat="49.34201" lon="3.277">
        <ele>149</ele>
        <time>2015-01-18T10:02:45Z</time>
      </trkpt>
      <trkpt lat="49.34211" lon="3.2772">
        <ele>150</ele>
        <time>2015-01-18T10:02:50Z</time>
      </trkpt>
      <trkpt lat="49.34202" lon="3.27752">
        <ele>152</ele>
        <time>2015-01-18T10:02:56Z</time>
      </trkpt>
      <trkpt lat="49.34193" lon="3.27777">
        <ele>150</ele>
        <time>2015-01-18T10:03:00Z</time>
      </trkpt>
      <trkpt lat="49.34184" lon="3.27809">
        <ele>152</ele>
        <time>2015-01-18T10:03:05Z</time>
      </trkpt>
      <trkpt lat="49.34174" lon="3.27843">
        <ele>151</ele>
        <time>2015-01-18T10:03:10Z</time>
      </trkpt>
      <trkpt lat="49.34165" lon="3.27876">
        <ele>151</ele>
        <time>2015-01-18T10:03:15Z</time>
      </trkpt>
      <trkpt lat="49.34155" lon="3.27909">
        <ele>151</ele>
        <time>2015-01-18T10:03:20Z</time>
      </trkpt>
      <trkpt lat="49.34145" lon="3.2794">
        <ele>150</ele>
        <time>2015-01-18T10:03:25Z</time>
      </trkpt>
      <trkpt lat="49.34135" lon="3.27973">
        <ele>150</ele>
        <time>2015-01-18T10:03:30Z</time>
      </trkpt>
      <trkpt lat="49.34125" lon="3.28006">
        <ele>151</ele>
        <time>2015-01-18T10:03:35Z</time>
      </trkpt>
      <trkpt lat="49.34113" lon="3.2804">
        <ele>149</ele>
        <time>2015-01-18T10:03:40Z</time>
      </trkpt>
      <trkpt lat="49.34101" lon="3.28073">
        <ele>151</ele>
        <time>2015-01-18T10:03:45Z</time>
      </trkpt>
      <trkpt lat="49.3409" lon="3.2811">
        <ele>151</ele>
        <time>2015-01-18T10:03:50Z</time>
      </trkpt>
      <trkpt lat="49.34079" lon="3.28149">
        <ele>149</ele>
        <time>2015-01-18T10:03:55Z</time>
      </trkpt>
      <trkpt lat="49.34068" lon="3.28189">
        <ele>147</ele>
        <time>2015-01-18T10:04:00Z</time>
      </trkpt>
      <trkpt lat="49.34056" lon="3.28228">
        <ele>146</ele>
        <time>2015-01-18T10:04:05Z</time>
      </trkpt>
      <trkpt lat="49.34043" lon="3.28272">
        <ele>144</ele>
        <time>2015-01-18T10:04:10Z</time>
      </trkpt>
      <trkpt lat="49.34029" lon="3.28318">
        <ele>145</ele>
        <time>2015-01-18T10:04:15Z</time>
      </trkpt>
      <trkpt lat="49.34015" lon="3.28365">
        <ele>143</ele>
        <time>2015-01-18T10:04:20Z</time>
      </trkpt>
      <trkpt lat="49.34001" lon="3.28409">
        <ele>142</ele>
        <time>2015-01-18T10:04:25Z</time>
      </trkpt>
      <trkpt lat="49.33987" lon="3.28453">
        <ele>141</ele>
        <time>2015-01-18T10:04:30Z</time>
      </trkpt>
      <trkpt lat="49.33974" lon="3.28498">
        <ele>140</ele>
        <time>2015-01-18T10:04:35Z</time>
      </trkpt>
      <trkpt lat="49.3396" lon="3.28543">
        <ele>139</ele>
        <time>2015-01-18T10:04:40Z</time>
      </trkpt>
      <trkpt lat="49.33948" lon="3.28589">
        <ele>138</ele>
        <time>2015-01-18T10:04:45Z</time>
      </trkpt>
      <trkpt lat="49.33935" lon="3.28636">
        <ele>138</ele>
        <time>2015-01-18T10:04:50Z</time>
      </trkpt>
      <trkpt lat="49.33921" lon="3.28678">
        <ele>136</ele>
        <time>2015-01-18T10:04:55Z</time>
      </trkpt>
      <trkpt lat="49.33909" lon="3.28722">
        <ele>136</ele>
        <time>2015-01-18T10:05:00Z</time>
      </trkpt>
      <trkpt lat="49.33897" lon="3.28763">
        <ele>136</ele>
        <time>2015-01-18T10:05:05Z</time>
      </trkpt>
      <trkpt lat="49.33884" lon="3.28799">
        <ele>135</ele>
        <time>2015-01-18T10:05:10Z</time>
      </trkpt>
      <trkpt lat="49.33863" lon="3.28828">
        <ele>133</ele>
        <time>2015-01-18T10:05:15Z</time>
      </trkpt>
      <trkpt lat="49.33835" lon="3.28847">
        <ele>131</ele>
        <time>2015-01-18T10:05:20Z</time>
      </trkpt>
      <trkpt lat="49.3381" lon="3.28865">
        <ele>130</ele>
        <time>2015-01-18T10:05:25Z</time>
      </trkpt>
      <trkpt lat="49.33784" lon="3.28894">
        <ele>129</ele>
        <time>2015-01-18T10:05:30Z</time>
      </trkpt>
      <trkpt lat="49.33766" lon="3.28923">
        <ele>125</ele>
        <time>2015-01-18T10:05:35Z</time>
      </trkpt>
      <trkpt lat="49.33775" lon="3.28932">
        <ele>125</ele>
        <time>2015-01-18T10:05:40Z</time>
      </trkpt>
      <trkpt lat="49.33795" lon="3.28918">
        <ele>122</ele>
        <time>2015-01-18T10:05:45Z</time>
      </trkpt>
      <trkpt lat="49.33823" lon="3.28932">
        <ele>119</ele>
        <time>2015-01-18T10:05:50Z</time>
      </trkpt>
      <trkpt lat="49.33846" lon="3.28969">
        <ele>120</ele>
        <time>2015-01-18T10:05:55Z</time>
      </trkpt>
      <trkpt lat="49.33873" lon="3.29015">
        <ele>122</ele>
        <time>2015-01-18T10:06:04Z</time>
      </trkpt>
      <trkpt lat="49.33874" lon="3.29018">
        <ele>122</ele>
        <time>2015-01-18T10:06:05Z</time>
      </trkpt>
      <trkpt lat="49.33883" lon="3.29036">
        <ele>124</ele>
        <time>2015-01-18T10:06:10Z</time>
      </trkpt>
      <trkpt lat="49.33892" lon="3.29055">
        <ele>125</ele>
        <time>2015-01-18T10:06:15Z</time>
      </trkpt>
      <trkpt lat="49.33899" lon="3.29075">
        <ele>126</ele>
        <time>2015-01-18T10:06:20Z</time>
      </trkpt>
      <trkpt lat="49.33912" lon="3.29106">
        <ele>124</ele>
        <time>2015-01-18T10:06:27Z</time>
      </trkpt>
      <trkpt lat="49.33918" lon="3.2912">
        <ele>125</ele>
        <time>2015-01-18T10:06:30Z</time>
      </trkpt>
      <trkpt lat="49.33931" lon="3.29141">
        <ele>126</ele>
        <time>2015-01-18T10:06:35Z</time>
      </trkpt>
      <trkpt lat="49.33944" lon="3.29162">
        <ele>125</ele>
        <time>2015-01-18T10:06:40Z</time>
      </trkpt>
      <trkpt lat="49.33956" lon="3.29183">
        <ele>123</ele>
        <time>2015-01-18T10:06:45Z</time>
      </trkpt>
      <trkpt lat="49.33962" lon="3.29203">
        <ele>120</ele>
        <time>2015-01-18T10:06:50Z</time>
      </trkpt>
      <trkpt lat="49.33972" lon="3.29229">
        <ele>122</ele>
        <time>2015-01-18T10:06:55Z</time>
      </trkpt>
      <trkpt lat="49.3398" lon="3.29253">
        <ele>123</ele>
        <time>2015-01-18T10:07:00Z</time>
      </trkpt>
      <trkpt lat="49.33989" lon="3.29275">
        <ele>122</ele>
        <time>2015-01-18T10:07:05Z</time>
      </trkpt>
      <trkpt lat="49.33997" lon="3.29302">
        <ele>125</ele>
        <time>2015-01-18T10:07:10Z</time>
      </trkpt>
      <trkpt lat="49.34017" lon="3.29351">
        <ele>125</ele>
        <time>2015-01-18T10:07:19Z</time>
      </trkpt>
      <trkpt lat="49.34019" lon="3.29356">
        <ele>126</ele>
        <time>2015-01-18T10:07:20Z</time>
      </trkpt>
      <trkpt lat="49.34031" lon="3.29391">
        <ele>125</ele>
        <time>2015-01-18T10:07:27Z</time>
      </trkpt>
      <trkpt lat="49.3404" lon="3.29409">
        <ele>126</ele>
        <time>2015-01-18T10:07:31Z</time>
      </trkpt>
      <trkpt lat="49.34047" lon="3.29428">
        <ele>124</ele>
        <time>2015-01-18T10:07:35Z</time>
      </trkpt>
      <trkpt lat="49.34056" lon="3.29452">
        <ele>125</ele>
        <time>2015-01-18T10:07:40Z</time>
      </trkpt>
      <trkpt lat="49.34078" lon="3.2949">
        <ele>127</ele>
        <time>2015-01-18T10:07:49Z</time>
      </trkpt>
      <trkpt lat="49.34081" lon="3.29493">
        <ele>127</ele>
        <time>2015-01-18T10:07:50Z</time>
      </trkpt>
      <trkpt lat="49.34091" lon="3.29512">
        <ele>127</ele>
        <time>2015-01-18T10:07:55Z</time>
      </trkpt>
      <trkpt lat="49.34102" lon="3.2953">
        <ele>127</ele>
        <time>2015-01-18T10:08:00Z</time>
      </trkpt>
      <trkpt lat="49.34112" lon="3.29546">
        <ele>127</ele>
        <time>2015-01-18T10:08:05Z</time>
      </trkpt>
      <trkpt lat="49.34123" lon="3.29564">
        <ele>127</ele>
        <time>2015-01-18T10:08:10Z</time>
      </trkpt>
      <trkpt lat="49.34134" lon="3.29583">
        <ele>127</ele>
        <time>2015-01-18T10:08:15Z</time>
      </trkpt>
      <trkpt lat="49.34147" lon="3.29602">
        <ele>127</ele>
        <time>2015-01-18T10:08:20Z</time>
      </trkpt>
      <trkpt lat="49.3416" lon="3.29622">
        <ele>126</ele>
        <time>2015-01-18T10:08:25Z</time>
      </trkpt>
      <trkpt lat="49.34172" lon="3.2964">
        <ele>126</ele>
        <time>2015-01-18T10:08:30Z</time>
      </trkpt>
      <trkpt lat="49.34185" lon="3.29658">
        <ele>125</ele>
        <time>2015-01-18T10:08:35Z</time>
      </trkpt>
      <trkpt lat="49.34199" lon="3.29676">
        <ele>125</ele>
        <time>2015-01-18T10:08:40Z</time>
      </trkpt>
      <trkpt lat="49.34213" lon="3.29696">
        <ele>125</ele>
        <time>2015-01-18T10:08:45Z</time>
      </trkpt>
      <trkpt lat="49.34229" lon="3.29718">
        <ele>124</ele>
        <time>2015-01-18T10:08:50Z</time>
      </trkpt>
      <trkpt lat="49.34249" lon="3.29742">
        <ele>123</ele>
        <time>2015-01-18T10:08:55Z</time>
      </trkpt>
      <trkpt lat="49.34269" lon="3.29762">
        <ele>123</ele>
        <time>2015-01-18T10:09:00Z</time>
      </trkpt>
      <trkpt lat="49.34289" lon="3.29781">
        <ele>121</ele>
        <time>2015-01-18T10:09:05Z</time>
      </trkpt>
      <trkpt lat="49.34305" lon="3.29805">
        <ele>119</ele>
        <time>2015-01-18T10:09:10Z</time>
      </trkpt>
      <trkpt lat="49.34319" lon="3.29828">
        <ele>121</ele>
        <time>2015-01-18T10:09:15Z</time>
      </trkpt>
      <trkpt lat="49.34333" lon="3.29858">
        <ele>120</ele>
        <time>2015-01-18T10:09:21Z</time>
      </trkpt>
      <trkpt lat="49.3435" lon="3.29905">
        <ele>120</ele>
        <time>2015-01-18T10:09:29Z</time>
      </trkpt>
      <trkpt lat="49.3436" lon="3.29923">
        <ele>123</ele>
        <time>2015-01-18T10:09:33Z</time>
      </trkpt>
      <trkpt lat="49.34364" lon="3.2993">
        <ele>125</ele>
        <time>2015-01-18T10:09:35Z</time>
      </trkpt>
      <trkpt lat="49.34373" lon="3.29955">
        <ele>128</ele>
        <time>2015-01-18T10:09:40Z</time>
      </trkpt>
      <trkpt lat="49.34386" lon="3.2998">
        <ele>130</ele>
        <time>2015-01-18T10:09:45Z</time>
      </trkpt>
      <trkpt lat="49.34394" lon="3.30003">
        <ele>127</ele>
        <time>2015-01-18T10:09:50Z</time>
      </trkpt>
      <trkpt lat="49.34399" lon="3.30026">
        <ele>125</ele>
        <time>2015-01-18T10:09:55Z</time>
      </trkpt>
      <trkpt lat="49.34401" lon="3.30059">
        <ele>125</ele>
        <time>2015-01-18T10:10:00Z</time>
      </trkpt>
      <trkpt lat="49.34402" lon="3.30089">
        <ele>127</ele>
        <time>2015-01-18T10:10:05Z</time>
      </trkpt>
      <trkpt lat="49.34401" lon="3.30134">
        <ele>127</ele>
        <time>2015-01-18T10:10:12Z</time>
      </trkpt>
      <trkpt lat="49.34399" lon="3.30154">
        <ele>123</ele>
        <time>2015-01-18T10:10:15Z</time>
      </trkpt>
      <trkpt lat="49.3439" lon="3.30176">
        <ele>128</ele>
        <time>2015-01-18T10:10:20Z</time>
      </trkpt>
      <trkpt lat="49.3438" lon="3.30204">
        <ele>129</ele>
        <time>2015-01-18T10:10:25Z</time>
      </trkpt>
      <trkpt lat="49.34372" lon="3.30237">
        <ele>129</ele>
        <time>2015-01-18T10:10:30Z</time>
      </trkpt>
      <trkpt lat="49.3436" lon="3.30276">
        <ele>122</ele>
        <time>2015-01-18T10:10:35Z</time>
      </trkpt>
      <trkpt lat="49.34339" lon="3.30353">
        <ele>123</ele>
        <time>2015-01-18T10:10:43Z</time>
      </trkpt>
      <trkpt lat="49.34347" lon="3.30381">
        <ele>119</ele>
        <time>2015-01-18T10:10:46Z</time>
      </trkpt>
      <trkpt lat="49.34357" lon="3.3043">
        <ele>110</ele>
        <time>2015-01-18T10:10:51Z</time>
      </trkpt>
      <trkpt lat="49.3437" lon="3.3048">
        <ele>108</ele>
        <time>2015-01-18T10:10:55Z</time>
      </trkpt>
      <trkpt lat="49.34358" lon="3.30559">
        <ele>101</ele>
        <time>2015-01-18T10:11:02Z</time>
      </trkpt>
      <trkpt lat="49.34362" lon="3.30595">
        <ele>93</ele>
        <time>2015-01-18T10:11:06Z</time>
      </trkpt>
      <trkpt lat="49.34379" lon="3.30677">
        <ele>87</ele>
        <time>2015-01-18T10:11:12Z</time>
      </trkpt>
      <trkpt lat="49.34386" lon="3.30693">
        <ele>79</ele>
        <time>2015-01-18T10:11:15Z</time>
      </trkpt>
      <trkpt lat="49.34397" lon="3.30716">
        <ele>77</ele>
        <time>2015-01-18T10:11:20Z</time>
      </trkpt>
      <trkpt lat="49.34413" lon="3.30766">
        <ele>77</ele>
        <time>2015-01-18T10:11:28Z</time>
      </trkpt>
      <trkpt lat="49.34418" lon="3.30801">
        <ele>76</ele>
        <time>2015-01-18T10:11:33Z</time>
      </trkpt>
      <trkpt lat="49.3443" lon="3.30842">
        <ele>73</ele>
        <time>2015-01-18T10:11:39Z</time>
      </trkpt>
      <trkpt lat="49.34436" lon="3.30857">
        <ele>71</ele>
        <time>2015-01-18T10:11:41Z</time>
      </trkpt>
      <trkpt lat="49.34445" lon="3.30886">
        <ele>69</ele>
        <time>2015-01-18T10:11:45Z</time>
      </trkpt>
      <trkpt lat="49.34456" lon="3.30922">
        <ele>65</ele>
        <time>2015-01-18T10:11:50Z</time>
      </trkpt>
      <trkpt lat="49.34465" lon="3.30958">
        <ele>64</ele>
        <time>2015-01-18T10:11:55Z</time>
      </trkpt>
      <trkpt lat="49.34479" lon="3.31001">
        <ele>64</ele>
        <time>2015-01-18T10:12:01Z</time>
      </trkpt>
      <trkpt lat="49.34491" lon="3.31037">
        <ele>63</ele>
        <time>2015-01-18T10:12:06Z</time>
      </trkpt>
      <trkpt lat="49.345" lon="3.31069">
        <ele>61</ele>
        <time>2015-01-18T10:12:10Z</time>
      </trkpt>
      <trkpt lat="49.34512" lon="3.31113">
        <ele>60</ele>
        <time>2015-01-18T10:12:15Z</time>
      </trkpt>
      <trkpt lat="49.34515" lon="3.31158">
        <ele>58</ele>
        <time>2015-01-18T10:12:20Z</time>
      </trkpt>
      <trkpt lat="49.34516" lon="3.31181">
        <ele>60</ele>
        <time>2015-01-18T10:12:25Z</time>
      </trkpt>
      <trkpt lat="49.34527" lon="3.31185">
        <ele>60</ele>
        <time>2015-01-18T10:12:30Z</time>
      </trkpt>
      <trkpt lat="49.34569" lon="3.31193">
        <ele>59</ele>
        <time>2015-01-18T10:12:38Z</time>
      </trkpt>
      <trkpt lat="49.34584" lon="3.31197">
        <ele>59</ele>
        <time>2015-01-18T10:12:41Z</time>
      </trkpt>
      <trkpt lat="49.34605" lon="3.3121">
        <ele>58</ele>
        <time>2015-01-18T10:12:45Z</time>
      </trkpt>
      <trkpt lat="49.34633" lon="3.31209">
        <ele>57</ele>
        <time>2015-01-18T10:12:50Z</time>
      </trkpt>
      <trkpt lat="49.34668" lon="3.31194">
        <ele>57</ele>
        <time>2015-01-18T10:12:56Z</time>
      </trkpt>
      <trkpt lat="49.34692" lon="3.31181">
        <ele>55</ele>
        <time>2015-01-18T10:13:00Z</time>
      </trkpt>
      <trkpt lat="49.34725" lon="3.31167">
        <ele>56</ele>
        <time>2015-01-18T10:13:06Z</time>
      </trkpt>
      <trkpt lat="49.34747" lon="3.3116">
        <ele>55</ele>
        <time>2015-01-18T10:13:10Z</time>
      </trkpt>
      <trkpt lat="49.34776" lon="3.31154">
        <ele>56</ele>
        <time>2015-01-18T10:13:15Z</time>
      </trkpt>
      <trkpt lat="49.34802" lon="3.31161">
        <ele>58</ele>
        <time>2015-01-18T10:13:20Z</time>
      </trkpt>
      <trkpt lat="49.34831" lon="3.31164">
        <ele>55</ele>
        <time>2015-01-18T10:13:25Z</time>
      </trkpt>
      <trkpt lat="49.34858" lon="3.31147">
        <ele>54</ele>
        <time>2015-01-18T10:13:30Z</time>
      </trkpt>
      <trkpt lat="49.34884" lon="3.31127">
        <ele>53</ele>
        <time>2015-01-18T10:13:35Z</time>
      </trkpt>
      <trkpt lat="49.34912" lon="3.31108">
        <ele>54</ele>
        <time>2015-01-18T10:13:40Z</time>
      </trkpt>
      <trkpt lat="49.34939" lon="3.31087">
        <ele>56</ele>
        <time>2015-01-18T10:13:45Z</time>
      </trkpt>
      <trkpt lat="49.34966" lon="3.31067">
        <ele>54</ele>
        <time>2015-01-18T10:13:50Z</time>
      </trkpt>
      <trkpt lat="49.34994" lon="3.31049">
        <ele>55</ele>
        <time>2015-01-18T10:13:55Z</time>
      </trkpt>
      <trkpt lat="49.35022" lon="3.31033">
        <ele>55</ele>
        <time>2015-01-18T10:14:00Z</time>
      </trkpt>
      <trkpt lat="49.35051" lon="3.31016">
        <ele>55</ele>
        <time>2015-01-18T10:14:05Z</time>
      </trkpt>
      <trkpt lat="49.35081" lon="3.31001">
        <ele>56</ele>
        <time>2015-01-18T10:14:10Z</time>
      </trkpt>
      <trkpt lat="49.3511" lon="3.30984">
        <ele>56</ele>
        <time>2015-01-18T10:14:15Z</time>
      </trkpt>
      <trkpt lat="49.35138" lon="3.30973">
        <ele>57</ele>
        <time>2015-01-18T10:14:20Z</time>
      </trkpt>
      <trkpt lat="49.35165" lon="3.30961">
        <ele>57</ele>
        <time>2015-01-18T10:14:25Z</time>
      </trkpt>
      <trkpt lat="49.35188" lon="3.30948">
        <ele>60</ele>
        <time>2015-01-18T10:14:30Z</time>
      </trkpt>
      <trkpt lat="49.35211" lon="3.30934">
        <ele>60</ele>
        <time>2015-01-18T10:14:35Z</time>
      </trkpt>
      <trkpt lat="49.35234" lon="3.30919">
        <ele>61</ele>
        <time>2015-01-18T10:14:40Z</time>
      </trkpt>
      <trkpt lat="49.35257" lon="3.30904">
        <ele>60</ele>
        <time>2015-01-18T10:14:45Z</time>
      </trkpt>
      <trkpt lat="49.35279" lon="3.30889">
        <ele>59</ele>
        <time>2015-01-18T10:14:50Z</time>
      </trkpt>
      <trkpt lat="49.353" lon="3.30875">
        <ele>60</ele>
        <time>2015-01-18T10:14:55Z</time>
      </trkpt>
      <trkpt lat="49.3532" lon="3.30861">
        <ele>61</ele>
        <time>2015-01-18T10:15:00Z</time>
      </trkpt>
      <trkpt lat="49.35336" lon="3.30844">
        <ele>61</ele>
        <time>2015-01-18T10:15:05Z</time>
      </trkpt>
      <trkpt lat="49.35348" lon="3.30825">
        <ele>60</ele>
        <time>2015-01-18T10:15:10Z</time>
      </trkpt>
      <trkpt lat="49.3536" lon="3.30802">
        <ele>62</ele>
        <time>2015-01-18T10:15:15Z</time>
      </trkpt>
      <trkpt lat="49.35379" lon="3.30793">
        <ele>59</ele>
        <time>2015-01-18T10:15:20Z</time>
      </trkpt>
      <trkpt lat="49.3541" lon="3.30802">
        <ele>56</ele>
        <time>2015-01-18T10:15:25Z</time>
      </trkpt>
      <trkpt lat="49.35445" lon="3.30809">
        <ele>54</ele>
        <time>2015-01-18T10:15:30Z</time>
      </trkpt>
      <trkpt lat="49.35481" lon="3.30815">
        <ele>53</ele>
        <time>2015-01-18T10:15:35Z</time>
      </trkpt>
      <trkpt lat="49.35519" lon="3.30813">
        <ele>53</ele>
        <time>2015-01-18T10:15:40Z</time>
      </trkpt>
      <trkpt lat="49.35555" lon="3.30807">
        <ele>53</ele>
        <time>2015-01-18T10:15:45Z</time>
      </trkpt>
      <trkpt lat="49.35588" lon="3.30801">
        <ele>50</ele>
        <time>2015-01-18T10:15:50Z</time>
      </trkpt>
      <trkpt lat="49.35615" lon="3.30796">
        <ele>53</ele>
        <time>2015-01-18T10:15:55Z</time>
      </trkpt>
      <trkpt lat="49.35639" lon="3.30796">
        <ele>52</ele>
        <time>2015-01-18T10:16:00Z</time>
      </trkpt>
      <trkpt lat="49.3566" lon="3.30795">
        <ele>53</ele>
        <time>2015-01-18T10:16:05Z</time>
      </trkpt>
      <trkpt lat="49.35678" lon="3.30796">
        <ele>55</ele>
        <time>2015-01-18T10:16:10Z</time>
      </trkpt>
      <trkpt lat="49.35694" lon="3.30795">
        <ele>53</ele>
        <time>2015-01-18T10:16:15Z</time>
      </trkpt>
      <trkpt lat="49.35708" lon="3.30799">
        <ele>54</ele>
        <time>2015-01-18T10:16:20Z</time>
      </trkpt>
      <trkpt lat="49.35723" lon="3.30799">
        <ele>55</ele>
        <time>2015-01-18T10:16:25Z</time>
      </trkpt>
      <trkpt lat="49.35739" lon="3.30805">
        <ele>54</ele>
        <time>2015-01-18T10:16:31Z</time>
      </trkpt>
      <trkpt lat="49.35753" lon="3.30808">
        <ele>52</ele>
        <time>2015-01-18T10:16:35Z</time>
      </trkpt>
      <trkpt lat="49.3577" lon="3.30813">
        <ele>50</ele>
        <time>2015-01-18T10:16:40Z</time>
      </trkpt>
      <trkpt lat="49.35787" lon="3.30818">
        <ele>52</ele>
        <time>2015-01-18T10:16:45Z</time>
      </trkpt>
      <trkpt lat="49.35805" lon="3.30823">
        <ele>51</ele>
        <time>2015-01-18T10:16:50Z</time>
      </trkpt>
      <trkpt lat="49.35826" lon="3.30828">
        <ele>50</ele>
        <time>2015-01-18T10:16:55Z</time>
      </trkpt>
      <trkpt lat="49.35851" lon="3.30836">
        <ele>49</ele>
        <time>2015-01-18T10:17:00Z</time>
      </trkpt>
      <trkpt lat="49.35884" lon="3.30834">
        <ele>48</ele>
        <time>2015-01-18T10:17:05Z</time>
      </trkpt>
      <trkpt lat="49.35924" lon="3.30824">
        <ele>45</ele>
        <time>2015-01-18T10:17:11Z</time>
      </trkpt>
      <trkpt lat="49.35946" lon="3.30826">
        <ele>44</ele>
        <time>2015-01-18T10:17:15Z</time>
      </trkpt>
      <trkpt lat="49.35974" lon="3.30825">
        <ele>44</ele>
        <time>2015-01-18T10:17:21Z</time>
      </trkpt>
      <trkpt lat="49.35978" lon="3.30843">
        <ele>44</ele>
        <time>2015-01-18T10:17:25Z</time>
      </trkpt>
      <trkpt lat="49.35981" lon="3.30872">
        <ele>45</ele>
        <time>2015-01-18T10:17:30Z</time>
      </trkpt>
      <trkpt lat="49.35984" lon="3.30907">
        <ele>45</ele>
        <time>2015-01-18T10:17:35Z</time>
      </trkpt>
      <trkpt lat="49.35989" lon="3.30946">
        <ele>46</ele>
        <time>2015-01-18T10:17:40Z</time>
      </trkpt>
      <trkpt lat="49.35993" lon="3.30989">
        <ele>46</ele>
        <time>2015-01-18T10:17:45Z</time>
      </trkpt>
      <trkpt lat="49.35997" lon="3.31032">
        <ele>45</ele>
        <time>2015-01-18T10:17:50Z</time>
      </trkpt>
      <trkpt lat="49.36" lon="3.31079">
        <ele>46</ele>
        <time>2015-01-18T10:17:55Z</time>
      </trkpt>
      <trkpt lat="49.36002" lon="3.31137">
        <ele>45</ele>
        <time>2015-01-18T10:18:01Z</time>
      </trkpt>
      <trkpt lat="49.36002" lon="3.31174">
        <ele>42</ele>
        <time>2015-01-18T10:18:05Z</time>
      </trkpt>
      <trkpt lat="49.35999" lon="3.31219">
        <ele>42</ele>
        <time>2015-01-18T10:18:10Z</time>
      </trkpt>
      <trkpt lat="49.35997" lon="3.31262">
        <ele>42</ele>
        <time>2015-01-18T10:18:15Z</time>
      </trkpt>
      <trkpt lat="49.35992" lon="3.31303">
        <ele>42</ele>
        <time>2015-01-18T10:18:20Z</time>
      </trkpt>
      <trkpt lat="49.35989" lon="3.31341">
        <ele>42</ele>
        <time>2015-01-18T10:18:25Z</time>
      </trkpt>
      <trkpt lat="49.35989" lon="3.31377">
        <ele>43</ele>
        <time>2015-01-18T10:18:30Z</time>
      </trkpt>
      <trkpt lat="49.35994" lon="3.31406">
        <ele>44</ele>
        <time>2015-01-18T10:18:35Z</time>
      </trkpt>
      <trkpt lat="49.36" lon="3.3143">
        <ele>46</ele>
        <time>2015-01-18T10:18:40Z</time>
      </trkpt>
      <trkpt lat="49.36002" lon="3.31451">
        <ele>47</ele>
        <time>2015-01-18T10:18:45Z</time>
      </trkpt>
      <trkpt lat="49.36" lon="3.31469">
        <ele>47</ele>
        <time>2015-01-18T10:18:50Z</time>
      </trkpt>
      <trkpt lat="49.36002" lon="3.31483">
        <ele>47</ele>
        <time>2015-01-18T10:18:55Z</time>
      </trkpt>
      <trkpt lat="49.36015" lon="3.3149">
        <ele>46</ele>
        <time>2015-01-18T10:19:00Z</time>
      </trkpt>
      <trkpt lat="49.36024" lon="3.31507">
        <ele>46</ele>
        <time>2015-01-18T10:19:05Z</time>
      </trkpt>
      <trkpt lat="49.36035" lon="3.31524">
        <ele>46</ele>
        <time>2015-01-18T10:19:10Z</time>
      </trkpt>
      <trkpt lat="49.36037" lon="3.31546">
        <ele>48</ele>
        <time>2015-01-18T10:19:15Z</time>
      </trkpt>
      <trkpt lat="49.36043" lon="3.31568">
        <ele>48</ele>
        <time>2015-01-18T10:19:20Z</time>
      </trkpt>
      <trkpt lat="49.3606" lon="3.31592">
        <ele>48</ele>
        <time>2015-01-18T10:19:25Z</time>
      </trkpt>
      <trkpt lat="49.36084" lon="3.31618">
        <ele>47</ele>
        <time>2015-01-18T10:19:30Z</time>
      </trkpt>
      <trkpt lat="49.36117" lon="3.3164">
        <ele>47</ele>
        <time>2015-01-18T10:19:36Z</time>
      </trkpt>
      <trkpt lat="49.36141" lon="3.31649">
        <ele>46</ele>
        <time>2015-01-18T10:19:41Z</time>
      </trkpt>
      <trkpt lat="49.36167" lon="3.31676">
        <ele>46</ele>
        <time>2015-01-18T10:19:47Z</time>
      </trkpt>
      <trkpt lat="49.36185" lon="3.31683">
        <ele>45</ele>
        <time>2015-01-18T10:19:50Z</time>
      </trkpt>
      <trkpt lat="49.36217" lon="3.31685">
        <ele>44</ele>
        <time>2015-01-18T10:19:55Z</time>
      </trkpt>
      <trkpt lat="49.36253" lon="3.31679">
        <ele>41</ele>
        <time>2015-01-18T10:20:00Z</time>
      </trkpt>
      <trkpt lat="49.36299" lon="3.31699">
        <ele>41</ele>
        <time>2015-01-18T10:20:08Z</time>
      </trkpt>
      <trkpt lat="49.36326" lon="3.31717">
        <ele>41</ele>
        <time>2015-01-18T10:20:13Z</time>
      </trkpt>
      <trkpt lat="49.36337" lon="3.31727">
        <ele>41</ele>
        <time>2015-01-18T10:20:15Z</time>
      </trkpt>
      <trkpt lat="49.36361" lon="3.31755">
        <ele>41</ele>
        <time>2015-01-18T10:20:20Z</time>
      </trkpt>
      <trkpt lat="49.36387" lon="3.31786">
        <ele>42</ele>
        <time>2015-01-18T10:20:25Z</time>
      </trkpt>
      <trkpt lat="49.36409" lon="3.31825">
        <ele>42</ele>
        <time>2015-01-18T10:20:30Z</time>
      </trkpt>
      <trkpt lat="49.36433" lon="3.31855">
        <ele>43</ele>
        <time>2015-01-18T10:20:35Z</time>
      </trkpt>
      <trkpt lat="49.36459" lon="3.31875">
        <ele>44</ele>
        <time>2015-01-18T10:20:40Z</time>
      </trkpt>
      <trkpt lat="49.36482" lon="3.31888">
        <ele>45</ele>
        <time>2015-01-18T10:20:45Z</time>
      </trkpt>
      <trkpt lat="49.36504" lon="3.31902">
        <ele>45</ele>
        <time>2015-01-18T10:20:51Z</time>
      </trkpt>
      <trkpt lat="49.36515" lon="3.31925">
        <ele>43</ele>
        <time>2015-01-18T10:20:56Z</time>
      </trkpt>
      <trkpt lat="49.36527" lon="3.31944">
        <ele>42</ele>
        <time>2015-01-18T10:21:00Z</time>
      </trkpt>
      <trkpt lat="49.36542" lon="3.31953">
        <ele>41</ele>
        <time>2015-01-18T10:21:05Z</time>
      </trkpt>
      <trkpt lat="49.3655" lon="3.31945">
        <ele>42</ele>
        <time>2015-01-18T10:21:11Z</time>
      </trkpt>
      <trkpt lat="49.3655" lon="3.31946">
        <ele>42</ele>
        <time>2015-01-18T10:21:15Z</time>
      </trkpt>
      <trkpt lat="49.3655" lon="3.31945">
        <ele>43</ele>
        <time>2015-01-18T10:21:20Z</time>
      </trkpt>
      <trkpt lat="49.36551" lon="3.31944">
        <ele>43</ele>
        <time>2015-01-18T10:21:27Z</time>
      </trkpt>
      <trkpt lat="49.36551" lon="3.31945">
        <ele>43</ele>
        <time>2015-01-18T10:21:30Z</time>
      </trkpt>
      <trkpt lat="49.36551" lon="3.31944">
        <ele>43</ele>
        <time>2015-01-18T10:21:35Z</time>
      </trkpt>
      <trkpt lat="49.36553" lon="3.31942">
        <ele>43</ele>
        <time>2015-01-18T10:21:40Z</time>
      </trkpt>
      <trkpt lat="49.36553" lon="3.31941">
        <ele>43</ele>
        <time>2015-01-18T10:21:45Z</time>
      </trkpt>
      <trkpt lat="49.36553" lon="3.31941">
        <ele>43</ele>
        <time>2015-01-18T10:21:50Z</time>
      </trkpt>
      <trkpt lat="49.36553" lon="3.31942">
        <ele>43</ele>
        <time>2015-01-18T10:21:55Z</time>
      </trkpt>
      <trkpt lat="49.36553" lon="3.31942">
        <ele>43</ele>
        <time>2015-01-18T10:22:00Z</time>
      </trkpt>
      <trkpt lat="49.36553" lon="3.31942">
        <ele>44</ele>
        <time>2015-01-18T10:22:05Z</time>
      </trkpt>
      <trkpt lat="49.36554" lon="3.31941">
        <ele>43</ele>
        <time>2015-01-18T10:22:10Z</time>
      </trkpt>
      <trkpt lat="49.36555" lon="3.3194">
        <ele>47</ele>
        <time>2015-01-18T10:22:15Z</time>
      </trkpt>
      <trkpt lat="49.36556" lon="3.31939">
        <ele>45</ele>
        <time>2015-01-18T10:22:20Z</time>
      </trkpt>
      <trkpt lat="49.36556" lon="3.3194">
        <ele>43</ele>
        <time>2015-01-18T10:22:25Z</time>
      </trkpt>
      <trkpt lat="49.36556" lon="3.31941">
        <ele>43</ele>
        <time>2015-01-18T10:22:30Z</time>
      </trkpt>
      <trkpt lat="49.36556" lon="3.31941">
        <ele>43</ele>
        <time>2015-01-18T10:22:35Z</time>
      </trkpt>
      <trkpt lat="49.36556" lon="3.31941">
        <ele>43</ele>
        <time>2015-01-18T10:22:40Z</time>
      </trkpt>
      <trkpt lat="49.36556" lon="3.31941">
        <ele>43</ele>
        <time>2015-01-18T10:22:45Z</time>
      </trkpt>
      <trkpt lat="49.36556" lon="3.31941">
        <ele>43</ele>
        <time>2015-01-18T10:22:50Z</time>
      </trkpt>
    </trkseg>
  </trk>
</gpx>